[[{"header":{"parameterUnit":"m.s-1","parameterCategory":1,"la1":30.6,"la2":29.2853,"lo1":-89.7004,"lo2":-87.6739,"dy":0.0162,"dx":0.0183,"nx":112,"ny":82,"refTime":"2024-05-31T06:00:00:Z","depth":0,"parameterNumber":2,"parameterNumberName":"U-component_of_WINDS"},"data":[0.0,0.0,0.0,0.0,0.0,0.0,0.0,0.0,0.0,0.0,0.0,0.0,0.0,0.0,0.0,0.0,0.0,0.0,0.0,0.0,0.0,0.0,0.0,0.0,0.0,0.0,0.0,0.0,0.0,0.0,0.0,0.0,0.0,0.0,0.0,0.0,0.0,0.0,0.0,0.0,0.0,0.0,0.0,0.0,0.0,0.0,0.0,0.0,0.0,0.0,0.0,0.0,0.0,0.0,0.0,0.0,0.0,0.0,0.0,0.0,0.0,0.0,0.0,0.0,0.0,0.0,0.0,0.0,0.0,0.0,0.0,0.0,0.0,0.0,0.0,0.0,0.0,0.0,0.0,0.0,0.0,0.0,0.0,0.0,0.0,0.0,0.0,0.0,0.0,0.0,0.0,-0.366,-0.1428,0.0916,0.3084,0.4324,0.5382,0.6281,0.0,0.0,0.0,0.0,0.0,0.0,0.0,0.0,0.0,0.0,0.0,0.0,0.0,0.0,0.0,0.0,0.0,0.0,0.0,0.0,0.0,0.0,0.0,0.0,0.0,0.0,0.0,0.0,0.0,0.0,0.0,0.0,0.0,0.0,0.0,0.0,0.0,0.0,0.0,0.0,0.0,0.0,0.0,0.0,0.0,0.0,0.0,0.0,0.0,0.0,0.0,0.0,0.0,0.0,0.0,0.0,0.0,0.0,0.0,0.0,0.0,0.0,0.0,0.0,0.0,0.0,0.0,0.0,0.0,0.0,0.0,0.0,0.0,0.0,0.0,0.0,0.0,0.0,0.0,0.0,0.0,0.0,0.0,0.0,0.0,0.0,0.0,0.0,0.0,0.0,0.0,0.0,0.0,0.0,0.0,0.0,0.0,0.0,0.0,0.0,0.0,0.0,0.0,0.0,-0.3697,-0.3773,-0.2081,0.0081,0.2602,0.3916,0.526,0.6779,0.0,0.0,0.0,0.0,0.0,0.0,0.0,0.0,0.0,0.0,0.0,0.0,0.0,0.0,0.0,0.0,0.0,0.0,0.0,0.0,0.0,0.0,0.0,0.0,0.0,0.0,0.0,0.0,0.0,0.0,0.0,0.0,0.0,0.0,0.0,0.0,0.0,0.0,0.0,0.0,0.0,0.0,0.0,0.0,0.0,0.0,0.0,0.0,0.0,0.0,0.0,0.0,0.0,0.0,0.0,0.0,0.0,0.0,0.0,0.0,0.0,0.0,0.0,0.0,0.0,0.0,0.0,0.0,0.0,0.0,0.0,0.0,0.0,0.0,0.0,0.0,0.0,0.0,0.0,0.0,0.0,0.0,0.0,0.0,0.0,0.0,0.0,0.0,0.0,0.0,0.0,0.0,0.0,0.0,0.0,0.0,0.0,0.0,0.0,0.0,0.0,0.0,0.0,-0.5074,-0.4274,-0.4262,-0.2371,-0.0328,0.1782,0.348,0.4991,0.6316,0.6869,0.0,0.0,0.0,0.0,0.0,0.0,0.0,0.0,0.0,0.0,0.0,0.0,0.0,0.0,0.0,0.0,0.0,0.0,0.0,0.0,0.0,0.0,0.0,0.0,0.0,0.0,0.0,0.0,0.0,0.0,0.0,0.0,0.0,0.0,0.0,0.0,0.0,0.0,0.0,0.0,0.0,0.0,0.0,0.0,0.0,0.0,0.0,0.0,0.0,0.0,0.0,0.0,0.0,0.0,0.0,0.0,0.0,0.0,0.0,0.0,0.0,0.0,0.0,0.0,0.0,0.0,0.0,0.0,0.0,0.0,0.0,0.0,0.0,0.0,0.0,0.0,0.0,0.0,0.0,0.0,0.0,0.0,0.0,0.0,0.0,0.0,0.0,0.0,0.0,0.0,0.0,0.0,0.0,0.0,0.0,0.0,0.0,0.0,0.0,0.0,0.0,0.0,-0.5776,-0.5074,-0.4562,-0.263,-0.0576,0.1207,0.3252,0.4795,0.5864,0.6639,0.0,0.0,0.0,0.0,0.0,0.0,0.0,0.0,0.0,0.0,0.0,0.0,0.0,0.0,0.0,0.0,0.0,0.0,0.0,0.0,0.0,0.0,0.0,0.0,0.0,0.0,0.0,0.0,0.0,0.0,0.0,0.0,0.0,0.0,0.0,0.0,0.0,0.0,0.0,0.0,0.0,0.0,0.0,0.0,0.0,0.0,0.0,0.0,0.0,0.0,0.0,0.0,0.0,0.0,0.0,0.0,0.0,0.0,0.0,0.0,0.0,0.0,0.0,0.0,0.0,0.0,0.0,0.0,0.0,0.0,0.0,0.0,0.0,0.0,0.0,0.0,0.0,0.0,0.0,0.0,0.0,0.0,0.0,0.0,0.0,0.0,0.0,0.0,0.0,0.0,0.0,0.0,0.0,0.0,0.0,0.0,0.0,0.0,0.0,0.0,0.0,0.0,-0.5626,-0.5647,-0.4109,-0.2879,-0.1207,0.1099,0.3354,0.4974,0.5868,0.6766,0.0,0.0,0.0,0.0,0.0,0.0,0.0,0.0,0.0,0.0,0.0,0.0,0.0,0.0,0.0,0.0,0.0,0.0,0.0,0.0,0.0,0.0,0.0,0.0,0.0,0.0,0.0,0.0,0.0,0.0,0.0,0.0,0.0,0.0,0.0,0.0,0.0,0.0,0.0,0.0,0.0,0.0,0.0,0.0,0.0,0.0,0.0,0.0,0.0,0.0,0.0,0.0,0.0,0.0,0.0,0.0,0.0,0.0,0.0,0.0,0.0,0.0,0.0,0.0,0.0,0.0,0.0,0.0,0.0,0.0,0.0,0.0,0.0,0.0,0.0,0.0,0.0,0.0,0.0,0.0,0.0,0.0,0.0,0.0,0.0,0.0,0.0,0.0,0.0,0.0,0.0,0.0,0.0,0.0,0.0,0.0,0.0,0.0,0.0,0.0,0.0,0.0,-0.5429,-0.5358,0.0,-0.2847,-0.1284,0.0706,0.2866,0.4619,0.594,0.0,0.0,0.0,0.0,0.0,0.0,0.0,0.0,0.0,0.0,0.0,0.0,0.0,0.0,0.0,0.0,0.0,0.0,0.0,0.0,0.0,0.0,0.0,0.0,0.0,0.0,0.0,0.0,0.0,0.0,0.0,0.0,0.0,0.0,0.0,0.0,0.0,0.0,0.0,0.0,0.0,0.0,0.0,0.0,0.0,0.0,0.0,0.0,0.0,0.0,0.0,0.0,0.0,0.0,0.0,0.0,0.0,0.0,0.0,0.0,0.0,0.0,0.0,0.0,0.0,0.0,0.0,0.0,0.0,0.0,0.0,0.0,0.0,0.0,0.0,0.0,0.0,0.0,0.0,0.0,0.0,0.0,0.0,0.0,0.0,0.0,0.0,0.0,0.0,0.0,0.0,0.0,0.0,0.0,0.0,0.0,0.0,0.0,0.0,0.0,0.0,0.0,-0.5099,-0.5386,-0.5208,0.0,-0.2506,-0.0955,0.0862,0.2979,0.4795,0.6138,0.0,0.0,0.0,0.0,0.0,0.0,0.0,0.0,0.0,0.0,0.0,0.0,0.0,0.0,0.0,0.0,0.0,0.0,0.0,0.0,0.0,0.0,0.0,0.0,0.0,0.0,0.0,0.0,0.0,0.0,0.0,0.0,0.0,0.0,0.0,0.0,0.0,0.0,0.0,0.0,0.0,0.0,0.0,0.0,0.0,0.0,0.0,0.0,0.0,0.0,0.0,0.0,0.0,0.0,0.0,0.0,0.0,0.0,0.0,0.0,0.0,0.0,0.0,0.0,0.0,0.0,0.0,0.0,0.0,0.0,0.0,0.0,0.0,0.0,0.0,0.0,0.0,0.0,0.0,0.0,0.0,0.0,0.0,0.0,0.0,0.0,0.0,0.0,0.0,0.0,0.0,0.0,0.0,0.0,0.0,0.0,0.0,0.0,0.0,0.0,0.0,0.0,-0.5559,-0.5647,-0.5352,-0.3891,-0.2017,-0.0156,0.1719,0.3806,0.5457,0.0,0.0,0.0,0.0,0.0,0.0,0.0,0.0,0.0,0.0,0.0,0.0,0.0,0.0,0.0,0.0,0.0,0.0,0.0,0.0,0.0,0.0,0.0,0.0,0.0,0.0,0.0,0.0,0.0,0.0,0.0,0.0,0.0,0.0,0.0,0.0,0.0,0.0,0.0,0.0,0.0,0.0,0.0,0.0,0.0,0.0,0.0,0.0,0.0,0.0,0.0,0.0,0.0,0.0,0.0,0.0,0.0,0.0,0.0,0.0,0.0,0.0,0.0,0.0,0.0,0.0,0.0,0.0,0.0,0.0,0.0,0.0,0.0,0.0,0.0,0.0,0.0,0.0,0.0,0.0,0.0,0.0,0.0,0.0,0.0,0.0,0.0,0.0,0.0,0.0,0.0,0.0,0.0,0.0,0.0,0.0,0.0,0.0,0.0,0.0,0.0,0.0,0.0,-0.7998,-0.8136,-0.7501,-0.4885,-0.2525,-0.0222,0.2223,0.456,0.6354,0.7507,0.0,0.0,0.0,0.0,0.0,0.0,0.0,0.0,0.0,0.0,0.0,0.0,0.0,0.0,0.0,0.0,0.0,0.0,0.0,0.0,0.0,0.0,0.0,0.0,0.0,0.0,0.0,0.0,0.0,0.0,0.0,0.0,0.0,0.0,0.0,0.0,0.0,0.0,0.0,0.0,0.0,0.0,0.0,0.0,0.0,0.0,0.0,0.0,0.0,0.0,0.0,0.0,0.0,0.0,0.0,0.0,0.0,0.0,0.0,0.0,0.0,0.0,0.0,0.0,0.0,0.0,0.0,0.0,0.0,0.0,0.0,0.0,0.0,0.0,0.0,0.0,0.0,0.0,0.0,0.0,0.0,0.0,0.0,0.0,0.0,0.0,0.0,0.0,0.0,0.0,0.0,0.0,0.0,0.0,0.0,0.0,0.0,0.0,0.0,0.0,0.0,0.0,-1.1249,-1.127,-1.0441,-0.7469,-0.3981,-0.0627,0.2409,0.4839,0.6794,0.8292,0.0,0.0,0.0,0.0,0.0,0.0,0.0,0.0,0.0,0.0,0.0,0.0,0.0,0.0,0.0,0.0,0.0,0.0,0.0,0.0,0.0,0.0,0.0,0.0,0.0,0.0,0.0,0.0,0.0,0.0,0.0,0.0,0.0,0.0,0.0,0.0,0.0,0.0,0.0,0.0,0.0,0.0,0.0,0.0,0.0,0.0,0.0,0.0,0.0,0.0,0.0,0.0,0.0,0.0,0.0,0.0,0.0,0.0,0.0,0.0,0.0,0.0,0.0,0.0,0.0,0.0,0.0,0.0,0.0,0.0,0.0,0.0,0.0,0.0,0.0,0.0,0.0,0.0,0.0,0.0,0.0,0.0,0.0,0.0,0.0,0.0,0.0,0.0,0.0,0.0,0.0,0.0,0.0,0.0,0.0,0.0,0.0,0.0,0.0,0.0,0.0,0.0,-1.5159,-1.5062,-1.4205,-1.1268,-0.6256,-0.1683,0.2026,0.4662,0.6934,0.8826,0.0,0.0,0.0,0.0,0.0,0.0,0.0,0.0,0.0,0.0,0.0,0.0,0.0,0.0,0.0,0.0,0.0,0.0,0.0,0.0,0.0,0.0,0.0,0.0,0.0,0.0,0.0,0.0,0.0,0.0,0.0,0.0,0.0,0.0,0.0,0.0,0.0,0.0,0.0,0.0,0.0,0.0,0.0,0.0,0.0,0.0,0.0,0.0,0.0,0.0,0.0,0.0,0.0,0.0,0.0,0.0,0.0,0.0,0.0,0.0,-3.3876,0.0,0.0,0.0,0.0,0.0,0.0,0.0,0.0,0.0,0.0,0.0,0.0,0.0,0.0,0.0,0.0,0.0,0.0,0.0,0.0,0.0,0.0,0.0,0.0,0.0,0.0,0.0,0.0,0.0,0.0,0.0,0.0,0.0,0.0,0.0,0.0,0.0,0.0,0.0,0.0,0.0,-1.9029,-1.9924,-1.9242,-1.5576,-1.0446,-0.5254,-0.0356,0.347,0.669,0.923,1.0086,0.0,0.0,0.0,0.0,0.0,0.0,0.0,0.0,0.0,0.0,0.0,0.0,0.0,0.0,0.0,0.0,0.0,0.0,0.0,0.0,0.0,0.0,0.0,0.0,0.0,0.0,0.0,0.0,0.0,0.0,0.0,0.0,0.0,0.0,0.0,0.0,0.0,0.0,0.0,0.0,0.0,0.0,0.0,0.0,0.0,0.0,0.0,0.0,0.0,0.0,0.0,0.0,0.0,0.0,0.0,0.0,0.0,0.0,0.0,0.0,-3.7347,0.0,0.0,0.0,0.0,0.0,0.0,0.0,0.0,0.0,0.0,0.0,0.0,0.0,0.0,0.0,0.0,0.0,0.0,0.0,0.0,0.0,0.0,0.0,0.0,0.0,0.0,0.0,0.0,0.0,0.0,0.0,0.0,0.0,0.0,0.0,0.0,0.0,0.0,0.0,0.0,-2.3625,-2.5071,-2.4566,-2.0624,-1.544,-1.0006,-0.4278,0.0322,0.4365,0.7866,0.9623,0.0,0.0,0.0,0.0,0.0,0.0,0.0,0.0,0.0,0.0,0.0,0.0,0.0,0.0,0.0,0.0,0.0,0.0,0.0,0.0,0.0,0.0,0.0,0.0,0.0,0.0,0.0,0.0,0.0,0.0,0.0,0.0,0.0,0.0,0.0,0.0,0.0,0.0,0.0,0.0,0.0,0.0,0.0,0.0,0.0,0.0,0.0,0.0,0.0,0.0,0.0,0.0,0.0,-5.6246,-5.8045,-6.0155,-5.998,-6.0159,-6.0215,-5.2354,-4.7761,-4.5182,0.0,0.0,0.0,0.0,0.0,0.0,0.0,0.0,0.0,0.0,0.0,0.0,0.0,0.0,0.0,0.0,0.0,0.0,0.0,0.0,0.0,0.0,0.0,0.0,0.0,-3.8954,-3.7629,0.0,0.0,0.0,0.0,0.0,0.0,0.0,0.0,0.0,0.0,0.0,0.0,-2.8171,-2.9681,-2.9418,-2.588,-2.0805,-1.5314,-0.9372,-0.4234,0.0582,0.5162,0.7946,0.9649,0.0,0.0,0.0,0.0,0.0,0.0,0.0,0.0,0.0,0.0,0.0,0.0,0.0,0.0,0.0,0.0,0.0,0.0,0.0,0.0,0.0,0.0,0.0,0.0,0.0,0.0,0.0,0.0,0.0,0.0,0.0,0.0,-4.3176,-4.5841,0.0,0.0,0.0,0.0,0.0,0.0,0.0,0.0,0.0,0.0,0.0,0.0,0.0,-5.2137,-5.4514,-5.5956,-5.8036,-6.0635,-6.236,-6.423,-6.611,-6.6567,-6.6173,-6.5008,-6.3365,0.0,-5.1237,-4.4998,0.0,0.0,0.0,0.0,0.0,0.0,0.0,0.0,0.0,0.0,0.0,0.0,0.0,0.0,0.0,0.0,0.0,0.0,0.0,0.0,0.0,0.0,-4.4025,-4.2872,-4.2927,-4.2637,0.0,-3.3865,-2.8783,-3.051,-2.4222,0.0,0.0,0.0,0.0,0.0,0.0,0.0,-3.1431,-3.2568,-3.235,-3.0803,-2.607,-2.0952,-1.5879,-1.0294,-0.479,0.0452,0.394,0.6726,0.8766,0.9255,0.0,0.0,0.0,0.0,0.0,0.0,0.0,0.0,0.0,0.0,0.0,0.0,0.0,0.0,0.0,0.0,0.0,0.0,0.0,0.0,0.0,0.0,0.0,0.0,0.0,0.0,0.0,0.0,0.0,-4.1017,-4.7754,-4.7928,-4.7869,-4.6219,0.0,0.0,0.0,0.0,0.0,0.0,0.0,0.0,0.0,-5.6305,-5.7101,-5.8334,-6.0059,-6.0905,-6.2258,-6.414,-6.5437,-6.691,-6.8414,-6.8994,-6.8678,-6.7528,-6.6488,-6.3217,-5.831,-5.2672,-4.8082,-4.4262,0.0,0.0,0.0,0.0,-4.1656,-4.2046,-4.5134,-4.4881,0.0,-4.1079,0.0,0.0,0.0,0.0,0.0,0.0,0.0,0.0,0.0,0.0,0.0,-4.4821,-4.455,-4.4128,-4.3368,-3.9719,-3.6189,0.0,-3.1687,-2.7934,-2.3728,0.0,0.0,0.0,0.0,-3.0557,-3.4175,-3.523,-3.499,-3.3253,-2.9817,-2.5788,-2.1138,-1.617,-1.0904,-0.5448,-0.1131,0.245,0.5176,0.6867,0.7722,0.0,0.0,0.0,0.0,0.0,0.0,0.0,0.0,0.0,0.0,0.0,0.0,0.0,0.0,0.0,0.0,0.0,0.0,0.0,0.0,0.0,0.0,0.0,0.0,0.0,0.0,0.0,0.0,-4.5889,-5.1308,-5.0281,-5.2433,-5.1874,0.0,0.0,0.0,0.0,0.0,0.0,-5.6236,-5.7335,-5.9096,-6.1697,-6.2306,-6.2985,-6.3959,-6.4106,-6.4828,-6.6026,-6.7001,-6.8069,-6.9261,-7.003,-6.9868,-6.8858,-6.7631,-6.5764,-6.3294,-5.8551,-5.4773,-5.1708,-4.9529,-4.8036,-4.728,-4.9085,-4.9519,-4.9652,-5.3449,-5.3678,-5.1956,-4.9776,0.0,-4.3521,-3.9312,0.0,0.0,0.0,0.0,-4.2322,-4.4395,-4.4829,-4.4848,-4.5506,-4.5077,-4.4448,-4.3945,-4.3175,-4.1465,0.0,-3.6802,-3.492,-2.8859,0.0,0.0,0.0,0.0,-3.3883,-3.6381,-3.6873,-3.6443,-3.5053,-3.2599,-2.9593,-2.5962,-2.1698,-1.7135,-1.2166,-0.7252,-0.3099,0.0084,0.2965,0.4924,0.5829,0.0,0.0,0.0,0.0,0.0,0.0,0.0,0.0,0.0,0.0,0.0,0.0,0.0,0.0,0.0,0.0,0.0,0.0,0.0,0.0,0.0,0.0,0.0,0.0,0.0,0.0,0.0,0.0,0.0,-5.6266,-5.8591,0.0,0.0,0.0,0.0,-5.2631,-5.6529,-5.9749,-6.1512,-6.3243,-6.4589,-6.5513,-6.5433,-6.536,-6.5312,-6.4879,-6.5158,-6.618,-6.7082,-6.8069,-6.9176,-7.0581,-7.0373,-6.893,-6.8822,-6.7102,-6.4199,-6.1696,-5.9542,-5.7508,-5.5981,-5.5047,-5.4577,-5.4839,-5.4876,-5.4913,-5.5919,-5.5212,-5.3981,-5.4578,-5.1625,-4.7777,-4.7515,-4.5161,0.0,0.0,-4.5208,-4.5918,-4.6874,-4.6507,-4.5697,-4.5234,-4.4675,-4.4221,-4.4184,-4.3652,-4.2686,0.0,-3.946,-3.7612,-3.5522,0.0,-3.4046,-3.4216,-3.4261,-3.5274,-3.8018,-3.6866,-3.6054,-3.678,-3.4253,-3.1916,-3.0468,-2.6765,-2.3095,-1.9748,-1.4779,-1.033,-0.6684,-0.3083,-0.0115,0.2128,0.3879,0.0,0.0,0.0,0.0,0.0,0.0,0.0,0.0,0.0,0.0,0.0,0.0,0.0,0.0,0.0,0.0,0.0,0.0,0.0,0.0,0.0,0.0,0.0,0.0,0.0,0.0,0.0,0.0,-5.8374,-6.0737,0.0,-5.6299,-5.7143,-5.8179,-5.8692,-6.1173,-6.3182,-6.436,-6.5149,-6.5704,-6.5974,-6.599,-6.5881,-6.5718,-6.5168,-6.5425,-6.6406,-6.7146,-6.8182,-6.9418,-7.0744,-7.0473,-6.9115,-6.9115,-6.7366,-6.4436,-6.362,-6.2053,-6.0042,-5.9732,-5.8895,-5.8011,-5.8174,-5.7921,-5.7633,-5.7931,-5.726,-5.6106,-5.4839,-5.2864,-5.0925,-5.0365,-4.8922,-4.7525,-4.7941,-4.7758,-4.7459,-4.7827,-4.691,-4.5847,-4.5661,-4.4761,-4.3664,-4.2612,-4.2196,-4.1518,-3.9872,-3.9564,-3.867,-3.585,-3.5996,-3.6091,-3.5006,-3.5442,-3.6584,-3.8521,-3.7292,-3.6596,-3.7347,-3.5413,-3.3643,-3.2524,-2.9473,-2.6454,-2.3751,-1.9131,-1.5281,-1.239,-0.8133,-0.4806,-0.2537,-0.0481,0.1082,0.0,0.0,0.0,0.0,0.0,0.0,0.0,0.0,0.0,0.0,0.0,0.0,0.0,0.0,0.0,0.0,0.0,0.0,0.0,0.0,0.0,0.0,0.0,0.0,0.0,0.0,-5.9982,-5.9728,-6.2528,-6.3041,-5.9331,-6.1019,-6.2478,-6.2694,-6.4089,-6.5205,-6.5833,-6.5967,-6.608,-6.6123,-6.6165,-6.6144,-6.6013,-6.5408,-6.56,-6.6541,-6.7173,-6.8292,-6.9757,-7.0698,-7.0606,-6.9688,-6.9146,-6.7475,-6.5156,-6.467,-6.3439,-6.1855,-6.1615,-6.0882,-5.9936,-5.973,-5.9356,-5.8818,-5.8818,-5.8114,-5.6925,-5.5323,-5.3981,-5.2865,-5.1974,-5.1009,-5.0193,-4.9783,-4.8967,-4.8187,-4.8226,-4.7056,-4.5847,-4.5883,-4.4743,-4.3332,-4.1968,-4.142,-4.0762,-3.9307,-3.9326,-3.8877,-3.656,-3.7051,-3.7357,-3.6236,-3.667,-3.7587,-3.8656,-3.7645,-3.7045,-3.7608,-3.5973,-3.46,-3.3916,-3.129,-2.9066,-2.7577,-2.3484,-2.0317,-1.845,-1.4004,-1.0467,-0.8029,-0.5633,-0.415,-0.3554,0.0,0.0,0.0,0.0,0.0,0.0,0.0,0.0,0.0,0.0,0.0,0.0,0.0,0.0,0.0,0.0,0.0,0.0,0.0,0.0,0.0,0.0,0.0,-5.4074,-5.8463,-6.1411,-6.0682,-6.4193,-6.5073,-6.095,-6.3598,-6.5263,-6.4457,-6.5241,-6.5808,-6.5933,-6.5928,-6.5981,-6.6108,-6.6108,-6.6108,-6.6108,-6.5589,-6.5759,-6.6555,-6.7209,-6.8361,-7.0057,-7.056,-7.0785,-7.0642,-6.9066,-6.7653,-6.6197,-6.4698,-6.3754,-6.3056,-6.1886,-6.1105,-6.0535,-5.9817,-5.9227,-5.8735,-5.8735,-5.7698,-5.6403,-5.6403,-5.5209,-5.3607,-5.2715,-5.1747,-5.0741,-4.9926,-4.8964,-4.8226,-4.8267,-4.7056,-4.5809,-4.5772,-4.4672,-4.3309,-4.2365,-4.1525,-4.065,-3.971,-3.8976,-3.8396,-3.8135,-3.8034,-3.8036,-3.8068,-3.8032,0.0,-3.8523,-3.7796,-3.7351,-3.75,-3.5952,-3.4856,-3.4715,-3.2386,-3.1009,-3.1264,-2.7848,-2.5499,-2.4713,-2.0703,-1.712,-1.4298,-1.1477,-1.0586,-1.1693,0.0,0.0,0.0,0.0,0.0,0.0,0.0,0.0,0.0,0.0,0.0,0.0,0.0,0.0,0.0,0.0,0.0,0.0,0.0,0.0,0.0,0.0,-5.8568,-5.8453,-6.0798,-6.2612,-6.2985,-6.3638,-6.3608,-6.2432,-6.3723,-6.4566,-6.4336,-6.4594,-6.4737,-6.4764,-6.432,-6.4139,-6.4243,-6.4327,-6.4347,-6.4307,-6.4411,-6.4856,-6.5683,-6.684,-6.8283,-7.0021,-7.0391,-7.0615,-7.0642,-6.9196,-6.7716,-6.6233,-6.519,-6.4122,-6.3016,-6.247,-6.1849,-6.1166,-6.115,-6.0416,-5.9375,-5.9504,-5.8062,-5.6206,-5.6364,-5.5209,-5.3757,-5.3609,-5.2419,-5.1082,-5.0823,-4.9562,-4.8267,-4.8306,-4.7056,-4.5809,-4.5697,-4.4089,-4.2328,-4.1387,-4.0484,-3.9547,-3.8576,-3.8077,-3.7863,-3.7792,-3.7721,-3.7613,-3.754,-3.7184,0.0,-3.7719,-3.721,-3.7025,-3.7569,-3.6266,-3.5263,-3.5068,-3.2849,-3.1225,-3.0623,-2.8378,-2.6957,-2.6578,-2.3881,-2.131,-1.8874,-1.6786,-1.5692,0.0,0.0,0.0,0.0,0.0,0.0,0.0,0.0,0.0,0.0,0.0,0.0,0.0,0.0,0.0,0.0,0.0,0.0,0.0,0.0,0.0,0.0,-5.7863,-6.1887,-6.1704,-6.2604,-6.3314,-6.3497,-6.313,-6.2949,-6.2978,-6.3465,-6.3828,-6.3828,-6.3844,-6.3871,-6.3871,-6.3589,-6.3461,-6.3548,-6.3651,-6.369,-6.369,-6.4026,-6.4572,-6.5384,-6.6778,-6.8247,-6.9893,-7.0257,-7.041,0.0,-6.897,-6.764,-6.6388,-6.534,-6.4183,0.0,0.0,0.0,0.0,0.0,-6.0204,-5.9493,-5.9257,-5.7862,-5.6166,-5.6246,-5.5131,-5.3794,-5.3831,-5.2566,-5.1081,-5.1081,-4.9709,-4.8304,-4.8344,-4.7094,-4.5772,-4.5697,-4.4163,-4.2335,-4.0924,-4.0202,-3.9337,-3.7972,-3.7503,0.0,-3.6819,-3.671,-3.6635,-3.6517,-3.5925,-3.5683,-3.6145,-3.5971,-3.5972,-3.6435,-3.5757,-3.5187,-3.5048,-3.3235,0.0,0.0,0.0,-2.8359,-2.773,-2.6175,0.0,0.0,0.0,0.0,0.0,0.0,0.0,0.0,-1.7839,-1.7272,0.0,0.0,0.0,0.0,0.0,0.0,0.0,0.0,0.0,0.0,0.0,0.0,0.0,0.0,0.0,0.0,-6.0874,-6.4007,-6.3693,-6.3688,-6.3416,-6.2673,-6.2552,-6.2536,-6.2595,-6.2815,-6.2935,-6.2935,-6.3066,-6.3117,-6.3117,0.0,0.0,0.0,0.0,-6.3418,-6.3496,-6.3931,-6.4505,-6.52,-6.6727,-6.8174,-6.9555,-6.9982,-7.0202,-7.0061,-6.8567,-6.7465,-6.6576,-6.5212,-6.4171,-6.3341,-6.2961,-6.2223,-6.1142,-5.9859,-5.9428,-5.9384,-5.8575,0.0,0.0,-5.6043,-5.4973,-5.3754,-5.3676,-5.2373,-5.0927,-5.0927,-4.963,-4.8265,-4.8457,-4.7169,-4.581,-4.581,-4.4455,-4.2703,-4.0818,-4.0238,-3.955,-3.7714,-3.7055,-3.6536,-3.5625,-3.5526,-3.5456,-3.5238,-3.4599,-3.4224,-3.4279,-3.4469,-3.4653,-3.4833,0.0,0.0,-3.4903,-3.3635,-3.2966,-3.3279,-3.1428,-2.9793,-2.8698,-2.8113,-2.8078,-2.863,-2.7348,-2.7461,-2.9004,-2.8172,-2.7145,-2.5888,-2.1216,-1.9993,0.0,0.0,0.0,0.0,0.0,0.0,0.0,0.0,0.0,0.0,0.0,0.0,0.0,0.0,0.0,-5.8254,-6.2132,-6.4464,-6.2933,-6.258,-6.2173,-6.1444,-6.0919,-6.0624,-6.0624,-6.1382,-6.1889,-6.1889,-6.1934,-6.2027,-6.2027,-6.1555,-6.1328,-6.1395,-6.1484,-6.1544,-6.1544,-6.2631,-6.3175,-6.3236,0.0,0.0,-6.8373,-6.9457,-6.9991,-6.9885,-6.8499,-6.7465,-6.6612,-6.5688,-6.4543,-6.312,-6.2234,-6.1876,-6.1751,-6.0929,-6.0368,-5.9956,-5.9245,-5.7573,-5.5705,-5.5791,-5.4728,-5.34,-5.3481,-5.2373,0.0,-5.1118,-4.9823,-4.8457,-4.8569,-4.7206,-4.5883,-4.581,-4.3944,-4.1869,-4.0673,-3.9621,-3.8531,-3.7267,-3.6287,-3.5763,-3.5839,-3.595,-3.5503,-3.4021,-3.4218,-3.4362,-3.368,-3.3854,-3.4332,-3.507,-3.4815,-3.4786,-3.53,-3.4758,-3.4021,-3.3273,-3.2674,-3.1866,-3.0854,-3.1298,-3.1333,-3.0817,-3.0108,-2.9762,-2.9712,-2.8945,-2.8544,-2.8329,-2.5427,-2.3998,0.0,0.0,0.0,0.0,0.0,0.0,0.0,0.0,0.0,0.0,0.0,-5.0464,0.0,0.0,-5.9502,-6.0586,-6.2871,-6.4025,-6.2501,-6.1835,-6.1082,-5.99,-5.995,-5.9885,-5.9587,-6.0428,-6.1009,-6.1037,-6.1092,-6.1146,-6.1146,-6.0891,-6.0781,-6.0911,-6.098,-6.1002,-6.1002,-6.1748,-6.2319,-6.2746,-6.4943,-6.6555,-6.7653,-6.8818,-6.9106,-6.8716,-6.8179,-6.7185,-6.5911,-6.4705,-6.3534,-6.2364,-6.1437,-6.1328,-6.1564,-6.0901,-6.032,-5.9779,-5.9127,-5.77,-5.6035,-5.564,-5.4773,-5.3834,-5.347,-5.2333,-5.1117,-5.1118,-4.9861,-4.8532,-4.8679,-4.7352,-4.5993,-4.5956,-4.4236,-4.2268,-4.1141,-4.0012,-3.8805,-3.7591,-3.6464,-3.5469,-3.4703,-3.507,-3.4947,-3.3422,-3.2841,-3.2429,-3.1985,-3.2502,-3.2978,-3.318,-3.3602,-3.402,-3.4513,-3.4668,-3.4397,-3.352,-3.3294,-3.3003,-3.2548,-3.2548,-3.2378,-3.1969,-3.1031,-3.049,-3.0417,-2.9201,-2.8771,-2.8976,-2.6979,-2.5914,0.0,0.0,0.0,0.0,0.0,0.0,0.0,0.0,-4.8606,-5.0973,-5.3214,-5.5142,-5.6329,-5.8749,-6.1077,-6.2382,-6.3454,-6.366,-6.2291,-6.1389,-6.0254,-5.8618,-5.91,-5.9419,-5.8948,-5.976,-6.0342,-6.0464,-6.0506,-6.0597,-6.0559,-6.0635,-6.0757,-6.0911,-6.098,-6.1002,-6.1002,-6.1262,-6.1755,-6.2444,-6.3873,-6.5316,-6.6682,-6.7898,-6.8045,-6.7302,-6.7298,-6.6514,-6.4928,-6.3412,-6.2386,-6.1581,-6.0768,-6.0626,-6.0736,-6.0203,-5.9727,-5.9253,-5.8558,-5.7522,-5.64,-5.5743,-5.5001,-5.4295,-5.3634,-5.2434,-5.1224,-5.104,-4.9895,-4.8716,-4.8567,-4.746,-4.6248,-4.5881,-4.4636,-4.3069,-4.1537,-4.0438,-3.9337,-3.7853,-3.6636,-3.5326,-3.3657,-3.3839,-3.3856,-3.2707,-3.156,-3.0813,-3.0771,-3.1381,-3.1759,-3.1705,-3.2673,-3.3489,-3.3956,-3.449,-3.4524,-3.3945,-3.393,-3.3922,-3.3828,-3.3291,-3.2883,-3.2753,-3.1713,-3.1179,-3.115,-2.9832,-2.9269,-2.9409,-2.7742,-2.6992,-3.1991,-3.7446,-4.2685,-4.624,-4.7236,-4.9351,0.0,0.0,-5.4816,-5.6435,-5.7587,-5.8098,-5.7415,-5.9528,-6.1637,-6.2363,-6.3911,-6.4301,-6.2367,-6.1315,-6.0001,-5.8048,-5.8189,-5.8509,-5.8628,-5.9381,-6.0007,-6.0294,-6.038,-6.0464,-6.0518,-6.061,-6.0757,-6.0911,-6.0976,-6.098,-6.1002,-6.1339,-6.1495,-6.1503,-6.3492,-6.4455,-6.4657,-6.6423,-6.6849,-6.6283,-6.5646,-6.4902,-6.4149,-6.2939,-6.1998,-6.116,-6.0223,-5.9552,-5.91,-5.8957,-5.8735,-5.842,-5.7521,-5.6754,-5.6237,-5.6164,-5.5156,-5.4054,-5.3945,-5.2987,-5.1724,-5.0989,-5.0184,-4.9231,-4.7832,-4.7316,-4.6764,-4.515,-4.4455,-4.3503,-4.0996,-4.0006,-3.904,-3.7114,-3.5835,-3.4866,-3.4351,-3.2994,-3.177,-3.1193,-3.1596,-3.189,-3.1862,-3.1557,-3.1924,-3.3338,-3.3649,-3.4196,-3.5284,-3.5273,-3.5037,-3.461,-3.4935,-3.5036,-3.4576,-3.4635,-3.4301,-3.3584,-3.3648,-3.3156,-3.1986,-3.167,-3.1359,-3.0994,-2.9129,-2.8049,-4.2201,-4.6484,-4.943,-5.2331,-5.4041,-5.566,-5.8045,-5.7704,-5.6855,-5.6863,-5.7051,-5.7074,-5.6671,-5.797,-5.9695,0.0,-6.2786,-6.3179,-6.2216,-6.0414,-5.8801,-5.7716,-5.6589,-5.624,-5.6983,-5.8164,-5.9033,-5.9473,-5.956,-5.9835,-6.048,-6.0585,-6.0455,-6.0073,-6.014,-5.9931,-5.9451,-5.919,-5.9484,-6.0323,-6.098,-6.2269,-6.4049,-6.516,-6.5721,-6.5676,-6.4928,-6.3902,-6.2733,-6.2287,-6.1559,-6.0691,-6.0148,-5.9334,-5.8431,-5.8934,-5.8595,-5.7909,-5.7762,-5.7268,-5.6536,-5.5777,-5.5062,-5.4428,-5.3563,-5.2645,-5.1793,-5.0949,-5.026,-4.9418,-4.7867,-4.7089,-4.6389,-4.5176,-4.4377,-4.3395,-4.1542,-4.0486,-3.9384,-3.7691,-3.6402,-3.5318,-3.4431,-3.3715,-3.3036,-3.2237,-3.1843,-3.174,-3.2071,-3.228,-3.2635,-3.3303,-3.3557,-3.3829,-3.4187,-3.4712,-3.5018,-3.4822,-3.509,-3.5261,-3.5358,-3.483,-3.4542,-3.4487,-3.4082,-3.3485,-3.2678,-3.2117,-3.1773,-3.1603,-2.9867,-2.9143,-4.8733,-5.2292,-5.4491,-5.6536,-5.871,-5.9931,-5.8163,-5.7659,-5.7277,-5.615,-5.5443,-5.4981,-5.4919,-5.5851,-5.7497,-6.0102,-6.1619,-6.2353,-6.214,-6.0035,-5.8198,-5.7155,-5.5728,-5.5157,-5.6052,-5.7192,-5.8173,-5.8813,-5.8939,-5.9435,-6.0414,-6.0533,-6.0252,-5.9488,-5.9557,-5.9194,-5.8325,-5.7668,-5.7989,-5.9301,-5.9124,-6.0367,-6.2732,-6.3653,-6.4283,-6.4693,-6.4114,-6.3017,-6.1714,-6.1714,-6.1129,-6.0297,-6.0171,-5.9327,-5.8264,-5.8799,-5.8249,-5.7239,-5.7622,-5.7189,-5.6428,-5.5522,-5.493,-5.4433,-5.3363,-5.2485,-5.1632,-5.0826,-5.0181,-4.938,-4.7903,-4.705,-4.6311,-4.5312,-4.4438,-4.3497,-4.2122,-4.1143,-4.005,-3.843,-3.7276,-3.6114,-3.4597,-3.4405,-3.4101,-3.329,-3.2555,-3.2294,-3.2821,-3.3534,-3.3956,-3.3956,-3.4039,-3.4038,-3.386,-3.4594,-3.5018,-3.4916,-3.5081,-3.5399,-3.5701,-3.4947,-3.4709,-3.5008,-3.4548,-3.402,-3.3401,-3.2942,-3.2527,-3.2152,-3.0695,-3.0139,-4.8763,-5.3171,-5.7828,-5.8609,-6.0093,-6.1032,-5.9895,-5.8175,-5.6482,-5.5303,-5.3623,-5.2378,-5.2265,-5.3616,-5.5637,-5.8159,-6.079,-6.2416,-6.2142,-6.0739,-5.8782,-5.6179,-5.6124,-5.6355,0.0,-5.6819,-5.7597,-5.8722,-5.8889,-5.935,-6.0332,-6.0545,-6.0227,-5.9418,-5.9534,-5.9177,-5.8291,-5.7748,-5.7824,-5.853,-5.8846,-5.938,-6.0177,-6.1425,-6.2508,-6.3309,-6.2708,-6.2099,-6.1524,-6.1524,-6.0938,-6.0107,-6.0107,-5.9488,-5.859,-5.8044,-5.7176,-5.6288,-5.6399,-5.5991,-5.547,-5.5707,-5.4809,-5.3639,-5.3675,-5.2699,-5.142,-5.0654,-4.998,-4.9152,-4.7684,-4.7316,-4.6873,-4.5254,-4.4779,-4.4161,-4.2304,-4.176,-4.1033,-3.8966,-3.8139,-3.7123,-3.5103,-3.4462,-3.4051,-3.365,-3.3957,-3.4295,-3.4558,-3.5369,-3.6034,-3.6385,-3.5733,-3.5361,-3.5512,-3.5444,-3.525,-3.4949,-3.5334,-3.5514,-3.5396,-3.5304,-3.5116,-3.4814,-3.5531,-3.5359,-3.4164,-3.4772,-3.4318,-3.2835,-3.1888,-3.0984,-5.2824,-5.6641,-5.967,-6.0467,-6.0636,-6.0137,-5.8412,-5.6502,-5.4219,-5.125,-4.9126,-4.78,-4.7585,-4.9021,-5.1532,-5.5303,-5.864,-6.1164,-6.2297,-6.1527,-5.9918,-5.7479,-5.7699,0.0,0.0,0.0,0.0,-5.781,-5.746,-5.8168,-6.043,-6.061,-6.0008,-5.8649,-5.8704,-5.7742,-5.5654,-5.5183,-5.5244,-5.5872,-5.7639,-5.8983,-5.9783,-6.1255,-6.1948,-6.1972,-6.1953,-6.1453,-6.0557,-6.072,-6.048,-6.0107,-6.0234,-5.946,-5.8202,-5.8139,-5.7223,-5.6049,-5.6328,-5.6313,-5.608,-5.536,-5.4773,-5.4074,-5.3157,-5.2618,-5.1981,-5.0584,-5.0258,-4.9701,-4.7058,-4.6469,-4.617,-4.4613,-4.4177,-4.3744,-4.2506,-4.215,-4.1542,-3.9797,-3.873,-3.7895,-3.7212,-3.5893,-3.4778,-3.4378,-3.4651,-3.502,-3.5519,-3.5732,-3.5969,-3.6152,-3.6064,-3.5902,-3.5849,-3.6092,-3.5953,-3.5283,-3.5447,-3.5449,-3.5198,-3.5071,-3.5203,-3.547,-3.5795,-3.5625,-3.4875,-3.5157,-3.4782,-3.3744,-3.2788,-3.2192,-5.6355,-5.9014,-6.0581,-6.175,-6.0893,-5.9195,-5.6886,-5.4301,-5.1382,-4.7795,-4.5237,-4.3535,-4.2934,-4.4029,-4.6701,-5.1933,-5.5441,-5.859,-6.1766,-6.1751,-6.0974,-5.9809,-5.9741,-5.974,0.0,0.0,0.0,-5.7996,-5.7882,-5.8596,-6.0482,-6.0635,-5.9917,-5.8265,-5.795,-5.672,-5.4402,-5.362,-5.3564,-5.4239,-5.6019,-5.7695,-5.9168,-6.0145,-6.0767,-6.1068,-6.1178,-6.0755,-6.0107,-6.036,-6.0396,-6.0234,-6.0485,-5.9885,-5.887,-5.8461,-5.7694,-5.6794,-5.6339,-5.6095,-5.5866,-5.5091,-5.4475,-5.3828,-5.2967,-5.217,-5.1357,-5.0335,-4.9828,-4.9208,-4.7201,-4.6618,-4.6175,-4.4949,-4.4432,-4.3889,-4.2941,-4.2693,-4.2193,-4.0738,-3.9779,-3.9012,-3.8446,-3.6949,-3.5811,-3.5626,-3.5648,-3.5754,-3.6181,-3.6414,-3.6685,-3.6874,-3.6756,-3.6594,-3.6648,-3.6841,-3.6705,-3.5934,-3.592,-3.5794,-3.5361,-3.528,-3.5338,-3.5622,-3.6072,-3.601,-3.5545,-3.5711,-3.5376,-3.4575,-3.3933,-3.3436,-5.8997,-6.0273,-6.0793,-6.2345,-6.0819,-5.8211,-5.5413,-5.1773,-4.8105,-4.4914,-4.19,-3.9517,0.0,0.0,-4.1525,-4.7995,-5.136,-5.508,-6.0608,-6.1535,-6.1917,0.0,0.0,0.0,0.0,0.0,0.0,-5.9354,0.0,-6.0403,-6.0661,-6.0635,-5.9917,-5.8265,-5.7373,-5.6126,-5.4434,-5.3121,-5.2811,-5.3507,-5.4028,-5.5683,-5.8194,-5.8172,-5.914,-6.063,-6.0294,-6.0107,-6.0171,-6.0485,-6.0485,-6.0458,-6.0696,-6.0661,-6.0361,-5.891,-5.8426,-5.8259,-5.656,-5.5511,-5.4874,-5.4969,-5.4011,-5.2886,-5.2967,-5.1454,-4.9765,-4.9866,-4.8836,-4.7777,-4.8032,-4.749,-4.6762,-4.6176,-4.5365,-4.4485,-4.3611,-4.3358,-4.2923,-4.1717,-4.1105,-4.0327,-3.8822,-3.7663,-3.7006,-3.7329,-3.6982,-3.6699,-3.6699,-3.7419,-3.8033,-3.852,-3.7848,-3.7481,-3.7838,-3.7665,-3.7371,-3.679,-3.6809,-3.6533,-3.5877,-3.5844,-3.5759,-3.5496,-3.6274,-3.6548,-3.6251,-3.6395,-3.6098,-3.5249,-3.5214,-3.476,-5.8257,-6.0639,-6.2063,-6.1933,-5.9949,-5.7104,-5.3623,-4.9451,-4.4978,-4.0416,-3.671,-3.3935,0.0,0.0,0.0,-4.3543,-4.907,0.0,-5.9125,-6.1569,0.0,-6.3023,0.0,-6.4166,-6.2874,-6.3578,0.0,0.0,-6.0032,-5.9523,-6.1612,-6.058,-5.9447,-5.8286,-5.6845,-5.5283,-5.3549,-5.1446,-5.0454,-5.0669,-5.2306,-5.4276,-5.6552,-5.7793,-5.9155,-6.0487,-6.034,-6.036,-6.0485,-6.0458,-6.0458,-6.0396,-6.0609,-6.0377,-5.987,-5.9737,-5.8959,-5.7922,-5.7362,-5.6609,-5.575,-5.5202,-5.4403,-5.3599,-5.2993,-5.1799,-5.0401,-4.9686,-4.8964,-4.8229,-4.7166,-4.6339,-4.5694,-4.5257,-4.4483,-4.3823,-4.3708,-4.3566,-4.3248,-4.2629,-4.1605,-4.0216,-3.8448,-3.8472,-3.8546,-3.8107,-3.7801,-3.7514,-3.743,-3.7499,-3.7743,-3.8237,-3.8133,-3.806,-3.8339,-3.8417,-3.8231,-3.7722,-3.7636,-3.736,-3.6754,-3.6804,-3.6854,-3.6947,-3.6861,-3.682,-3.6706,-3.6551,-3.634,-3.6008,-3.5538,-3.5232,-5.9199,-6.1343,-6.2445,-6.1315,-5.8765,-5.5272,-5.046,-4.5775,-4.0766,-3.4904,-3.1649,0.0,-2.7987,-3.0588,0.0,0.0,0.0,0.0,-5.6827,-5.9988,-6.2136,0.0,-6.4103,0.0,-6.3347,-6.3844,-6.4039,0.0,-6.188,-6.1196,-6.2111,-6.0496,-5.9145,-5.8371,-5.6367,-5.4053,-5.1568,-4.9733,-4.8878,-4.9043,-5.0863,-5.2738,-5.4741,-5.687,-5.8527,-5.9902,0.0,-6.0458,-6.0609,-6.0609,-6.0547,-6.0521,-6.0732,-6.0569,-6.0202,-6.0081,-5.948,-5.8713,-5.7774,-5.7107,-5.6425,-5.5157,-5.4237,-5.3512,-5.2697,-5.1541,-5.0352,-4.9386,-4.8793,-4.821,-4.7047,-4.6524,-4.6154,-4.5333,-4.5077,-4.4929,-4.4404,-4.4083,-4.3652,-4.2724,-4.1912,-4.0995,-3.9657,-3.9257,-3.9128,-3.9357,-3.8386,-3.7839,-3.813,-3.7757,-3.7594,-3.818,-3.8123,-3.8237,-3.8655,-3.8655,-3.8603,-3.8553,-3.8256,-3.7892,-3.7463,-3.7635,-3.7653,-3.7402,-3.7354,-3.7228,-3.7058,-3.6697,-3.6485,-3.6485,-3.611,-3.5937,-6.0409,-6.1629,-6.181,-6.0192,-5.7231,-5.3124,-4.6831,-4.1712,-3.6362,-2.9613,0.0,-2.5649,-2.4442,-2.6492,-3.0255,-3.5993,0.0,-4.6549,-5.4105,-5.7422,-6.0123,-6.2783,-6.3238,-6.3344,-6.3344,-6.2767,-6.2738,-6.3613,-6.3959,-6.359,-6.2313,-6.0325,-5.8781,-5.7776,-5.5499,-5.2645,-4.9276,-4.8222,-4.7799,-4.8071,-4.9623,-5.1234,-5.2979,-5.5667,-5.7789,-5.9267,0.0,0.0,-6.0751,-6.0793,-6.0828,-6.0812,-6.101,-6.1069,-6.0914,-6.0344,-6.016,-5.9895,-5.8146,-5.7427,-5.6993,-5.512,-5.3963,-5.319,-5.2418,-5.1246,-5.0008,-4.9124,-4.8577,-4.8104,-4.7267,-4.7232,-4.7132,-4.5939,-4.6241,-4.6468,-4.5258,-4.4711,-4.4118,-4.2674,-4.2377,-4.2127,-4.1563,-4.0188,-3.9542,-4.071,-3.9065,-3.8074,-3.8957,-3.8141,-3.7662,-3.8065,-3.8014,-3.8129,-3.8623,-3.8488,-3.86,-3.9255,-3.8659,-3.8242,-3.819,-3.8535,-3.8388,-3.7653,-3.7864,-3.7874,-3.758,-3.7051,-3.6839,-3.6915,-3.6852,-3.67,-5.8659,-5.9387,-5.9102,-5.7463,-5.5001,-5.1289,-4.4923,-3.9316,0.0,0.0,-2.4169,-2.2177,-2.1746,-2.4138,-2.8066,-3.3621,-3.8088,-4.3656,-5.1597,-5.5028,-5.7907,0.0,-6.2702,-6.3527,-6.3548,0.0,0.0,0.0,0.0,-6.2722,-6.2448,-6.0123,-5.7434,-5.4448,-5.321,-5.1266,-4.8446,-4.7559,-4.7031,-4.6838,-4.8407,-5.0119,-5.1956,-5.4932,-5.7433,-5.9416,-6.0229,0.0,-6.1716,-6.1067,-6.1209,-6.1681,-6.1283,-6.1545,-6.2129,-6.1552,-6.0891,-6.0172,-5.9071,-5.8096,-5.71,-5.5754,-5.477,-5.3963,-5.3134,-5.1966,-5.0559,-4.9199,-4.8806,-4.8493,-4.7215,-4.6916,-4.6847,-4.6302,-4.5888,-4.5537,-4.5475,-4.5287,-4.4899,-4.4128,-4.3524,-4.2955,-4.238,-4.1586,-4.1148,-4.1559,-4.0401,-3.9718,-4.0198,-3.8874,-3.7869,-3.7748,-3.8014,-3.8169,-3.8205,-3.8059,-3.8343,-3.9169,-3.8799,-3.8842,-3.9528,-3.9406,-3.9443,-3.9615,-3.9156,-3.8976,-3.9029,-3.8504,-3.818,-3.8057,-3.7603,-3.7284,-5.6986,-5.8182,-5.8311,-5.6238,-5.3431,-4.9258,-4.2011,0.0,0.0,0.0,-2.1464,-2.0061,-2.0257,-2.2773,0.0,-3.0391,-3.4513,-3.9853,-4.7554,-5.1354,0.0,-5.9349,-6.1348,-6.2337,0.0,0.0,0.0,0.0,0.0,-6.2039,-6.2465,-6.0079,-5.7133,-5.3639,-5.2709,-5.096,-4.8353,-4.7047,-4.6082,-4.5381,-4.6868,-4.8438,-5.0231,-5.3795,-5.6456,-5.8403,-6.03,0.0,-6.1335,-6.1725,-6.1903,-6.1903,-6.2124,-6.2185,-6.2114,-6.2021,-6.1494,-6.0762,-5.9803,-5.9095,-5.8388,-5.6752,-5.5297,-5.3987,-5.2682,-5.1808,-5.092,-4.9503,-4.9205,-4.8972,-4.747,-4.7275,-4.7144,-4.6291,-4.6096,-4.6085,-4.6161,-4.6412,-4.6168,-4.4706,-4.4261,-4.388,-4.3287,-4.2286,-4.1839,-4.2518,-4.1193,-4.0286,-4.0674,-3.9722,-3.8779,-3.8052,-3.8058,-3.8086,-3.8008,-3.777,-3.8059,-3.8952,-3.8733,-3.8843,-3.9415,-3.9501,-3.9625,-3.9884,-3.9427,-3.9344,-3.9547,-3.8974,-3.8684,-3.8594,-3.8338,-3.8077,-5.5314,-5.6861,-5.7456,-5.513,-5.1791,-4.7031,-3.937,-3.3198,0.0,-2.1908,-1.9522,-1.875,-1.9672,-2.1609,-2.4311,0.0,-3.1246,-3.5913,-4.3667,-4.7796,-5.1988,0.0,-5.973,0.0,0.0,0.0,0.0,0.0,0.0,0.0,-6.1707,-5.9801,-5.7242,-5.3984,-5.2859,-5.1164,-4.8716,-4.7043,-4.5557,-4.4366,-4.5706,-4.6999,-4.833,-5.2389,-5.5245,-5.7114,-5.9788,0.0,0.0,-6.2174,-6.2351,-6.2061,-6.2773,-6.256,-6.1903,-6.2032,-6.1748,-6.1127,-6.0045,-5.9773,-5.9536,-5.7423,-5.5801,-5.4255,-5.2405,-5.1767,-5.1384,-4.9771,-4.9606,-4.9521,-4.7927,-4.7794,-4.77,-4.6427,-4.6513,-4.6957,-4.7093,-4.7565,-4.747,-4.574,-4.5482,-4.5297,-4.4471,-4.3348,-4.2765,-4.3575,-4.202,-4.0858,-4.1151,-4.0666,-3.9776,-3.8685,-3.8371,-3.8216,-3.7998,-3.7824,-3.803,-3.8655,-3.8804,-3.8949,-3.9094,-3.9553,-3.9854,-3.9833,-3.9747,-3.9816,-3.9928,-3.9524,-3.9292,-3.9247,-3.9074,-3.887,-5.3584,-5.4657,-5.4929,-5.326,-4.9571,-4.4647,-3.8104,0.0,-2.6834,-2.1954,-1.9255,-1.8278,-2.0246,-2.0187,-2.1925,-2.8353,0.0,-3.2163,-4.1064,-4.537,-4.952,-5.4711,0.0,0.0,0.0,0.0,0.0,0.0,0.0,0.0,-5.9216,-5.8919,-5.7546,-5.4879,-5.321,-5.1477,-4.9611,-4.7973,-4.6268,-4.4491,-4.5821,-4.654,-4.6769,-5.079,-5.3814,-5.6034,-5.8193,0.0,0.0,-6.1777,-6.2075,-6.2797,-6.2408,-6.2281,-6.2199,-6.1569,-6.1364,-6.1113,-5.9588,-5.9459,-5.9465,-5.705,-5.62,-5.5758,-5.3345,-5.2507,-5.1963,-4.9855,-4.9881,-5.013,-4.8467,-4.8312,-4.8332,-4.7155,-4.708,-4.7479,-4.8323,-4.8583,-4.8623,-4.8651,-4.8352,-4.7718,-4.6281,-4.5535,-4.4959,-4.4649,-4.3317,-4.243,-4.2481,-4.1637,-4.0645,-3.9734,-3.9473,-3.9048,-3.8246,-3.8592,-3.8714,-3.8351,-3.9339,-3.9761,-3.9481,-4.0492,-4.0779,-4.0272,-4.1,-4.1165,-4.0767,-4.0874,-4.0839,-4.0711,-3.9928,-3.949,-5.0002,-5.2085,-5.3114,-5.1385,-4.7323,-4.2187,-3.6377,0.0,-2.5356,-2.1258,-1.9003,-1.8211,-1.97,-1.9687,-2.093,-2.5465,-2.5987,-2.8265,-3.5325,-3.9354,-4.3918,0.0,0.0,0.0,0.0,0.0,0.0,0.0,0.0,0.0,-5.8891,-5.8803,-5.7612,-5.5022,-5.3805,-5.2331,-5.0546,-4.841,-4.637,-4.453,-4.4966,-4.536,-4.5903,-4.9961,-5.2954,-5.5085,-5.8479,0.0,0.0,-6.2401,-6.2848,-6.2652,-6.3023,-6.3002,-6.2568,-6.1971,-6.1486,-6.1045,-6.0438,-6.0438,-6.0249,-5.813,-5.7412,-5.6877,-5.4206,-5.2959,-5.2216,-5.0655,-5.031,-5.0098,-4.8855,-4.8556,-4.8534,-4.8293,-4.8389,-4.8601,-4.9062,-4.9088,-4.9019,-4.8905,-4.8624,-4.8102,-4.7286,-4.6715,-4.6195,-4.5718,-4.4713,-4.3945,-4.3674,-4.2527,-4.1585,-4.1236,-4.0189,-3.9323,-3.8937,-3.8967,-3.9062,-3.9317,-3.9738,-4.0102,-4.039,-4.0861,-4.1177,-4.1388,-4.1426,-4.1442,-4.1464,-4.1207,-4.1047,-4.0871,-4.0642,-4.0422,-4.5889,-4.8487,-4.9925,-4.8711,-4.4499,-3.9334,0.0,-2.8714,-2.3746,-2.0029,-1.8368,-1.789,-1.9003,-1.9185,-2.0244,-2.3466,-2.3859,-2.5835,-3.1783,-3.5633,0.0,0.0,0.0,0.0,0.0,0.0,0.0,0.0,0.0,0.0,0.0,-5.8789,-5.7742,-5.5447,-5.4296,-5.2989,-5.154,-4.8988,-4.6744,-4.4906,-4.4762,-4.4913,-4.5544,-4.9304,-5.2137,-5.4275,0.0,0.0,0.0,-6.2196,-6.2683,-6.2258,-6.3053,-6.2969,-6.2358,-6.208,-6.1732,-6.1319,-6.0915,-6.0915,-6.0749,-5.8698,-5.8001,-5.7515,-5.5059,-5.3435,-5.22,-5.1202,-5.0504,-4.9884,-4.918,-4.892,-4.8802,-4.8912,-4.9075,-4.934,-4.9638,-4.9674,-4.9599,-4.9411,-4.9188,-4.8853,-4.8245,-4.7706,-4.7208,-4.6791,-4.5851,-4.5082,-4.4747,-4.3563,-4.2742,-4.2604,-4.1386,-4.0391,-3.9659,-3.9624,-3.9754,-3.9968,-4.0382,-4.0752,-4.1016,-4.1468,-4.1815,-4.2105,-4.1831,-4.1767,-4.1812,-4.1332,-4.1,-4.0823,-4.1,-4.1093,-4.1434,-4.3614,-4.487,-4.4859,-4.0955,-3.5937,-3.1317,-2.6535,-2.206,-1.8302,-1.7159,-1.7144,-1.8228,-1.8388,-1.9648,-2.3395,-2.356,-2.5401,-3.1708,-3.5753,0.0,0.0,0.0,0.0,0.0,0.0,0.0,0.0,0.0,0.0,0.0,-5.8775,-5.8014,-5.6341,-5.4607,-5.3324,-5.2491,-4.9904,-4.766,-4.5893,-4.5626,-4.5528,-4.5707,-4.879,-5.1437,0.0,0.0,0.0,0.0,-6.0705,-6.0947,-6.1675,-6.2188,-6.1932,-6.1295,-6.1805,-6.2027,-6.1778,-6.0392,-6.0451,-6.0701,-5.8117,-5.76,-5.7621,-5.5774,-5.3818,-5.2046,-5.1142,-5.0326,-4.9653,-4.9547,-4.9466,-4.9221,-4.8644,-4.8826,-4.9274,-4.9918,-5.0297,-5.061,-5.0946,-5.0875,-5.0395,-4.9313,-4.8517,-4.8014,-4.7834,-4.6524,-4.5633,-4.5796,-4.4908,-4.4086,-4.3743,-4.3504,-4.2516,-4.0444,-4.0915,-4.0891,-4.0032,-4.1309,-4.1784,-4.1049,-4.2538,-4.2958,-4.2139,-4.2479,-4.2415,-4.1812,-4.1332,-4.0953,-4.0714,-4.0953,-4.1105,-3.3258,-3.5638,-3.7661,-3.7031,-3.394,-3.0268,-2.7372,-2.3997,-2.0552,-1.7343,-1.6305,-1.6106,-1.6612,-1.7232,-1.909,-2.3546,-2.4608,0.0,0.0,0.0,0.0,0.0,0.0,0.0,0.0,0.0,0.0,0.0,0.0,0.0,0.0,-5.7877,-5.7418,-5.6341,-5.5177,-5.4206,-5.3386,-5.0736,-4.8477,-4.6636,-4.6373,-4.6313,-4.6552,-4.9824,0.0,0.0,0.0,0.0,0.0,-6.0529,-6.0771,-6.0739,-6.1674,-6.1599,-6.0901,-6.1295,-6.1199,-6.0733,-6.03,-6.0484,-6.0594,-5.8639,-5.806,-5.7836,-5.5774,-5.3818,-5.1908,-5.0488,-5.0575,-5.102,-5.0795,-5.0702,-5.0689,-5.0724,-5.0433,-5.0224,-5.0523,-5.0559,-5.0576,-5.0605,-5.0509,-5.0272,-4.9916,-4.9481,-4.9154,-4.901,-4.8039,-4.7338,-4.7111,-4.5853,-4.4994,-4.5026,-4.4167,-4.339,-4.2893,-4.2338,-4.2157,-4.2366,-4.2206,-4.2235,-4.2458,-4.3065,-4.3396,-4.3451,-4.2881,-4.2448,-4.2261,-4.1332,-4.0905,-4.1,-4.1566,-4.1719,-2.6565,-2.9065,-3.1106,-3.0808,-2.8212,-2.5215,-2.3203,-2.0443,-1.7713,-1.5368,-1.483,-1.4891,-1.5237,-1.6165,-1.8039,-2.1694,-2.3165,0.0,0.0,0.0,0.0,0.0,0.0,0.0,0.0,0.0,0.0,0.0,0.0,0.0,0.0,-5.697,-5.6498,-5.5333,-5.4776,-5.4128,-5.3285,-5.0984,-4.9174,-4.7928,-4.73,-4.7248,-4.7838,-5.0822,0.0,0.0,0.0,0.0,0.0,-6.0461,-6.0596,-6.0456,-6.1569,-6.1536,-6.0981,-6.132,-6.1029,-6.0522,-6.0304,-6.045,-6.0484,-5.9122,-5.8249,-5.7293,-5.5053,-5.3514,-5.2207,-5.0788,-5.1008,-5.1685,-5.1691,-5.1672,-5.172,-5.1616,-5.1521,-5.1207,-5.0614,-5.0718,-5.0767,-5.0354,-5.0414,-5.0622,-5.0564,-5.0331,-5.0154,-5.0035,-4.939,-4.8721,-4.8066,-4.7174,-4.6504,-4.614,-4.5346,-4.4883,-4.4952,-4.3817,-4.3218,-4.3459,-4.3041,-4.2813,-4.3113,-4.3295,-4.3628,-4.4097,-4.328,-4.2887,-4.2993,-4.2055,-4.1719,-4.2007,-4.2085,-4.2067,0.0,-2.3504,-2.4943,-2.5599,-2.3426,-2.0667,-1.8827,-1.6378,0.0,-1.287,-1.3022,-1.3684,-1.4617,-1.5574,-1.6958,-1.9308,-2.0731,0.0,0.0,0.0,0.0,0.0,0.0,0.0,0.0,0.0,0.0,0.0,0.0,0.0,0.0,-5.5932,-5.5253,-5.3624,-5.3586,-5.321,-5.2407,-5.0701,-4.9722,-4.9465,-4.8311,-4.8327,-4.9534,-5.1888,0.0,0.0,0.0,0.0,0.0,-6.0392,-6.046,-6.0711,-6.165,-6.1693,-6.1289,-6.1606,-6.1429,-6.0862,-6.0288,-6.0297,-6.0468,-5.9618,-5.8033,-5.6064,-5.3839,-5.3083,-5.2721,-5.1775,-5.1668,-5.1862,-5.22,-5.2442,-5.2389,-5.1627,-5.2032,-5.2195,-5.0448,-5.0807,-5.1234,-5.0276,-5.0783,-5.1326,-5.1242,-5.1098,-5.0978,-5.0978,-5.0515,-4.9805,-4.8782,-4.8829,-4.8425,-4.716,-4.6818,-4.6717,-4.6652,-4.5223,-4.4196,-4.3685,-4.3751,-4.3618,-4.3211,-4.3394,-4.3661,-4.4097,-4.3642,-4.3566,-4.3799,-4.3306,-4.3216,-4.3458,-4.2604,-4.2354,-1.3581,0.0,-1.7484,-1.6854,-1.6187,-1.5577,0.0,-1.4663,-1.4216,-1.287,-1.3022,-1.4503,-1.809,-1.7928,-1.9676,-2.7075,0.0,0.0,0.0,0.0,0.0,0.0,0.0,0.0,0.0,0.0,0.0,0.0,0.0,0.0,0.0,-5.4005,-5.3591,-5.2578,-5.2554,-5.2482,-5.2408,-5.1138,-5.0082,-4.926,-4.9049,-4.9619,-5.0852,-5.3492,0.0,0.0,0.0,0.0,-6.0317,-5.9892,-5.984,-6.0141,-6.0968,-6.0994,-6.0711,-6.1218,-6.0946,-6.022,-5.9864,-6.0043,-6.0176,-5.8981,-5.7163,-5.5348,-5.4447,-5.3836,-5.3239,-5.1847,-5.2225,-5.2972,-5.2906,-5.2894,-5.2984,-5.2873,-5.2589,-5.2175,-5.177,-5.1778,-5.1847,-5.1701,-5.1778,-5.1916,-5.2156,-5.1916,-5.1733,-5.1733,-5.1264,-5.075,-5.029,-4.9992,-4.942,-4.8253,-4.7981,-4.7647,-4.7095,-4.581,-4.5194,-4.5471,-4.4886,-4.4399,-4.4183,-4.4301,-4.4311,-4.4097,-4.3787,-4.3435,-4.2979,-4.3476,-4.3529,-4.3212,-4.3712,-4.3672,-0.9922,-1.2835,-1.5753,-1.5509,-1.5306,-1.5173,-1.535,-1.443,-1.344,-1.2943,-1.301,-1.4214,-1.7724,-1.8374,-2.0646,0.0,-3.0148,0.0,0.0,0.0,0.0,0.0,0.0,0.0,0.0,0.0,0.0,0.0,0.0,0.0,0.0,-5.2777,-5.2425,-5.1592,-5.152,-5.1554,-5.1648,-5.0948,-5.0218,-4.9541,-5.0128,-5.099,-5.2153,-5.5001,-5.7206,0.0,0.0,0.0,-6.0635,-6.0323,-6.0356,-6.0524,-6.0989,-6.1075,-6.0891,-6.0994,-6.0593,-5.9977,-5.9663,-5.9669,-5.9585,-5.8662,-5.7187,-5.5654,-5.4787,-5.411,-5.3481,-5.2535,-5.2807,-5.3415,-5.3403,-5.3494,-5.3582,-5.3397,-5.3322,-5.3019,-5.2173,-5.2248,-5.2386,-5.1981,-5.2124,-5.2489,-5.2735,-5.2612,-5.2489,-5.2489,-5.2175,-5.1719,-5.1024,-5.086,-5.0289,-4.889,-4.8518,-4.8217,-4.7825,-4.6867,-4.6248,-4.6257,-4.5832,-4.5407,-4.5127,-4.5094,-4.4915,-4.4633,-4.435,-4.4048,-4.3765,-4.4228,-4.4439,-4.4249,-4.4353,-4.4246,-0.898,-1.2835,-1.6732,-1.6788,-1.6765,-1.6909,-1.7337,-1.5416,-1.3684,-1.4029,-1.4089,0.0,0.0,-1.9301,0.0,0.0,0.0,0.0,0.0,0.0,0.0,0.0,0.0,0.0,0.0,0.0,0.0,0.0,0.0,0.0,0.0,-5.1758,-5.1506,-5.0776,-5.0682,-5.0664,-5.0701,-5.0507,-5.0306,-5.0047,-5.1147,-5.2233,-5.3433,-5.6259,-5.8341,0.0,0.0,0.0,-6.0998,-6.1023,-6.1113,-6.1252,-6.1217,-6.1367,-6.1359,-6.0734,-6.0237,-5.9835,-5.9731,-5.9488,-5.9091,-5.8602,-5.7575,-5.637,-5.5029,-5.4282,-5.382,-5.3415,-5.3314,-5.3382,-5.3787,-5.3983,-5.4068,-5.3673,-5.4046,-5.4023,-5.2404,-5.2706,-5.2946,-5.2077,-5.2452,-5.299,-5.3181,-5.3283,-5.3352,-5.3352,-5.3225,-5.2762,-5.1826,-5.1766,-5.1193,-4.9592,-4.9189,-4.8885,-4.8655,-4.8195,-4.7571,-4.6717,-4.6619,-4.6421,-4.6076,-4.5719,-4.5474,-4.5236,-4.4925,-4.4886,-4.4995,-4.5123,-4.5336,-4.5546,-4.4837,-4.4662,-1.0989,-1.4775,-1.6934,-1.3793,-1.5336,-1.7411,-1.6758,-1.7808,-1.8866,0.0,0.0,0.0,0.0,-2.5517,-2.6897,0.0,0.0,0.0,0.0,0.0,0.0,0.0,0.0,0.0,0.0,0.0,0.0,0.0,0.0,0.0,0.0,-5.0432,-5.0719,-5.0563,-5.05,-5.0374,-5.0306,-5.0163,-5.0263,-5.0589,-5.1416,-5.2731,-5.4472,-5.684,-5.87,0.0,0.0,-6.1501,-6.1211,-6.068,-6.0858,-6.1361,-6.0309,-6.0449,-6.1206,-6.0154,-5.972,-5.9658,-5.9896,-5.9615,-5.9046,-5.9178,-5.7973,-5.6291,-5.5652,-5.5101,-5.45,-5.4051,-5.3475,-5.3245,-5.4364,-5.4326,-5.4011,-5.4102,-5.4299,-5.4299,-5.3738,-5.3806,-5.384,-5.3673,-5.3577,-5.3613,-5.3809,-5.4256,-5.4599,-5.4798,-5.4566,-5.4262,-5.4093,-5.3415,-5.2469,-5.1225,-5.109,-5.0523,-4.9261,-4.9525,-4.926,-4.8032,-4.7671,-4.7374,-4.6965,-4.5979,-4.5421,-4.5379,-4.4981,-4.4886,-4.4995,-4.5123,-4.5318,-4.5423,-4.5494,-4.5562,-0.9114,-1.2367,-1.4982,-1.4514,-1.8626,-2.2771,-2.2745,-2.3193,-2.3595,0.0,0.0,0.0,0.0,0.0,-3.0354,-3.7403,0.0,0.0,0.0,0.0,0.0,0.0,0.0,0.0,0.0,0.0,0.0,0.0,0.0,0.0,0.0,0.0,-5.0435,-5.0298,-5.0212,-5.0063,-4.9814,-5.004,-5.0172,-5.0347,-5.174,-5.3326,-5.5071,-5.7531,-5.9398,-6.0675,0.0,-6.1501,-6.127,-6.0574,-6.0639,-6.1084,-6.0007,-6.0154,-6.0898,-6.0138,-5.977,-5.9667,-6.0083,-5.9678,-5.9046,-5.9441,-5.8199,-5.6414,-5.6008,-5.5223,-5.4395,-5.4258,-5.4112,-5.4246,-5.4934,-5.5179,-5.5277,-5.5409,-5.5541,-5.5541,-5.5277,-5.5143,-5.5009,-5.4941,-5.4736,-5.4736,-5.5009,-5.5213,-5.5382,-5.5519,-5.5111,-5.4703,-5.46,-5.4158,-5.3278,-5.1967,-5.2065,-5.1829,-5.0727,-5.0526,-4.9959,-4.8762,-4.833,-4.7996,-4.7761,-4.7188,-4.6794,-4.6615,-4.6167,-4.6022,-4.6191,-4.6246,-4.6412,-4.6665,-4.6464,-4.6361,-0.756,-1.0256,-1.3357,-1.6032,-2.1131,-2.5954,-2.771,-2.7841,-2.7777,-2.8406,0.0,0.0,0.0,-3.0228,0.0,-3.9795,0.0,0.0,0.0,0.0,0.0,0.0,0.0,0.0,0.0,0.0,0.0,0.0,0.0,0.0,0.0,0.0,-4.9997,-5.0012,-4.9906,-4.9816,-4.9671,-4.9918,-5.0193,-5.0454,-5.2181,-5.3881,-5.5634,-5.7836,-5.9465,-6.0558,-6.097,-6.1042,-6.0867,-6.0344,-6.0463,-6.0665,-5.9768,-5.9792,-6.0203,-5.9942,-5.9736,-5.9687,-6.0135,-5.9847,-5.939,-5.9845,-5.8662,-5.6972,-5.6745,-5.5819,-5.4826,-5.494,-5.5161,-5.5386,-5.5362,-5.5583,-5.5996,-5.6336,-5.6505,-5.6505,-5.6303,-5.6167,-5.5995,-5.5856,-5.5646,-5.5576,-5.5786,-5.5922,-5.6057,-5.6197,-5.5585,-5.5212,-5.5177,-5.4833,-5.4054,-5.2809,-5.3043,-5.2939,-5.2168,-5.1263,-5.0526,-4.9926,-4.9022,-4.842,-4.8356,-4.8213,-4.7988,-4.772,-4.7335,-4.7158,-4.7216,-4.7273,-4.7477,-4.77,-4.7103,-4.6916,-0.8821,-1.1209,-1.3625,-1.7027,-1.9445,-2.2255,-2.7078,-2.9233,-3.1139,-3.4295,-3.5336,0.0,0.0,-3.598,-3.8289,0.0,0.0,0.0,0.0,0.0,0.0,0.0,0.0,0.0,0.0,0.0,0.0,0.0,0.0,0.0,0.0,0.0,0.0,-4.9797,-4.9566,-4.969,-5.0243,-4.9861,-5.0331,-5.1678,-5.2845,-5.4467,-5.6257,-5.7239,-5.8152,-5.8916,-5.9585,-5.9811,-5.9692,-5.9819,-6.007,-6.0358,-5.9254,-5.8908,-5.8942,-5.9047,-5.9286,-5.9687,-6.0135,-6.0325,-6.0352,-6.0626,-5.9561,-5.8224,-5.8402,-5.7543,-5.6503,-5.6848,-5.652,-5.6057,-5.5497,-5.5141,-5.5111,-5.5996,-5.6505,-5.6739,-5.6505,-5.6303,-5.6167,-5.6167,-5.5892,-5.5646,-5.5505,-5.6115,-5.6731,-5.6731,-5.652,-5.6487,-5.6877,-5.5984,-5.51,-5.4499,-5.4258,-5.3919,-5.3179,-5.1799,-5.1326,-5.2099,-4.985,-4.8547,-4.8769,-4.8335,-4.8048,-4.7841,-4.7626,-4.7386,-4.7216,-4.7498,-4.77,-4.77,-4.721,-4.6969,-0.65,-1.0532,-1.4867,-1.7334,-2.1165,-2.5289,-2.8929,-3.2679,-3.6144,-3.893,-3.9629,0.0,0.0,0.0,0.0,0.0,0.0,0.0,0.0,0.0,0.0,0.0,0.0,0.0,0.0,0.0,0.0,0.0,0.0,0.0,0.0,0.0,0.0,-4.9283,-4.8986,-4.9082,-4.9675,-4.9797,-5.0809,-5.2697,-5.3123,-5.4323,-5.6217,-5.7148,-5.7932,-5.8601,-5.9361,-5.9621,-5.9501,-5.9882,-5.9988,-5.9934,-5.9355,-5.8978,-5.8875,-5.9251,-5.9453,-5.9687,-6.0297,-6.0423,-6.0458,-6.0854,-6.0107,-5.8956,-5.9117,-5.8191,-5.7097,-5.6814,-5.6438,-5.6187,-5.6651,-5.6423,-5.6333,-5.7361,-5.7775,-5.7844,-5.7913,-5.7706,-5.7426,-5.7426,-5.7141,-5.6853,-5.678,-5.7055,-5.733,-5.733,-5.6959,-5.6727,-5.687,-5.6562,-5.6052,-5.5378,-5.4906,-5.4262,-5.3484,-5.2503,-5.216,-5.2465,-5.0548,-4.9443,-4.9632,-4.9195,-4.8882,-4.8578,-4.8812,-4.885,-4.8616,-4.8908,-4.9193,-4.9361,-4.8742,-4.8277,-0.5979,-1.0299,-1.5365,-1.7939,-2.2488,-2.7295,-3.101,-3.4942,-3.8689,-4.1672,-4.1801,-4.0905,-3.9544,0.0,0.0,0.0,0.0,0.0,0.0,0.0,0.0,0.0,0.0,0.0,0.0,0.0,0.0,0.0,0.0,0.0,0.0,0.0,0.0,0.0,-4.8716,-4.8925,-4.9523,-4.9937,-5.1333,-5.3512,-5.3462,-5.4366,-5.6162,-5.6843,-5.7377,-5.7832,-5.884,-5.9111,-5.9001,-5.9714,-5.9879,-5.9683,-5.9418,-5.9183,-5.8978,-5.9488,-5.9621,-5.9687,-6.036,-6.0547,-6.0521,-6.0974,-6.044,-5.9561,-5.9774,-5.9011,-5.7954,-5.7621,-5.702,-5.6643,-5.7616,-5.734,-5.7145,-5.8522,-5.8903,-5.8973,-5.9218,-5.9108,-5.8821,-5.8345,-5.8157,-5.8032,-5.7958,-5.783,-5.7729,-5.7891,-5.7465,-5.7065,-5.7065,-5.7065,-5.6795,-5.6122,-5.528,-5.4466,-5.389,-5.3311,-5.3,-5.3034,-5.1586,-5.068,-5.0536,-4.9977,-4.9603,-4.9357,-4.9692,-4.9825,-4.953,-4.9965,-5.0285,-5.0397,-4.9851,-4.9205,-0.817,-1.0948,-1.4813,-1.9096,-2.2887,-2.7148,-3.3004,-3.5697,-3.8119,-4.2328,-4.1668,-4.0826,-4.239,-4.0596,0.0,0.0,0.0,0.0,0.0,0.0,0.0,0.0,0.0,0.0,0.0,0.0,0.0,0.0,0.0,0.0,0.0,0.0,0.0,0.0,-4.8798,-4.9307,-4.9973,-5.0365,-5.1786,-5.42,-5.408,-5.4741,-5.6197,-5.6197,-5.6197,-5.6268,-5.7694,-5.8154,-5.8078,-5.9278,-5.9683,-5.9621,-5.9386,-5.9319,-5.9319,-5.9554,-5.9621,-5.9687,-6.036,-6.0609,-6.0671,-6.0974,-6.0558,-6.0,-6.0629,-6.0007,-5.9205,-5.9698,-5.8628,-5.7534,-5.8285,-5.7732,-5.7315,-5.917,-5.9761,-5.9974,-6.0115,-6.0487,-6.0267,-5.8798,-5.8817,-5.8957,-5.8698,-5.8241,-5.8079,-5.8597,-5.8059,-5.7588,-5.7588,-5.7588,-5.7392,-5.6867,-5.5446,-5.4532,-5.4566,-5.4226,-5.398,-5.398,-5.3103,-5.2289,-5.1507,-5.0634,-5.0101,-5.0101,-4.9992,-4.9849,-4.9708,-5.0418,-5.064,-5.0397,-5.0189,-4.9517,-1.0677,-1.5171,-2.0629,-2.3141,-2.8593,-3.3993,-3.6344,-3.8337,-4.0629,0.0,-4.3948,-4.2869,-4.2011,0.0,0.0,0.0,0.0,0.0,0.0,0.0,0.0,0.0,0.0,0.0,0.0,0.0,0.0,0.0,0.0,0.0,0.0,0.0,0.0,0.0,-4.7716,-4.8246,-4.9471,-4.9567,-5.0838,-5.3258,-5.3778,-5.4848,-5.6492,-5.6492,-5.6492,-5.6545,-5.789,-5.8273,-5.8139,-5.944,-5.9978,-5.9914,-5.9748,-5.9832,-6.015,-6.0319,-6.0386,-6.0453,-6.1171,-6.1069,-6.0777,-6.1615,-6.1379,-6.0879,-6.1604,-6.1163,-6.0361,-6.0698,-5.9958,-5.9282,-6.0043,-5.9624,-5.9037,-5.9336,-5.9921,-6.0549,-6.0693,-6.072,-6.0437,-5.9447,-5.9565,-5.9532,-5.8799,-5.868,-5.8687,-5.8665,-5.8059,-5.7588,-5.7588,-5.7514,-5.7245,-5.6795,-5.5953,-5.5141,-5.4634,-5.4359,-5.411,-5.398,-5.371,-5.3267,-5.2516,-5.1541,-5.107,-5.107,-5.0815,-5.0676,-5.071,-5.0641,-5.064,-5.0694,-5.0823,-5.0165,-1.339,-1.8203,-2.3814,-2.7229,-3.1847,-3.6296,-3.8907,0.0,0.0,0.0,-4.3573,-4.2468,-4.1629,0.0,0.0,0.0,0.0,0.0,0.0,0.0,0.0,0.0,0.0,0.0,0.0,0.0,0.0,0.0,0.0,0.0,0.0,0.0,0.0,0.0,-4.7579,-4.8128,-4.9137,-4.9983,-5.1205,-5.2886,-5.4044,-5.5203,-5.6397,-5.6563,-5.66,-5.6671,-5.8003,-5.8568,-5.8623,-5.9831,-6.0297,-6.0206,-6.0358,-6.0517,-6.0736,-6.115,-6.1322,-6.139,-6.1917,-6.1856,-6.1565,-6.1991,-6.1829,-6.1473,-6.159,-6.1422,-6.1202,-6.1319,-6.1025,-6.0764,-6.1188,-6.1043,-6.0724,-6.0432,-6.0847,-6.1336,-6.141,-6.1576,-6.1223,-5.9857,-6.0143,-6.0275,-5.9422,-5.9126,-5.9025,-5.9254,-5.8261,-5.7514,-5.7514,-5.7289,-5.7122,-5.6982,-5.6254,-5.5477,-5.4934,-5.4463,-5.411,-5.398,-5.398,-5.3775,-5.3331,-5.2323,-5.1651,-5.1473,-5.1131,-5.0858,-5.0783,-5.0809,-5.0892,-5.0999,-5.1063,-5.0396,-1.6059,-2.0092,-2.4858,-3.0825,-3.3363,0.0,-4.0422,-4.1519,-4.1792,-4.2716,0.0,-4.0616,-4.1284,0.0,0.0,0.0,0.0,0.0,0.0,0.0,0.0,0.0,0.0,0.0,0.0,0.0,0.0,0.0,0.0,0.0,0.0,0.0,0.0,-4.7026,-4.7837,-4.8483,-4.8841,-5.0858,-5.2219,0.0,-5.4542,-5.5569,-5.6029,-5.6417,-5.6725,-5.694,-5.8223,-5.9099,-5.9643,-6.0326,-6.0521,-6.0466,-6.1014,-6.1134,-6.1212,-6.1981,-6.2296,-6.2363,-6.2662,-6.2852,-6.2769,-6.2096,-6.1974,-6.1823,-6.1061,-6.1282,-6.175,-6.17,-6.1897,-6.2121,-6.1953,-6.205,-6.2243,-6.205,-6.2124,-6.2272,-6.2307,-6.2672,-6.2351,-6.0198,-6.0687,-6.1129,-6.025,-5.9539,-5.9227,-5.9734,-5.8387,-5.7289,-5.7289,-5.7063,-5.7063,-5.7289,-5.6275,-5.5576,-5.5434,-5.4534,-5.398,-5.398,-5.398,-5.398,-5.398,-5.284,-5.2063,-5.1609,-5.1049,-5.0566,-5.0332,-5.0854,-5.1105,-5.1157,-5.0999,-5.0354,-1.7132,-2.0453,-2.4873,-3.0932,-3.5133,-3.8042,-3.9204,-3.9948,-4.0883,-4.2508,-4.1972,-4.1266,0.0,0.0,0.0,0.0,0.0,0.0,0.0,0.0,0.0,0.0,0.0,0.0,0.0,0.0,0.0,0.0,0.0,0.0,0.0,0.0,0.0,-4.666,-4.6716,-4.7342,-4.8624,-4.9254,-5.0677,0.0,-5.4107,-5.5116,-5.6029,-5.6725,-5.767,-5.8736,-5.9486,-6.0117,-6.0725,-6.0661,-6.0547,-6.0556,-6.1043,-6.145,-6.1981,-6.275,-6.3065,-6.3133,-6.3471,-6.3276,-6.2875,-6.2698,-6.2364,-6.2036,-6.2336,-6.2096,-6.1962,-6.3005,-6.2939,-6.2736,-6.3589,-6.331,-6.2888,-6.2999,-6.2912,-6.2836,-6.2836,-6.2897,-6.2658,-6.1599,-6.1919,-6.1893,-6.0198,-5.9751,-5.9203,-5.7816,-5.749,-5.7214,-5.7063,-5.6757,-5.6757,-5.7214,-5.591,-5.5113,-5.5362,-5.4364,-5.3783,-5.3783,-5.3783,-5.3849,-5.398,-5.3547,-5.3105,-5.2516,-5.1799,-5.1416,-5.121,-5.0955,-5.0682,-5.0378,-5.0748,-5.0031,-1.5628,-1.9974,0.0,-3.1919,0.0,-3.77,-3.8137,-3.8517,-3.9087,-4.0024,-4.0214,0.0,0.0,0.0,0.0,0.0,0.0,0.0,0.0,0.0,0.0,0.0,0.0,0.0,0.0,0.0,0.0,0.0,0.0,0.0,0.0,-4.5075,-4.5276,-4.6472,-4.659,-4.7261,-4.8607,-4.9449,-5.0925,-5.2988,-5.4439,-5.5713,-5.6903,-5.7606,-5.829,-5.8914,-5.9888,-6.0475,-6.0639,-6.0676,-6.0574,-6.0591,-6.1565,-6.1972,-6.2296,-6.3552,-6.3972,-6.4007,-6.4177,-6.3851,-6.3241,-6.2823,-6.2499,-6.228,-6.2088,-6.227,-6.2828,-6.3404,-6.3615,-6.3755,-6.4253,-6.4044,-6.3658,-6.3348,-6.3227,-6.3076,-6.2923,-6.2923,-6.2761,-6.1893,-6.2259,-6.2063,-6.0122,-5.943,-5.8773,-5.7697,-5.7296,-5.7063,-5.6911,-5.668,-5.6603,-5.6834,-5.5913,-5.5262,-5.5147,-5.4357,-5.3822,-5.3717,-5.3651,-5.3651,-5.3849,-5.3783,-5.3409,-5.2819,-5.2101,-5.1596,-5.1431,-5.0969,-5.0629,-5.0297,-5.0378,-4.9784,-1.275,-1.9084,-2.5571,-3.2298,-3.4813,0.0,-3.6692,-3.6919,-3.6934,-3.6934,0.0,0.0,0.0,0.0,0.0,0.0,0.0,0.0,0.0,0.0,0.0,0.0,0.0,0.0,0.0,0.0,0.0,0.0,0.0,0.0,-4.5077,-4.4628,-4.4929,-4.6116,-4.646,-4.7247,-4.8607,-5.0171,-5.1738,-5.3354,-5.5252,-5.6734,-5.781,-5.8519,-5.8796,-5.8761,-6.0105,-6.0555,-6.0361,-6.0511,-6.0494,-6.0466,-6.1988,-6.2424,-6.2366,-6.4076,-6.4706,-6.4706,-6.4706,-6.4315,-6.3674,-6.2877,-6.2556,-6.234,-6.1485,-6.2153,-6.3271,-6.3275,-6.3903,-6.4637,-6.4498,-6.4393,-6.4182,-6.3526,-6.3302,-6.3152,-6.2804,-6.2847,-6.2719,-6.1987,-6.197,-6.1714,-6.0179,-5.9041,-5.8241,-5.8086,-5.7586,-5.7044,-5.6713,-5.668,-5.6603,-5.6402,-5.6051,-5.558,-5.4981,-5.4295,-5.3881,-5.3754,-5.3518,-5.345,-5.3584,-5.3651,-5.3411,-5.2895,-5.2106,-5.1596,-5.1291,-5.0969,-5.0611,-5.0281,-5.0016,-4.945,-0.9192,0.0,-2.7806,0.0,-3.1544,-3.2977,0.0,0.0,-3.507,0.0,0.0,0.0,0.0,0.0,0.0,0.0,0.0,0.0,0.0,0.0,0.0,0.0,0.0,0.0,0.0,0.0,0.0,0.0,0.0,0.0,-4.3324,-4.3624,-4.4199,-4.5341,-4.5229,-4.6265,-4.8607,-4.9674,-5.1607,-5.4345,-5.6528,-5.7653,-5.781,-5.8747,-5.9383,-5.9816,-6.0622,-6.1118,-6.1286,-6.0214,-5.9997,-6.0466,-6.1923,-6.2357,-6.2366,-6.4076,-6.4706,-6.4706,-6.4706,-6.4315,-6.378,-6.3509,-6.2596,-6.1546,-6.1908,-6.2088,-6.2299,-6.31,-6.3834,-6.4463,-6.4637,-6.4568,-6.4252,-6.3639,-6.3452,-6.3152,-6.2804,-6.2847,-6.2889,-6.2591,-6.1153,-6.0091,-6.0449,-5.9142,-5.8086,-5.7852,-5.7942,-5.7642,-5.6857,-5.6525,-5.6447,-5.6402,-5.5743,-5.5435,-5.5487,-5.4449,-5.3761,-5.3945,-5.348,-5.3247,-5.3247,-5.3416,-5.3416,-5.3348,-5.2252,-5.1596,-5.1291,-5.0969,-5.0329,-4.946,-4.9765,-4.9205,-0.7255,-1.4961,-2.3012,0.0,-2.8124,-2.9305,-3.1544,0.0,-3.2651,0.0,0.0,0.0,0.0,0.0,0.0,0.0,0.0,0.0,0.0,0.0,0.0,0.0,0.0,0.0,0.0,0.0,0.0,0.0,0.0,-4.1046,-4.2996,-4.3368,-4.4005,-4.5105,-4.555,-4.6674,-4.871,-4.9705,-5.1458,-5.3976,-5.6113,-5.7068,-5.7058,-5.8004,-5.9018,-6.0126,-6.0289,-6.09,-6.1712,-6.0317,-5.9987,-6.0403,-6.1858,-6.2223,-6.2229,-6.3938,-6.4706,-6.4843,-6.4706,-6.4315,-6.3815,-6.365,-6.2778,-6.187,-6.2018,-6.2265,-6.2579,-6.2892,-6.3659,-6.4393,-6.4498,-6.4568,-6.4428,-6.3712,-6.3526,-6.3302,-6.2693,-6.2693,-6.277,-6.2727,-6.1008,-5.9834,-6.1006,-5.9431,-5.8018,-5.821,-5.7992,-5.7463,-5.6624,-5.6402,-5.6244,-5.6244,-5.5949,-5.5587,-5.5237,-5.4873,-5.4369,-5.3861,-5.3636,-5.3338,-5.3075,-5.3144,-5.301,-5.264,-5.2017,-5.1741,-5.1795,-5.0704,-4.987,-4.9317,-4.9261,-4.8779,0.0,0.0,-1.6721,-2.1659,-2.3593,-2.5115,0.0,0.0,0.0,0.0,0.0,0.0,0.0,0.0,0.0,0.0,0.0,0.0,0.0,0.0,0.0,0.0,0.0,0.0,0.0,0.0,0.0,0.0,0.0,-4.0546,-4.2305,-4.2996,-4.3811,-4.4812,-4.5857,-4.7188,-4.8862,-5.0396,-5.2077,-5.3869,-5.5541,-5.6337,-5.6463,-5.7178,-5.8311,-5.9896,-5.9648,-6.0352,-6.1552,-6.026,-5.9989,-6.0529,-6.1958,-6.229,-6.2194,-6.3869,-6.4706,-6.5014,-6.4775,-6.4315,-6.3815,-6.3861,-6.2956,-6.1879,-6.2126,-6.2336,-6.2613,-6.2716,-6.3448,-6.4287,-6.4358,-6.4428,-6.4393,-6.3673,-6.3526,-6.3302,-6.2537,-6.2537,-6.2615,-6.2615,-6.1065,-6.0169,-6.1475,-5.9885,-5.8389,-5.8624,-5.8115,-5.7423,-5.6422,-5.6165,-5.6086,-5.6006,-5.6006,-5.5777,-5.5142,-5.5181,-5.483,-5.3798,-5.3751,-5.339,-5.2727,-5.2834,-5.2637,-5.2034,-5.1719,-5.1685,-5.1847,-5.0558,-4.9661,-4.9137,-4.8944,-4.8511,0.0,-0.502,0.0,-1.4125,-1.7362,0.0,0.0,0.0,0.0,0.0,0.0,0.0,0.0,0.0,0.0,0.0,0.0,0.0,0.0,0.0,0.0,0.0,0.0,0.0,0.0,0.0,0.0,0.0,0.0,-3.9163,-4.0456,-4.2297,-4.3554,-4.4096,-4.5623,-4.7236,-4.8962,-5.1958,-5.394,-5.4905,-5.5259,-5.5871,-5.6556,-5.6546,-5.7423,-5.9054,-5.8908,-5.9656,-6.0756,-5.96,-5.9724,-6.0715,-6.2152,-6.2525,-6.2366,-6.4076,-6.4775,-6.5014,-6.4775,-6.4315,-6.3921,-6.4494,-6.2923,-6.1013,-6.251,-6.2195,-6.1567,-6.2401,-6.3269,-6.3965,-6.418,-6.418,-6.4037,-6.3452,-6.3302,-6.3152,-6.2537,-6.2381,-6.2381,-6.2381,-6.1391,-6.0772,-6.1575,-6.0717,-5.958,-5.8756,-5.8543,-5.7935,-5.6329,-5.6086,-5.6006,-5.5879,-5.5799,-5.5766,-5.5733,-5.5319,-5.4645,-5.3967,-5.3798,-5.3247,-5.2191,-5.2624,-5.2568,-5.1798,-5.1393,-5.1099,-5.0875,-5.0518,-4.9781,-4.8725,-4.9198,-4.8794,0.0,0.0,0.0,-1.0899,-1.3134,-1.6009,-1.9669,0.0,0.0,0.0,0.0,0.0,0.0,0.0,0.0,0.0,0.0,0.0,0.0,0.0,0.0,0.0,0.0,0.0,0.0,0.0,0.0,0.0,0.0,0.0,-3.9481,-4.194,-4.3562,-4.3979,-4.5635,-4.7677,-5.0066,-5.2521,-5.3878,-5.4168,-5.5094,-5.5798,-5.6332,-5.6416,-5.6999,-5.8069,-5.802,-5.8932,-6.0377,-5.9724,-6.0029,-6.1105,-6.2372,-6.2939,-6.3234,-6.4251,-6.4878,-6.5014,-6.4911,-6.4485,-6.4089,-6.4529,-6.2923,-6.1148,-6.2614,-6.2195,-6.1461,-6.2292,-6.3231,-6.3927,-6.3999,-6.4037,-6.3892,-6.3227,-6.2923,-6.2615,-6.203,-6.203,-6.211,-6.1951,-6.1107,-6.0679,-6.1332,-6.0621,-5.9679,-5.8544,-5.8446,-5.7806,-5.6123,-5.5927,-5.5846,-5.5604,-5.5685,-5.5685,-5.536,-5.4922,-5.4365,-5.3726,-5.3203,-5.2704,-5.2119,-5.2158,-5.2009,-5.1593,-5.0995,-5.0747,-5.0807,-4.9435,-4.8783,-4.8791,-4.8188,-4.7815,-0.1975,0.0,0.0,0.0,0.0,-1.0633,-1.6427,0.0,0.0,0.0,0.0,0.0,0.0,0.0,0.0,0.0,0.0,0.0,0.0,0.0,0.0,0.0,0.0,0.0,0.0,0.0,0.0,0.0,0.0,0.0,-3.9733,-4.2292,-4.4201,-4.5188,-4.6696,-4.8508,-5.0653,-5.2506,-5.3489,-5.3733,-5.4692,-5.5542,-5.6332,-5.6332,-5.6806,-5.7583,-5.7583,-5.8397,-5.9724,-5.9729,-6.0178,-6.1042,-6.2541,-6.3229,-6.3569,-6.4559,-6.5014,-6.5082,-6.4979,-6.4619,-6.4155,-6.4597,-6.3234,-6.1733,-6.2997,-6.2576,-6.1841,-6.2561,-6.3147,-6.36,-6.36,-6.3526,-6.3268,-6.2923,-6.2459,-6.2064,-6.1709,-6.1837,-6.1917,-6.1628,-6.1065,-6.0817,-6.1235,-6.0572,-5.9597,-5.8346,-5.8052,-5.738,-5.5848,-5.5604,-5.5523,-5.5328,-5.536,-5.5392,-5.5113,-5.4632,-5.4049,-5.3415,-5.2823,-5.2258,-5.1827,-5.1794,-5.152,-5.1021,-5.0523,-5.0223,-5.0127,-4.8644,-4.8201,-4.8624,-4.7677,-4.724,0.0,0.0,0.0,0.0,0.0,0.0,0.0,0.0,0.0,0.0,0.0,0.0,0.0,0.0,0.0,0.0,0.0,0.0,0.0,0.0,0.0,0.0,0.0,0.0,0.0,0.0,0.0,0.0,0.0,-3.9082,-4.1133,-4.3195,-4.5386,-4.7687,-4.8793,-4.977,-5.0653,-5.1963,-5.299,-5.379,-5.4135,-5.5066,-5.6603,-5.6368,-5.6758,-5.7583,-5.7619,-5.8093,-5.8896,-5.9698,-6.0102,-6.0552,-6.2749,-6.3474,-6.3413,-6.4782,-6.5282,-6.5282,-6.5046,-6.4584,-6.4119,-6.4562,-6.3618,-6.2568,-6.3869,-6.3338,-6.2492,-6.3171,-6.3152,-6.3,-6.3,-6.2693,-6.2381,-6.2381,-6.203,-6.1628,-6.1465,-6.1676,-6.1837,-6.1465,-6.1383,-6.1301,-6.1086,-6.049,-5.9515,-5.8097,-5.7495,-5.6776,-5.5571,-5.531,-5.5146,-5.5146,-5.4896,-5.4896,-5.5113,-5.4437,-5.3729,-5.3021,-5.2637,-5.2075,-5.1199,-5.1573,-5.1251,-5.0119,-5.0085,-4.9626,-4.8736,-4.8447,-4.822,-4.8047,-4.7794,-4.7008,-0.4867,0.0,0.0,0.0,0.0,0.0,0.0,0.0,0.0,0.0,0.0,0.0,0.0,0.0,0.0,0.0,0.0,0.0,0.0,0.0,0.0,0.0,0.0,0.0,0.0,0.0,0.0,0.0,-3.6656,-3.8645,-3.955,-4.2498,-4.5011,-4.6873,-4.8544,-4.9567,-4.997,-5.1936,-5.3295,-5.4099,-5.4993,-5.5889,-5.683,-5.7281,-5.7637,-5.7941,-5.8336,-5.8762,-5.9213,-5.9771,-6.0347,-6.1027,-6.3019,-6.3847,-6.4064,-6.5212,-6.5545,-6.5273,-6.4498,-6.3889,-6.3534,-6.3886,-6.3009,-6.2099,-6.3694,-6.3338,-6.2492,-6.3171,-6.3152,-6.3,-6.2847,-6.2693,-6.2537,-6.2189,-6.1997,-6.1837,-6.1465,-6.1383,-6.1334,-6.1169,-6.1169,-6.092,-6.0225,-5.9911,-5.935,-5.8097,-5.7804,-5.7442,-5.6743,-5.6376,-5.597,-5.5464,-5.5185,-5.4948,-5.4896,-5.3693,-5.2893,-5.2989,-5.1674,-5.098,-5.1199,-5.1199,-5.0969,-5.0528,-5.0035,-4.9519,-4.8961,-4.8326,-4.7909,-4.7706,-4.6813,-4.6224,0.0,0.0,0.0,0.0,0.0,0.0,0.0,-0.5712,0.0,0.0,0.0,0.0,0.0,0.0,0.0,0.0,0.0,0.0,0.0,0.0,0.0,0.0,0.0,0.0,0.0,0.0,0.0,-3.4513,-3.7112,-3.9373,-4.1069,-4.3368,-4.5399,-4.705,-4.8627,-4.9686,-5.0196,-5.1928,-5.3295,-5.4232,-5.5257,-5.6197,-5.7007,-5.772,-5.7997,-5.8033,-5.864,-5.8981,-5.9078,-5.9917,-6.0544,-6.1117,-6.3285,-6.3955,-6.386,-6.4966,-6.5027,-6.4444,-6.3811,-6.3385,-6.3081,-6.3282,-6.2657,-6.2104,-6.3311,-6.2989,-6.2419,-6.3021,-6.3,-6.2693,-6.2615,-6.2459,-6.2347,-6.1951,-6.1837,-6.1676,-6.1301,-6.1086,-6.0919,-6.0919,-6.075,-6.0436,-5.9544,-5.9151,-5.8656,-5.7865,-5.7539,-5.7391,-5.7377,-5.6679,-5.6059,-5.5665,-5.5027,-5.4697,-5.4613,-5.3509,-5.2826,-5.2781,-5.1534,-5.0877,-5.0972,-5.0896,-5.0639,-5.0112,-4.9791,-4.9184,-4.8396,-4.7637,-4.7146,-4.6898,-4.5846,-4.5503,0.0,0.0,0.0,0.0,0.0,0.0,-0.8102,-0.6184,0.0,0.0,0.0,0.0,0.0,0.0,0.0,0.0,0.0,0.0,0.0,0.0,0.0,0.0,0.0,0.0,0.0,-3.4134,-3.5006,-3.5836,-3.7962,-4.0697,-4.4015,-4.489,-4.6059,-4.7758,-4.8889,-4.9912,-5.0879,-5.2045,-5.3089,-5.4041,-5.5126,-5.6073,-5.6983,-5.7729,-5.8042,-5.8079,-5.8663,-5.8908,-5.8914,-6.0107,-6.0695,-6.1027,-6.3273,-6.3667,-6.3171,-6.4339,-6.4169,-6.328,-6.3049,-6.286,-6.2804,-6.2611,-6.2486,-6.2463,-6.2718,-6.2537,-6.2301,-6.2795,-6.2615,-6.2381,-6.2302,-6.2177,-6.2018,-6.1709,-6.1614,-6.1401,-6.1202,-6.0919,-6.0633,-6.0633,-6.0259,-5.9773,-5.9088,-5.8352,-5.7845,-5.7676,-5.7293,-5.7131,-5.7709,-5.667,-5.5933,-5.5847,-5.4804,-5.4157,-5.4412,-5.3776,-5.3108,-5.2409,-5.1837,-5.1214,-5.0621,-5.0679,-5.0231,-4.9278,-4.9262,-4.8528,-4.7216,-4.6663,-4.6215,-4.5935,-4.5007,-4.4827,-1.5871,0.0,0.0,0.0,0.0,0.0,-0.4785,-0.6969,0.0,0.0,0.0,0.0,0.0,0.0,0.0,0.0,0.0,0.0,0.0,0.0,0.0,0.0,0.0,0.0,0.0,-3.3581,-3.4888,-3.5747,-3.84,-4.1056,-4.3451,-4.4289,-4.5701,-4.7903,-4.8972,-4.9912,-5.0879,-5.2137,-5.2878,-5.3105,-5.4876,-5.5859,-5.6086,-5.7523,-5.8142,-5.8142,-5.8087,-5.881,-6.0086,-6.0323,-6.054,-6.0919,-6.2041,-6.2799,-6.3279,-6.3509,-6.3251,-6.2699,-6.1782,-6.1768,-6.2115,-6.2025,-6.2194,-6.229,-6.1953,-6.2465,-6.2946,-6.2391,-6.211,-6.1997,-6.187,-6.2226,-6.2446,-6.1599,-6.185,-6.2033,-6.1302,-6.075,-6.0463,-6.0463,-6.0173,-5.9686,-5.8799,-5.8432,-5.8194,-5.8194,-5.8065,-5.8226,-5.8903,-5.7785,-5.6809,-5.6376,-5.5175,-5.4327,-5.4412,-5.364,-5.2974,-5.2409,-5.1597,-5.0898,-5.0356,-4.9783,-4.9309,-4.8812,-4.7452,-4.6618,-4.6291,-4.5917,-4.5759,-4.5699,-4.473,-4.43,0.0,0.0,0.0,-1.6218,0.0,0.0,0.0,0.0,-1.0272,-1.046,0.0,0.0,0.0,0.0,0.0,0.0,0.0,0.0,0.0,0.0,0.0,0.0,0.0,0.0,0.0,-3.3142,-3.5083,-3.6772,-3.8616,-4.0735,-4.3286,-4.4084,-4.5614,-4.801,-4.8662,-4.9421,-5.0397,-5.1112,-5.1734,-5.2309,-5.4173,-5.519,-5.5586,-5.7383,-5.8186,-5.8223,-5.838,-5.881,-5.949,-6.0424,-6.0439,-5.9905,-6.1636,-6.2011,-6.181,-6.2637,-6.2247,-6.139,-6.1188,-6.1448,-6.1832,-6.1317,-6.1606,-6.2018,-6.1259,-6.1555,-6.2183,-6.2088,-6.1917,-6.187,-6.1709,-6.1896,-6.1932,-6.1434,-6.1434,-6.1432,-6.0901,-6.041,-6.0066,-6.0066,-5.9684,-5.9073,-5.8571,-5.83,-5.8125,-5.8125,-5.8213,-5.8341,-5.8574,-5.7676,-5.6819,-5.6034,-5.4962,-5.4242,-5.4242,-5.3555,-5.2776,-5.208,-5.1353,-5.0658,-4.9963,-4.9501,-4.8871,-4.8224,-4.6374,-4.5473,-4.5623,-4.4675,-4.4449,-4.4734,-4.3803,-4.3279,0.0,0.0,0.0,0.0,0.0,-1.5005,0.0,0.0,0.0,-1.1025,0.0,0.0,0.0,0.0,0.0,0.0,0.0,0.0,0.0,0.0,0.0,0.0,0.0,0.0,0.0,-3.2038,-3.4335,-3.7169,-3.7571,-3.9193,-4.2614,-4.3736,-4.5446,-4.789,-4.8279,-4.9,-5.001,-5.0081,-5.0591,-5.1469,-5.312,-5.4399,-5.5249,-5.7265,-5.8142,-5.8179,-5.8589,-5.8664,-5.8513,-6.0203,-5.9987,-5.8859,-6.1091,-6.1077,-6.0039,-6.1472,-6.1185,-6.016,-6.0808,-6.128,-6.1459,-6.076,-6.0884,-6.1293,-6.0946,-6.0882,-6.1042,-6.1682,-6.179,-6.1628,-6.1547,-6.1483,-6.1418,-6.1119,-6.0934,-6.0797,-6.0496,-6.0163,-5.9878,-5.9749,-5.928,-5.885,-5.8446,-5.814,-5.7962,-5.8052,-5.8012,-5.8005,-5.7884,-5.7093,-5.6303,-5.5557,-5.46,-5.4017,-5.4017,-5.3386,-5.2608,-5.1717,-5.119,-5.0497,-4.9564,-4.911,-4.8413,-4.7445,-4.5556,-4.4723,-4.5145,-4.3337,-4.2735,-4.3268,-4.2597,-4.2044,0.0,0.0,0.0,0.0,-2.099,0.0,0.0,0.0,-1.2824,-0.9549,0.0,0.0,0.0,0.0,0.0,0.0,0.0,0.0,0.0,0.0,0.0,0.0,0.0,0.0,0.0,0.0,-3.0748,-3.4758,-3.3538,-3.4924,-4.0305,-4.2557,-4.4764,-4.7033,-4.8217,-4.9323,-5.0505,-5.0218,-5.017,-5.0322,-5.2098,-5.3762,-5.5268,-5.718,-5.8042,-5.7997,-5.7777,-5.7969,-5.844,-5.8987,-5.8859,-5.8462,-5.9638,-5.9588,-5.8973,-5.9982,-6.0196,-6.0023,-6.0594,-6.0767,-6.0689,-6.0494,-5.9953,-5.9702,-6.1838,-6.1274,-6.0169,-6.1146,-6.1465,-6.1383,-6.1169,-6.1466,-6.1593,-6.0882,-6.1041,-6.125,-6.0541,-6.0729,-6.0727,-5.9846,-5.9935,-5.9858,-5.8792,-5.8423,-5.8332,-5.8483,-5.7852,-5.7439,-5.7884,-5.6416,-5.5328,-5.5265,-5.4372,-5.3789,-5.3465,-5.2871,-5.2184,-5.135,-5.0778,-5.009,-4.9372,-4.8247,-4.7277,-4.6461,-4.4819,-4.4324,-4.4984,-4.2276,-4.112,-4.1425,-4.1497,-4.0989,0.0,0.0,0.0,0.0,0.0,0.0,-1.5045,0.0,-1.275,0.0,0.0,0.0,0.0,0.0,0.0,0.0,0.0,0.0,0.0,0.0,0.0,0.0,0.0,0.0,0.0,0.0,0.0,0.0,0.0,-3.2942,-3.851,-4.1336,-4.387,-4.6167,-4.7241,-4.8129,-4.8908,-4.8779,-4.8713,-4.8713,-5.0569,-5.2346,-5.4115,-5.6639,-5.7857,-5.7997,-5.7857,-5.7753,-5.7681,-5.7478,-5.727,-5.6998,-5.7868,-5.8032,-5.7939,-5.9394,-5.9572,-5.9242,-6.0391,-6.0635,-6.0599,-6.113,-6.063,-6.0151,-6.2139,-6.1637,-6.0528,-6.1117,-6.1467,-6.1631,-6.1376,-6.1349,-6.1306,-6.1012,-6.0674,-6.0337,-6.0044,-6.0356,-6.0469,-5.9491,-5.9639,-5.9621,-5.8645,-5.8427,-5.83,-5.7706,-5.739,-5.6915,-5.6341,-5.5348,-5.4486,-5.4022,-5.3476,-5.3113,-5.3201,-5.2436,-5.1754,-5.1211,-4.9956,-4.8903,-4.7978,-4.7434,-4.6434,-4.4944,-4.418,-4.3568,-4.3039,-4.1484,-4.0188,-3.9201,-3.9759,-3.9336,-2.4223,0.0,0.0,0.0,0.0,0.0,0.0,0.0,0.0,0.0,0.0,0.0,0.0,0.0,0.0,0.0,0.0,0.0,0.0,0.0,0.0,0.0,0.0,0.0,0.0,0.0,0.0,0.0,0.0,-3.0148,-3.6753,-3.9759,-4.2328,-4.4628,-4.5845,-4.688,-4.7699,-4.7699,-4.7699,-4.7735,-4.9937,-5.1675,-5.3083,-5.6113,-5.7583,-5.781,-5.7857,-5.7631,-5.7239,-5.6653,-5.6217,-5.595,-5.6728,-5.7046,-5.7188,-5.8745,-5.9088,-5.8946,-6.0235,-6.0627,-6.0733,-6.1636,-6.1294,-6.084,-6.2309,-6.1839,-6.0851,-6.1052,-6.1447,-6.1719,-6.1578,-6.1317,-6.1085,-6.128,-6.0615,-5.9952,-6.0089,-6.0328,-6.0307,-5.9329,-5.9493,-5.9437,-5.8493,-5.8427,-5.8205,-5.7052,-5.6955,-5.6514,-5.5144,-5.4255,-5.3551,-5.2966,-5.2757,-5.2577,-5.2577,-5.1809,-5.0949,-5.0314,-4.8921,-4.7722,-4.6872,-4.6391,-4.5403,-4.3956,-4.3185,-4.2428,-4.1588,-4.0408,-3.9105,-3.7761,-3.8454,-3.7957,0.0,0.0,0.0,-1.9294,0.0,0.0,0.0,0.0,-1.5541,0.0,0.0,0.0,0.0,0.0,0.0,0.0,0.0,0.0,0.0,0.0,0.0,0.0,0.0,0.0,0.0,0.0,0.0,0.0,0.0,0.0,-3.4863,-3.7649,-3.9932,-4.2121,-4.4062,-4.5894,-4.7699,-4.7699,-4.7699,-4.7735,-5.0923,-5.2444,-5.2635,-5.5776,-5.7188,-5.7239,-5.7486,-5.7583,-5.7534,-5.676,-5.6162,-5.587,-5.6646,-5.687,-5.7035,-5.7966,-5.8768,-5.9476,-6.0176,-6.0663,-6.1107,-6.1708,-6.1501,-6.117,-6.237,-6.1683,-6.0692,-6.097,-6.1447,-6.1719,-6.1578,-6.1317,-6.1215,-6.1718,-6.1058,-6.0463,-6.0985,-6.1052,-6.0767,-5.9911,-5.9659,-5.9437,-5.8493,-5.8274,-5.8022,-5.7052,-5.6647,-5.6053,-5.5113,-5.3433,-5.2276,-5.2246,-5.2306,-5.2124,-5.1665,-5.0698,-4.9539,-4.8454,-4.7555,-4.6936,-4.6634,-4.4952,-4.4022,-4.3882,-4.1758,-4.0913,-4.1588,-3.8807,-3.7508,-3.7525,-3.7885,-3.7079,0.0,0.0,-2.6158,-2.1888,0.0,0.0,0.0,0.0,0.0,0.0,0.0,0.0,0.0,0.0,0.0,0.0,0.0,0.0,0.0,0.0,0.0,0.0,0.0,0.0,0.0,0.0,0.0,0.0,-2.1529,0.0,0.0,-3.7004,-4.0157,-4.1959,-4.3518,-4.4262,-4.4145,-4.6524,-4.8576,-5.0342,-5.1834,-5.3412,-5.5111,-5.6151,-5.6829,-5.7188,-5.7289,-5.7338,-5.7289,-5.6402,-5.6303,-5.6586,-5.6596,-5.714,-5.7919,-5.8043,-5.8588,-5.9303,-5.9826,-6.0338,-6.0839,-6.1363,-6.1705,-6.2002,-6.2387,-6.1941,-6.1213,-6.0903,-6.1435,-6.2003,-6.1735,-6.1556,-6.1569,-6.2095,-6.0816,-5.9639,-6.0252,-6.0412,-6.0096,-5.9211,-5.9249,-5.9158,-5.8184,-5.7494,-5.6869,-5.6119,-5.6182,-5.5652,-5.3706,-5.252,-5.1787,-5.1602,-5.1386,-5.1293,-5.1293,-5.0366,-4.9609,-4.9213,-4.7813,-4.6659,-4.5991,-4.4686,-4.3518,-4.2615,-4.1556,-4.0608,-3.9745,-3.8498,-3.7155,-3.5669,-3.5795,-3.5239,-2.781,-2.7571,0.0,-2.3671,-2.185,0.0,-1.5536,0.0,0.0,0.0,0.0,0.0,0.0,0.0,0.0,0.0,0.0,0.0,0.0,0.0,0.0,0.0,0.0,0.0,0.0,0.0,-1.3453,-1.7572,0.0,0.0,0.0,0.0,-3.8607,-4.0976,-4.2396,-4.3341,-4.3964,-4.627,-4.8892,-5.1708,-5.1858,-5.2794,-5.4437,-5.4437,-5.5204,-5.6617,-5.6829,-5.6917,-5.6829,-5.607,-5.5977,-5.6309,-5.6291,-5.6969,-5.7985,-5.8156,-5.864,-5.9376,-5.9674,-6.0247,-6.0947,-6.1222,-6.1869,-6.2501,-6.2402,-6.2064,-6.1465,-6.0886,-6.1426,-6.2061,-6.162,-6.1445,-6.1648,-6.2231,-6.0825,-5.9462,-6.0325,-6.0134,-5.9625,-5.8871,-5.8748,-5.8562,-5.784,-5.7215,-5.6528,-5.5532,-5.5809,-5.528,-5.3004,-5.1972,-5.1416,-5.1229,-5.1011,-5.0917,-5.0947,-4.9875,-4.9014,-4.8655,-4.7061,-4.6003,-4.5582,-4.3916,-4.256,-4.173,-4.083,-3.9681,-3.8234,-3.753,-3.6205,-3.4208,-3.3876,-3.3247]},{"header":{"parameterUnit":"m.s-1","parameterCategory":1,"la1":30.6,"la2":29.2853,"lo1":-89.7004,"lo2":-87.6739,"dy":0.0162,"dx":0.0183,"nx":112,"ny":82,"refTime":"2024-05-31T06:00:00:Z","depth":0,"parameterNumber":3,"parameterNumberName":"V-component_of_WINDS"},"data":[0.0,0.0,0.0,0.0,0.0,0.0,0.0,0.0,0.0,0.0,0.0,0.0,0.0,0.0,0.0,0.0,0.0,0.0,0.0,0.0,0.0,0.0,0.0,0.0,0.0,0.0,0.0,0.0,0.0,0.0,0.0,0.0,0.0,0.0,0.0,0.0,0.0,0.0,0.0,0.0,0.0,0.0,0.0,0.0,0.0,0.0,0.0,0.0,0.0,0.0,0.0,0.0,0.0,0.0,0.0,0.0,0.0,0.0,0.0,0.0,0.0,0.0,0.0,0.0,0.0,0.0,0.0,0.0,0.0,0.0,0.0,0.0,0.0,0.0,0.0,0.0,0.0,0.0,0.0,0.0,0.0,0.0,0.0,0.0,0.0,0.0,0.0,0.0,0.0,0.0,0.0,2.828,3.4423,3.8153,3.8118,3.8704,3.6559,3.0532,0.0,0.0,0.0,0.0,0.0,0.0,0.0,0.0,0.0,0.0,0.0,0.0,0.0,0.0,0.0,0.0,0.0,0.0,0.0,0.0,0.0,0.0,0.0,0.0,0.0,0.0,0.0,0.0,0.0,0.0,0.0,0.0,0.0,0.0,0.0,0.0,0.0,0.0,0.0,0.0,0.0,0.0,0.0,0.0,0.0,0.0,0.0,0.0,0.0,0.0,0.0,0.0,0.0,0.0,0.0,0.0,0.0,0.0,0.0,0.0,0.0,0.0,0.0,0.0,0.0,0.0,0.0,0.0,0.0,0.0,0.0,0.0,0.0,0.0,0.0,0.0,0.0,0.0,0.0,0.0,0.0,0.0,0.0,0.0,0.0,0.0,0.0,0.0,0.0,0.0,0.0,0.0,0.0,0.0,0.0,0.0,0.0,0.0,0.0,0.0,0.0,0.0,0.0,0.0,2.2392,3.1297,3.529,3.7265,3.7214,3.7256,3.5195,3.0266,0.0,0.0,0.0,0.0,0.0,0.0,0.0,0.0,0.0,0.0,0.0,0.0,0.0,0.0,0.0,0.0,0.0,0.0,0.0,0.0,0.0,0.0,0.0,0.0,0.0,0.0,0.0,0.0,0.0,0.0,0.0,0.0,0.0,0.0,0.0,0.0,0.0,0.0,0.0,0.0,0.0,0.0,0.0,0.0,0.0,0.0,0.0,0.0,0.0,0.0,0.0,0.0,0.0,0.0,0.0,0.0,0.0,0.0,0.0,0.0,0.0,0.0,0.0,0.0,0.0,0.0,0.0,0.0,0.0,0.0,0.0,0.0,0.0,0.0,0.0,0.0,0.0,0.0,0.0,0.0,0.0,0.0,0.0,0.0,0.0,0.0,0.0,0.0,0.0,0.0,0.0,0.0,0.0,0.0,0.0,0.0,0.0,0.0,0.0,0.0,0.0,0.0,0.0,2.176,2.5543,3.2928,3.6172,3.7616,3.7106,3.6985,3.4958,3.0366,2.5861,0.0,0.0,0.0,0.0,0.0,0.0,0.0,0.0,0.0,0.0,0.0,0.0,0.0,0.0,0.0,0.0,0.0,0.0,0.0,0.0,0.0,0.0,0.0,0.0,0.0,0.0,0.0,0.0,0.0,0.0,0.0,0.0,0.0,0.0,0.0,0.0,0.0,0.0,0.0,0.0,0.0,0.0,0.0,0.0,0.0,0.0,0.0,0.0,0.0,0.0,0.0,0.0,0.0,0.0,0.0,0.0,0.0,0.0,0.0,0.0,0.0,0.0,0.0,0.0,0.0,0.0,0.0,0.0,0.0,0.0,0.0,0.0,0.0,0.0,0.0,0.0,0.0,0.0,0.0,0.0,0.0,0.0,0.0,0.0,0.0,0.0,0.0,0.0,0.0,0.0,0.0,0.0,0.0,0.0,0.0,0.0,0.0,0.0,0.0,0.0,0.0,0.0,2.5526,2.8775,3.3519,3.6468,3.773,3.6855,3.6261,3.4118,2.9819,2.394,0.0,0.0,0.0,0.0,0.0,0.0,0.0,0.0,0.0,0.0,0.0,0.0,0.0,0.0,0.0,0.0,0.0,0.0,0.0,0.0,0.0,0.0,0.0,0.0,0.0,0.0,0.0,0.0,0.0,0.0,0.0,0.0,0.0,0.0,0.0,0.0,0.0,0.0,0.0,0.0,0.0,0.0,0.0,0.0,0.0,0.0,0.0,0.0,0.0,0.0,0.0,0.0,0.0,0.0,0.0,0.0,0.0,0.0,0.0,0.0,0.0,0.0,0.0,0.0,0.0,0.0,0.0,0.0,0.0,0.0,0.0,0.0,0.0,0.0,0.0,0.0,0.0,0.0,0.0,0.0,0.0,0.0,0.0,0.0,0.0,0.0,0.0,0.0,0.0,0.0,0.0,0.0,0.0,0.0,0.0,0.0,0.0,0.0,0.0,0.0,0.0,0.0,2.512,2.9742,3.2869,3.5587,3.6855,3.596,3.4054,3.1405,2.7905,2.1459,0.0,0.0,0.0,0.0,0.0,0.0,0.0,0.0,0.0,0.0,0.0,0.0,0.0,0.0,0.0,0.0,0.0,0.0,0.0,0.0,0.0,0.0,0.0,0.0,0.0,0.0,0.0,0.0,0.0,0.0,0.0,0.0,0.0,0.0,0.0,0.0,0.0,0.0,0.0,0.0,0.0,0.0,0.0,0.0,0.0,0.0,0.0,0.0,0.0,0.0,0.0,0.0,0.0,0.0,0.0,0.0,0.0,0.0,0.0,0.0,0.0,0.0,0.0,0.0,0.0,0.0,0.0,0.0,0.0,0.0,0.0,0.0,0.0,0.0,0.0,0.0,0.0,0.0,0.0,0.0,0.0,0.0,0.0,0.0,0.0,0.0,0.0,0.0,0.0,0.0,0.0,0.0,0.0,0.0,0.0,0.0,0.0,0.0,0.0,0.0,0.0,0.0,2.3282,2.7888,0.0,3.5197,3.6774,3.593,3.449,3.1854,2.765,0.0,0.0,0.0,0.0,0.0,0.0,0.0,0.0,0.0,0.0,0.0,0.0,0.0,0.0,0.0,0.0,0.0,0.0,0.0,0.0,0.0,0.0,0.0,0.0,0.0,0.0,0.0,0.0,0.0,0.0,0.0,0.0,0.0,0.0,0.0,0.0,0.0,0.0,0.0,0.0,0.0,0.0,0.0,0.0,0.0,0.0,0.0,0.0,0.0,0.0,0.0,0.0,0.0,0.0,0.0,0.0,0.0,0.0,0.0,0.0,0.0,0.0,0.0,0.0,0.0,0.0,0.0,0.0,0.0,0.0,0.0,0.0,0.0,0.0,0.0,0.0,0.0,0.0,0.0,0.0,0.0,0.0,0.0,0.0,0.0,0.0,0.0,0.0,0.0,0.0,0.0,0.0,0.0,0.0,0.0,0.0,0.0,0.0,0.0,0.0,0.0,0.0,1.7352,2.1806,2.6485,0.0,3.4753,3.6472,3.5927,3.405,3.1156,2.7127,0.0,0.0,0.0,0.0,0.0,0.0,0.0,0.0,0.0,0.0,0.0,0.0,0.0,0.0,0.0,0.0,0.0,0.0,0.0,0.0,0.0,0.0,0.0,0.0,0.0,0.0,0.0,0.0,0.0,0.0,0.0,0.0,0.0,0.0,0.0,0.0,0.0,0.0,0.0,0.0,0.0,0.0,0.0,0.0,0.0,0.0,0.0,0.0,0.0,0.0,0.0,0.0,0.0,0.0,0.0,0.0,0.0,0.0,0.0,0.0,0.0,0.0,0.0,0.0,0.0,0.0,0.0,0.0,0.0,0.0,0.0,0.0,0.0,0.0,0.0,0.0,0.0,0.0,0.0,0.0,0.0,0.0,0.0,0.0,0.0,0.0,0.0,0.0,0.0,0.0,0.0,0.0,0.0,0.0,0.0,0.0,0.0,0.0,0.0,0.0,0.0,0.0,1.5809,2.0891,2.6018,3.1125,3.4198,3.5859,3.5779,3.2158,2.8744,0.0,0.0,0.0,0.0,0.0,0.0,0.0,0.0,0.0,0.0,0.0,0.0,0.0,0.0,0.0,0.0,0.0,0.0,0.0,0.0,0.0,0.0,0.0,0.0,0.0,0.0,0.0,0.0,0.0,0.0,0.0,0.0,0.0,0.0,0.0,0.0,0.0,0.0,0.0,0.0,0.0,0.0,0.0,0.0,0.0,0.0,0.0,0.0,0.0,0.0,0.0,0.0,0.0,0.0,0.0,0.0,0.0,0.0,0.0,0.0,0.0,0.0,0.0,0.0,0.0,0.0,0.0,0.0,0.0,0.0,0.0,0.0,0.0,0.0,0.0,0.0,0.0,0.0,0.0,0.0,0.0,0.0,0.0,0.0,0.0,0.0,0.0,0.0,0.0,0.0,0.0,0.0,0.0,0.0,0.0,0.0,0.0,0.0,0.0,0.0,0.0,0.0,0.0,1.3377,1.8825,2.3971,2.8807,3.2088,3.3905,3.3912,3.1942,2.896,2.4746,0.0,0.0,0.0,0.0,0.0,0.0,0.0,0.0,0.0,0.0,0.0,0.0,0.0,0.0,0.0,0.0,0.0,0.0,0.0,0.0,0.0,0.0,0.0,0.0,0.0,0.0,0.0,0.0,0.0,0.0,0.0,0.0,0.0,0.0,0.0,0.0,0.0,0.0,0.0,0.0,0.0,0.0,0.0,0.0,0.0,0.0,0.0,0.0,0.0,0.0,0.0,0.0,0.0,0.0,0.0,0.0,0.0,0.0,0.0,0.0,0.0,0.0,0.0,0.0,0.0,0.0,0.0,0.0,0.0,0.0,0.0,0.0,0.0,0.0,0.0,0.0,0.0,0.0,0.0,0.0,0.0,0.0,0.0,0.0,0.0,0.0,0.0,0.0,0.0,0.0,0.0,0.0,0.0,0.0,0.0,0.0,0.0,0.0,0.0,0.0,0.0,0.0,1.0675,1.6095,2.1288,2.6263,2.9735,3.1908,3.2411,3.0992,2.8297,2.4081,0.0,0.0,0.0,0.0,0.0,0.0,0.0,0.0,0.0,0.0,0.0,0.0,0.0,0.0,0.0,0.0,0.0,0.0,0.0,0.0,0.0,0.0,0.0,0.0,0.0,0.0,0.0,0.0,0.0,0.0,0.0,0.0,0.0,0.0,0.0,0.0,0.0,0.0,0.0,0.0,0.0,0.0,0.0,0.0,0.0,0.0,0.0,0.0,0.0,0.0,0.0,0.0,0.0,0.0,0.0,0.0,0.0,0.0,0.0,0.0,0.0,0.0,0.0,0.0,0.0,0.0,0.0,0.0,0.0,0.0,0.0,0.0,0.0,0.0,0.0,0.0,0.0,0.0,0.0,0.0,0.0,0.0,0.0,0.0,0.0,0.0,0.0,0.0,0.0,0.0,0.0,0.0,0.0,0.0,0.0,0.0,0.0,0.0,0.0,0.0,0.0,0.0,0.8018,1.2979,1.8099,2.3492,2.71,2.964,3.091,2.9438,2.7055,2.3765,0.0,0.0,0.0,0.0,0.0,0.0,0.0,0.0,0.0,0.0,0.0,0.0,0.0,0.0,0.0,0.0,0.0,0.0,0.0,0.0,0.0,0.0,0.0,0.0,0.0,0.0,0.0,0.0,0.0,0.0,0.0,0.0,0.0,0.0,0.0,0.0,0.0,0.0,0.0,0.0,0.0,0.0,0.0,0.0,0.0,0.0,0.0,0.0,0.0,0.0,0.0,0.0,0.0,0.0,0.0,0.0,0.0,0.0,0.0,0.0,1.5528,0.0,0.0,0.0,0.0,0.0,0.0,0.0,0.0,0.0,0.0,0.0,0.0,0.0,0.0,0.0,0.0,0.0,0.0,0.0,0.0,0.0,0.0,0.0,0.0,0.0,0.0,0.0,0.0,0.0,0.0,0.0,0.0,0.0,0.0,0.0,0.0,0.0,0.0,0.0,0.0,0.0,0.6879,1.0538,1.4899,2.0299,2.3741,2.6117,2.7224,2.728,2.5868,2.256,1.897,0.0,0.0,0.0,0.0,0.0,0.0,0.0,0.0,0.0,0.0,0.0,0.0,0.0,0.0,0.0,0.0,0.0,0.0,0.0,0.0,0.0,0.0,0.0,0.0,0.0,0.0,0.0,0.0,0.0,0.0,0.0,0.0,0.0,0.0,0.0,0.0,0.0,0.0,0.0,0.0,0.0,0.0,0.0,0.0,0.0,0.0,0.0,0.0,0.0,0.0,0.0,0.0,0.0,0.0,0.0,0.0,0.0,0.0,0.0,0.0,1.5279,0.0,0.0,0.0,0.0,0.0,0.0,0.0,0.0,0.0,0.0,0.0,0.0,0.0,0.0,0.0,0.0,0.0,0.0,0.0,0.0,0.0,0.0,0.0,0.0,0.0,0.0,0.0,0.0,0.0,0.0,0.0,0.0,0.0,0.0,0.0,0.0,0.0,0.0,0.0,0.0,0.6,0.9125,1.2788,1.6925,2.0304,2.274,2.3957,2.4568,2.414,2.2368,1.9514,0.0,0.0,0.0,0.0,0.0,0.0,0.0,0.0,0.0,0.0,0.0,0.0,0.0,0.0,0.0,0.0,0.0,0.0,0.0,0.0,0.0,0.0,0.0,0.0,0.0,0.0,0.0,0.0,0.0,0.0,0.0,0.0,0.0,0.0,0.0,0.0,0.0,0.0,0.0,0.0,0.0,0.0,0.0,0.0,0.0,0.0,0.0,0.0,0.0,0.0,0.0,0.0,0.0,2.089,2.2427,2.3999,2.4844,2.5227,2.4788,2.0887,1.8693,1.7457,0.0,0.0,0.0,0.0,0.0,0.0,0.0,0.0,0.0,0.0,0.0,0.0,0.0,0.0,0.0,0.0,0.0,0.0,0.0,0.0,0.0,0.0,0.0,0.0,0.0,0.6956,0.6128,0.0,0.0,0.0,0.0,0.0,0.0,0.0,0.0,0.0,0.0,0.0,0.0,0.554,0.8301,1.1219,1.3979,1.7074,1.9513,2.0927,2.178,2.2219,2.214,2.0045,1.8052,0.0,0.0,0.0,0.0,0.0,0.0,0.0,0.0,0.0,0.0,0.0,0.0,0.0,0.0,0.0,0.0,0.0,0.0,0.0,0.0,0.0,0.0,0.0,0.0,0.0,0.0,0.0,0.0,0.0,0.0,0.0,0.0,0.8393,0.9014,0.0,0.0,0.0,0.0,0.0,0.0,0.0,0.0,0.0,0.0,0.0,0.0,0.0,1.3848,1.5375,1.6575,1.8578,2.1621,2.3938,2.6114,2.8403,2.9117,2.8945,2.8098,2.6571,0.0,1.9668,1.7499,0.0,0.0,0.0,0.0,0.0,0.0,0.0,0.0,0.0,0.0,0.0,0.0,0.0,0.0,0.0,0.0,0.0,0.0,0.0,0.0,0.0,0.0,1.2416,1.0988,1.0108,0.9452,0.0,0.5667,0.3726,0.4628,0.335,0.0,0.0,0.0,0.0,0.0,0.0,0.0,0.5967,0.7744,0.989,1.2289,1.4525,1.6517,1.8027,1.9566,2.0543,2.0737,1.9807,1.9125,1.9014,1.6441,0.0,0.0,0.0,0.0,0.0,0.0,0.0,0.0,0.0,0.0,0.0,0.0,0.0,0.0,0.0,0.0,0.0,0.0,0.0,0.0,0.0,0.0,0.0,0.0,0.0,0.0,0.0,0.0,0.0,0.8625,0.9607,0.9533,0.963,0.9509,0.0,0.0,0.0,0.0,0.0,0.0,0.0,0.0,0.0,1.2225,1.279,1.387,1.5672,1.7321,1.9481,2.1772,2.4303,2.6357,2.8163,2.9109,2.9152,2.8664,2.771,2.5702,2.2822,2.0615,1.7738,1.4703,0.0,0.0,0.0,0.0,1.1748,1.166,1.2942,1.2975,0.0,1.1779,0.0,0.0,0.0,0.0,0.0,0.0,0.0,0.0,0.0,0.0,0.0,1.2325,1.1521,1.0798,1.0112,0.8715,0.7281,0.0,0.5873,0.5114,0.3758,0.0,0.0,0.0,0.0,0.6356,0.7733,0.8539,0.9621,1.1288,1.2733,1.4148,1.5499,1.6966,1.8148,1.9,1.9185,1.9259,1.9318,1.8368,1.7043,0.0,0.0,0.0,0.0,0.0,0.0,0.0,0.0,0.0,0.0,0.0,0.0,0.0,0.0,0.0,0.0,0.0,0.0,0.0,0.0,0.0,0.0,0.0,0.0,0.0,0.0,0.0,0.0,0.9754,1.0555,1.0116,1.0311,1.0318,0.0,0.0,0.0,0.0,0.0,0.0,1.0169,1.0239,1.0819,1.1993,1.2535,1.3675,1.5208,1.7327,1.9357,2.1294,2.3891,2.5959,2.7633,2.865,2.894,2.8522,2.8014,2.6905,2.5092,2.3064,2.0479,1.7804,1.6933,1.5608,1.423,1.5007,1.4786,1.4472,1.5959,1.6283,1.5637,1.4744,0.0,1.2892,1.0995,0.0,0.0,0.0,0.0,1.3853,1.4425,1.435,1.4033,1.348,1.2713,1.191,1.1365,1.1065,1.0338,0.0,0.8159,0.7982,0.6266,0.0,0.0,0.0,0.0,0.8291,0.9409,0.9536,0.9936,1.0801,1.1624,1.2561,1.3659,1.4843,1.6048,1.7375,1.8177,1.8769,1.9179,1.9265,1.8375,1.6459,0.0,0.0,0.0,0.0,0.0,0.0,0.0,0.0,0.0,0.0,0.0,0.0,0.0,0.0,0.0,0.0,0.0,0.0,0.0,0.0,0.0,0.0,0.0,0.0,0.0,0.0,0.0,0.0,0.0,1.1064,1.1389,0.0,0.0,0.0,0.0,1.0111,1.0732,1.0939,1.0846,1.1151,1.1389,1.1552,1.2423,1.3001,1.3436,1.5726,1.807,2.0549,2.3426,2.5959,2.7949,2.9056,2.915,2.8552,2.8507,2.7452,2.5775,2.4458,2.2558,2.0506,1.955,1.8419,1.7339,1.7028,1.704,1.7314,1.7631,1.7276,1.6762,1.7078,1.5783,1.3926,1.3849,1.327,0.0,0.0,1.5566,1.6373,1.6599,1.6583,1.6295,1.5245,1.4193,1.3414,1.3403,1.2723,1.1838,0.0,1.0297,1.0254,1.0186,0.0,1.0085,0.9489,0.9905,1.0198,1.0098,1.0311,1.0594,1.0895,1.1378,1.2012,1.2698,1.3637,1.4784,1.6207,1.6705,1.7625,1.914,1.8178,1.7539,1.7331,1.5136,0.0,0.0,0.0,0.0,0.0,0.0,0.0,0.0,0.0,0.0,0.0,0.0,0.0,0.0,0.0,0.0,0.0,0.0,0.0,0.0,0.0,0.0,0.0,0.0,0.0,0.0,0.0,0.0,1.1479,1.1394,0.0,1.0689,1.0849,1.1046,1.1276,1.1614,1.171,1.1783,1.0902,1.0407,1.0449,1.0599,1.1025,1.1736,1.4298,1.692,1.967,2.312,2.5662,2.7344,2.8762,2.9011,2.81,2.81,2.7217,2.5707,2.5221,2.3975,2.2449,2.1593,2.0567,1.941,1.9042,1.868,1.8172,1.8265,1.8054,1.7556,1.7291,1.6668,1.5934,1.5759,1.566,1.5786,1.6507,1.7029,1.7509,1.7526,1.719,1.6687,1.6281,1.5303,1.4398,1.3845,1.3609,1.329,1.2667,1.2475,1.2193,1.1648,1.1957,1.2164,1.1713,1.1516,1.1535,1.2146,1.1758,1.1626,1.2225,1.2454,1.2746,1.314,1.3509,1.4066,1.4769,1.5355,1.6033,1.6975,1.7542,1.7476,1.6723,1.5735,1.4138,0.0,0.0,0.0,0.0,0.0,0.0,0.0,0.0,0.0,0.0,0.0,0.0,0.0,0.0,0.0,0.0,0.0,0.0,0.0,0.0,0.0,0.0,0.0,0.0,0.0,0.0,1.2203,1.1881,1.2013,1.1826,1.1264,1.1585,1.1862,1.2186,1.2168,1.1938,1.1756,1.0743,1.0023,0.9735,0.9446,0.959,1.0455,1.3159,1.5901,1.8923,2.2802,2.5703,2.7654,2.9284,2.9607,2.8866,2.8641,2.7777,2.6325,2.5964,2.5149,2.4054,2.3037,2.1859,2.0784,2.0421,1.9573,1.8828,1.8828,1.8463,1.7948,1.7443,1.728,1.7177,1.7013,1.7191,1.7405,1.7629,1.7822,1.8016,1.7911,1.736,1.6914,1.6814,1.6064,1.5132,1.4656,1.4566,1.4435,1.421,1.3926,1.3672,1.3307,1.3669,1.3967,1.3729,1.3347,1.3218,1.3594,1.3054,1.2756,1.3041,1.3093,1.3195,1.3446,1.3362,1.3553,1.4279,1.4533,1.4966,1.5689,1.6396,1.6351,1.5506,1.4867,1.3681,1.1903,0.0,0.0,0.0,0.0,0.0,0.0,0.0,0.0,0.0,0.0,0.0,0.0,0.0,0.0,0.0,0.0,0.0,0.0,0.0,0.0,0.0,0.0,0.0,1.236,1.2961,1.3193,1.2484,1.306,1.3239,1.2539,1.265,1.2686,1.2529,1.2386,1.19,1.1181,1.0737,1.0155,0.9291,0.9291,0.9291,0.9291,1.2008,1.488,1.8145,2.2325,2.6071,2.9198,3.0315,3.0778,3.0716,3.0031,2.9066,2.8099,2.713,2.6245,2.5476,2.3756,2.2391,2.1437,2.0889,1.9961,1.9084,1.9084,1.8608,1.7784,1.7784,1.7673,1.7547,1.751,1.7692,1.7968,1.7925,1.7943,1.7911,1.7687,1.736,1.7127,1.7114,1.6259,1.5549,1.5629,1.5422,1.5198,1.5144,1.4767,1.4643,1.5311,1.556,1.5658,1.5477,1.5462,0.0,1.4307,1.4131,1.3872,1.3464,1.3263,1.3293,1.3762,1.3167,1.3323,1.4662,1.4266,1.4426,1.5442,1.4699,1.4175,1.3929,1.2636,1.1757,1.1341,0.0,0.0,0.0,0.0,0.0,0.0,0.0,0.0,0.0,0.0,0.0,0.0,0.0,0.0,0.0,0.0,0.0,0.0,0.0,0.0,0.0,0.0,1.285,1.3361,1.3618,1.3738,1.3675,1.3237,1.2797,1.2702,1.282,1.2989,1.2943,1.2848,1.273,1.2589,1.1341,1.0302,0.9888,0.9327,0.9187,0.9467,1.1938,1.4973,1.837,2.2689,2.6383,2.9183,3.0607,3.1071,3.0716,2.9729,2.8918,2.8114,2.7672,2.6888,2.5781,2.398,2.2971,2.2565,2.1805,2.095,2.0011,1.9622,1.9006,1.8398,1.7907,1.7673,1.7467,1.716,1.7285,1.734,1.7376,1.7551,1.7687,1.7582,1.736,1.7127,1.7313,1.6484,1.5616,1.568,1.5743,1.5778,1.5782,1.5967,1.6072,1.6139,1.6304,1.655,1.6812,1.6265,0.0,1.6011,1.5508,1.5242,1.5561,1.4929,1.4697,1.5157,1.4283,1.3902,1.428,1.3994,1.4033,1.4657,1.4634,1.451,1.4417,1.3472,1.2651,0.0,0.0,0.0,0.0,0.0,0.0,0.0,0.0,0.0,0.0,0.0,0.0,0.0,0.0,0.0,0.0,0.0,0.0,0.0,0.0,0.0,0.0,1.296,1.3578,1.4387,1.4309,1.4181,1.4077,1.3563,1.3093,1.2956,1.2912,1.2696,1.2696,1.241,1.2271,1.2271,1.1212,1.0335,0.9781,0.9087,0.8809,0.9093,1.1434,1.4463,1.8133,2.2506,2.6369,2.9488,3.0914,3.1533,0.0,3.0348,2.9586,2.9039,2.8411,2.7741,0.0,0.0,0.0,0.0,0.0,2.1319,2.063,2.0115,1.936,1.8521,1.8275,1.7913,1.7479,1.7491,1.7461,1.7464,1.7464,1.7603,1.7701,1.7477,1.7257,1.7114,1.7313,1.6622,1.5934,1.612,1.6243,1.6395,1.6511,1.6894,0.0,1.7169,1.7216,1.7376,1.7712,1.7232,1.6829,1.6951,1.6488,1.6204,1.6413,1.592,1.5758,1.6065,1.5146,0.0,0.0,0.0,1.4294,1.4744,1.4659,0.0,0.0,0.0,0.0,0.0,0.0,0.0,0.0,1.1475,1.1057,0.0,0.0,0.0,0.0,0.0,0.0,0.0,0.0,0.0,0.0,0.0,0.0,0.0,0.0,0.0,0.0,1.3635,1.4483,1.5144,1.4996,1.4787,1.4182,1.4011,1.3721,1.3448,1.278,1.2376,1.2376,1.1689,1.1413,1.1413,0.0,0.0,0.0,0.0,0.849,0.85,1.0842,1.3858,1.747,2.2165,2.634,2.9883,3.1341,3.1993,3.2113,3.1248,3.0746,3.0341,2.9376,2.8739,2.8201,2.6725,2.514,2.3623,2.238,2.163,2.1175,2.0886,0.0,0.0,1.8888,1.8394,1.7726,1.796,1.8033,1.7909,1.7909,1.7941,1.7806,1.7279,1.7052,1.7014,1.7014,1.6621,1.6285,1.6595,1.6873,1.7094,1.7187,1.7674,1.8117,1.8446,1.8297,1.8261,1.8344,1.83,1.8006,1.7561,1.7186,1.6901,1.6708,0.0,0.0,1.6742,1.5953,1.5812,1.6683,1.5669,1.518,1.542,1.5106,1.5087,1.5464,1.4465,1.3992,1.4225,1.3969,1.3313,1.2141,1.176,1.1543,0.0,0.0,0.0,0.0,0.0,0.0,0.0,0.0,0.0,0.0,0.0,0.0,0.0,0.0,0.0,1.3181,1.3917,1.4587,1.4964,1.5748,1.6079,1.5462,1.4485,1.3857,1.3857,1.3327,1.3014,1.3014,1.2601,1.2338,1.2338,1.127,1.0538,1.0136,0.9326,0.8923,0.8923,1.1467,1.444,1.7834,0.0,0.0,3.0442,3.1837,3.2452,3.2402,3.1397,3.0746,3.0357,2.9936,2.9244,2.8599,2.6738,2.5472,2.4636,2.3847,2.3022,2.2119,2.1563,2.0671,1.9863,1.962,1.9112,1.8648,1.8415,1.8033,0.0,1.7477,1.7399,1.7279,1.6842,1.6832,1.6814,1.7014,1.6759,1.6493,1.664,1.7125,1.756,1.7775,1.8092,1.8518,1.9459,1.9418,1.9177,1.8955,1.9163,1.9145,1.8765,1.8286,1.7968,1.8159,1.7453,1.7249,1.7793,1.6953,1.6593,1.6954,1.7009,1.7033,1.7015,1.726,1.7279,1.7082,1.6178,1.5411,1.4733,1.4432,1.3922,1.3285,1.247,1.1835,0.0,0.0,0.0,0.0,0.0,0.0,0.0,0.0,0.0,0.0,0.0,1.2348,0.0,0.0,1.2783,1.3848,1.437,1.4928,1.5583,1.6136,1.6082,1.5352,1.467,1.4101,1.3483,1.312,1.2829,1.2696,1.2429,1.2163,1.2163,1.1423,1.0717,1.0193,0.9522,0.9117,0.9117,1.1723,1.4674,1.7844,2.2679,2.6721,2.9945,3.1544,3.2225,3.2043,3.1251,3.0795,3.0385,2.9829,2.929,2.875,2.7675,2.6666,2.5816,2.507,2.4218,2.3247,2.2549,2.1573,2.0672,2.0389,1.9801,1.9063,1.8803,1.8148,1.7601,1.7477,1.729,1.7067,1.6643,1.6536,1.6513,1.6613,1.6539,1.6544,1.7041,1.7501,1.7992,1.8538,1.878,1.9158,1.9734,2.035,2.0483,1.9687,1.9441,1.9293,1.9123,1.886,1.8658,1.8297,1.834,1.8471,1.8544,1.8336,1.8097,1.7917,1.8171,1.8294,1.8228,1.8228,1.8132,1.7903,1.6936,1.6127,1.5331,1.4879,1.4345,1.3743,1.2941,1.236,0.0,0.0,0.0,0.0,0.0,0.0,0.0,0.0,1.1557,1.2238,1.2776,1.3111,1.3523,1.3294,1.3261,1.4402,1.4795,1.5283,1.64,1.6449,1.6004,1.516,1.501,1.454,1.3474,1.3248,1.2964,1.2576,1.2173,1.1916,1.1909,1.1512,1.085,1.0193,0.9522,0.9117,0.9117,1.177,1.4684,1.7906,2.2776,2.6555,2.9341,3.1301,3.1911,3.1563,3.1203,3.0663,3.0277,2.9738,2.9257,2.9043,2.866,2.7949,2.7042,2.6021,2.5046,2.394,2.3362,2.2369,2.1368,2.1119,2.0427,1.9628,1.9389,1.8568,1.7888,1.7824,1.7546,1.7132,1.6486,1.6342,1.6377,1.636,1.6357,1.664,1.7311,1.7793,1.8239,1.8976,1.9377,1.9582,1.9826,2.0737,2.1155,2.0339,1.9817,1.9536,1.9603,1.9514,1.9272,1.8676,1.9342,1.9727,1.9309,1.9713,1.9732,1.901,1.9197,1.929,1.9139,1.8739,1.851,1.8342,1.7398,1.6578,1.5872,1.5447,1.4833,1.4106,1.3606,1.3092,0.0209,0.1062,0.205,0.4758,0.6009,0.7265,0.0,0.0,1.1902,1.2899,1.3295,1.368,1.4182,1.3743,1.3806,1.4828,1.4902,1.5289,1.642,1.6573,1.664,1.6371,1.5864,1.5268,1.4482,1.453,1.4268,1.3367,1.2972,1.2576,1.2312,1.1644,1.085,1.0193,0.9794,0.9522,0.9117,1.1784,1.4764,1.7927,2.2796,2.6698,2.9466,3.1504,3.2244,3.1616,3.1136,3.061,2.9913,3.0189,3.0071,2.983,2.9699,2.9206,2.8348,2.6713,2.5083,2.3603,2.3532,2.293,2.2011,2.1982,2.1449,2.0614,2.0572,1.9679,1.8698,1.8433,1.8018,1.7434,1.6821,1.6639,1.6675,1.6657,1.6953,1.7246,1.7086,1.7707,1.8412,1.8707,1.9054,1.9526,2.0033,2.0021,2.0142,2.0744,2.0913,2.1107,2.129,2.0689,2.0338,2.0731,2.0822,2.0751,2.0371,2.0777,2.0639,1.9581,2.0272,2.033,1.9562,1.9298,1.9014,1.8616,1.8174,1.7352,1.621,1.6399,1.5978,1.4866,1.4762,1.4215,-0.1474,-0.0101,0.151,0.3086,0.4847,0.6958,0.9323,1.0825,1.2085,1.3128,1.3697,1.4098,1.4261,1.4051,1.4056,0.0,1.5074,1.5606,1.638,1.6612,1.6722,1.6959,1.636,1.5729,1.5535,1.5042,1.4309,1.3457,1.3068,1.2718,1.2305,1.1776,1.1205,1.0457,1.0064,0.9895,0.9682,1.2177,1.5245,1.8731,2.2951,2.6753,3.0037,3.1429,3.1524,3.08,3.0277,2.9798,2.9253,2.9377,2.9362,2.9274,2.9499,2.8939,2.8027,2.7325,2.6088,2.473,2.4074,2.3429,2.2842,2.2112,2.1689,2.1166,2.0695,1.9814,1.8851,1.8544,1.7921,1.7137,1.6482,1.6099,1.5973,1.5776,1.6042,1.6333,1.6679,1.729,1.7948,1.8689,1.9152,1.9678,2.0282,2.0864,2.1352,2.1642,2.1177,2.0909,2.1328,2.1366,2.1396,2.1731,2.1481,2.1345,2.1362,2.148,2.1354,2.0923,2.1084,2.0874,2.0005,1.9907,1.9543,1.892,1.8602,1.7898,1.683,1.6808,1.654,1.5929,1.5548,1.5414,-0.2341,-0.1141,0.0357,0.1727,0.3719,0.6035,0.8822,1.0426,1.1783,1.3092,1.3695,1.4091,1.4331,1.4314,1.4336,1.4707,1.5078,1.5691,1.636,1.6367,1.6414,1.693,1.6243,1.5686,1.5676,1.5057,1.437,1.3713,1.3337,1.2905,1.2429,1.2041,1.1439,1.0623,1.0234,1.0038,1.0022,1.2389,1.5403,1.8983,2.2992,2.6719,3.0258,3.1046,3.1179,3.0684,2.9897,2.9385,2.8942,2.8942,2.8993,2.8922,2.9185,2.8776,2.8103,2.7889,2.6853,2.5485,2.4607,2.4128,2.3518,2.2432,2.1915,2.1579,2.0886,2.0016,1.9176,1.8877,1.8141,1.7244,1.6377,1.5971,1.572,1.5381,1.5519,1.5832,1.638,1.6832,1.7414,1.833,1.8993,1.9608,2.0075,2.1084,2.1935,2.2034,2.1446,2.1274,2.2034,2.2513,2.2796,2.2796,2.2317,2.2105,2.2305,2.2252,2.2095,2.1818,2.1921,2.148,2.0508,2.0483,2.0039,1.9107,1.9052,1.8471,1.7388,1.7423,1.7204,1.6827,1.6407,1.6449,-0.1596,-0.1857,-0.1641,0.1663,0.2755,0.4134,0.8018,0.9735,1.0979,1.2768,1.3245,1.3546,1.4127,1.4366,1.4518,1.4906,1.5016,1.5273,1.6506,1.585,1.5613,1.6508,1.5565,1.4706,0.0,1.5092,1.4896,1.4098,1.3731,1.3293,1.2824,1.218,1.1571,1.1012,1.0364,0.9903,0.9755,1.2012,1.4954,1.8314,2.2736,2.6438,2.935,3.0793,3.1507,3.1565,3.0754,2.9953,2.9345,2.9345,2.9393,2.9316,2.9316,2.9336,2.9212,2.8467,2.7119,2.5504,2.5258,2.4637,2.3975,2.3217,2.2423,2.1672,2.1686,2.0759,1.9738,1.9444,1.8687,1.7769,1.6886,1.6639,1.6484,1.6025,1.6077,1.6292,1.6345,1.6661,1.6996,1.7451,1.8396,1.912,1.9258,1.9997,2.0764,2.1335,2.2157,2.3132,2.4198,2.4537,2.4535,2.4083,2.3651,2.3294,2.3062,2.3238,2.2892,2.1838,2.2618,2.2408,2.0954,2.1108,2.0582,1.9298,1.9695,1.9198,1.7784,1.8391,1.8247,1.7458,1.7404,1.7263,-0.2653,-0.2968,-0.2605,0.0396,0.1853,0.3415,0.7302,0.9075,1.0539,1.2422,1.3163,1.3706,1.4435,1.4404,1.4291,1.456,1.4757,1.4967,1.51,1.4629,1.48,1.594,1.4654,0.0,0.0,0.0,0.0,1.3879,1.3663,1.3029,1.2157,1.1644,1.1257,1.087,1.0351,1.0181,1.0315,1.2234,1.4932,1.8289,2.5062,2.8768,2.997,3.1043,3.1055,3.0393,2.9716,2.9312,2.9372,2.9125,2.9172,2.9316,2.9053,2.868,2.823,2.7731,2.6836,2.5839,2.5226,2.4778,2.4239,2.2931,2.2408,2.226,2.1612,2.0859,2.0345,2.0053,1.9167,1.809,1.7012,1.6456,1.601,1.5253,1.5319,1.5491,1.5471,1.5759,1.6364,1.7407,1.806,1.8894,2.0205,2.0723,2.1521,2.3079,2.3372,2.3733,2.4526,2.4904,2.4837,2.45,2.4211,2.4102,2.4181,2.3888,2.346,2.2913,2.3019,2.2583,2.1359,2.1492,2.1048,1.9966,1.9944,1.9444,1.8446,1.8497,1.8203,1.766,1.771,1.7661,-0.3817,-0.3868,-0.3175,-0.0943,0.0797,0.2714,0.623,0.8236,0.9988,1.1917,1.2865,1.3518,1.4365,1.4412,1.4389,1.4158,1.4338,1.4473,1.4118,1.3831,1.4077,1.4912,1.4205,1.3518,0.0,0.0,0.0,1.3256,1.323,1.2722,1.1894,1.1512,1.1105,1.0799,1.0349,1.0129,1.0206,1.1887,1.4855,1.9207,2.5529,2.9081,3.0148,3.0811,3.0796,3.0281,2.9344,2.9142,2.9316,2.879,2.8807,2.9053,2.8527,2.8243,2.7922,2.7416,2.675,2.6183,2.5675,2.5269,2.4727,2.3669,2.3123,2.2849,2.2075,2.1343,2.075,2.0464,1.9628,1.8521,1.7531,1.6852,1.6351,1.5477,1.5299,1.5434,1.5417,1.5644,1.6197,1.7397,1.8024,1.8922,2.055,2.1548,2.2595,2.4371,2.4615,2.4804,2.5217,2.5497,2.5449,2.5106,2.4792,2.4683,2.4603,2.4384,2.3951,2.3559,2.3438,2.2913,2.1989,2.2045,2.1655,2.0566,2.0409,1.996,1.9099,1.8788,1.8416,1.8094,1.8138,1.8154,-0.4643,-0.4347,-0.3585,-0.2177,-0.0398,0.1906,0.4848,0.7161,0.9242,1.1198,1.2312,1.3127,0.0,0.0,1.4501,1.3876,1.3882,1.3861,1.3575,1.3361,1.3443,0.0,0.0,0.0,0.0,0.0,0.0,1.2346,0.0,1.2289,1.1791,1.1512,1.1105,1.0799,1.0246,0.9897,0.9598,1.1049,1.4646,2.0405,2.4055,2.7158,2.9651,3.0121,3.0459,3.0893,2.9733,2.9316,2.9185,2.8527,2.8527,2.8675,2.7981,2.7965,2.8147,2.747,2.6935,2.655,2.6224,2.5885,2.5588,2.5196,2.4472,2.3546,2.3168,2.224,2.1124,2.0783,2.0104,1.9182,1.8318,1.7874,1.7367,1.6465,1.6064,1.5972,1.6089,1.6211,1.6476,1.7387,1.8409,1.9343,2.0425,2.2185,2.3917,2.506,2.5775,2.6177,2.6177,2.6445,2.6385,2.5738,2.5409,2.5044,2.4573,2.4695,2.4502,2.3892,2.379,2.3499,2.2856,2.2835,2.2237,2.1013,2.1155,2.0678,1.9683,1.925,1.8891,1.8742,1.8724,1.858,-0.4585,-0.5172,-0.5021,-0.2704,-0.1177,0.0748,0.4691,0.684,0.8743,1.1398,1.2283,1.2857,0.0,0.0,0.0,1.3625,1.2919,0.0,1.2298,1.1829,0.0,1.2536,0.0,1.2182,1.2079,1.1927,0.0,0.0,1.1126,1.1301,1.0725,1.0274,0.9948,1.0015,0.964,0.9499,0.9442,1.1405,1.4229,1.7819,2.1934,2.5021,2.6974,2.8972,2.9655,2.9338,2.9104,2.879,2.8527,2.8675,2.8675,2.8807,2.8263,2.7834,2.7442,2.6597,2.5942,2.5486,2.5689,2.5649,2.5554,2.5157,2.465,2.3864,2.3594,2.2523,2.1524,2.1604,2.091,1.9731,1.8817,1.8253,1.754,1.6249,1.5862,1.5734,1.5478,1.5642,1.617,1.7223,1.929,2.1047,2.1202,2.2888,2.4556,2.5583,2.6102,2.6513,2.6699,2.6871,2.6798,2.6157,2.5964,2.5793,2.5376,2.5187,2.4828,2.4032,2.4093,2.3801,2.3078,2.2998,2.2695,2.209,2.1389,2.0832,2.0556,1.9537,1.9018,1.9146,1.8697,1.8439,-0.5049,-0.5637,-0.56,-0.3348,-0.1667,0.0362,0.4082,0.6331,0.8294,1.0755,1.1833,0.0,1.3726,1.3699,0.0,0.0,0.0,0.0,1.1046,1.0713,1.0677,0.0,1.1447,0.0,1.1455,1.1114,1.0429,0.0,1.0078,1.0378,1.0115,0.9582,0.9368,0.9506,0.918,0.9045,0.8977,1.0458,1.2413,1.4877,1.8891,2.2115,2.4372,2.7125,2.8545,2.8572,0.0,2.8675,2.8263,2.8263,2.8395,2.8543,2.7998,2.7603,2.7277,2.6593,2.6017,2.5529,2.5723,2.5875,2.5863,2.572,2.5291,2.4811,2.4433,2.3488,2.2418,2.2376,2.1597,2.0588,1.9728,1.9152,1.8297,1.6949,1.663,1.6353,1.5616,1.5936,1.6647,1.7916,2.0103,2.1913,2.2323,2.3705,2.5168,2.6174,2.6629,2.6866,2.7198,2.7181,2.694,2.624,2.6324,2.6157,2.5464,2.5464,2.5189,2.4325,2.4138,2.3908,2.3637,2.3289,2.2961,2.2696,2.1784,2.1063,2.0647,1.9512,1.8993,1.8993,1.8698,1.8608,-0.5551,-0.5934,-0.568,-0.3813,-0.1999,0.0232,0.3377,0.5769,0.7978,0.998,0.0,1.2371,1.3271,1.3571,1.3391,1.2569,0.0,1.0747,0.9662,0.9738,0.9926,1.0365,1.0724,1.1027,1.1027,1.0222,0.9656,0.9082,0.9416,0.9504,0.9591,0.915,0.8916,0.9022,0.8666,0.8456,0.8246,0.8829,1.016,1.2097,1.5646,1.8901,2.1944,2.5076,2.7101,2.8269,0.0,0.0,2.8329,2.7865,2.7882,2.8196,2.7483,2.735,2.76,2.6867,2.6315,2.6043,2.604,2.602,2.6124,2.6439,2.6319,2.5943,2.5566,2.458,2.3452,2.3038,2.2266,2.1417,2.0798,2.0292,1.9523,1.8096,1.775,1.7374,1.6361,1.6717,1.7601,1.9111,2.0668,2.2281,2.3396,2.4506,2.5679,2.6818,2.7227,2.7409,2.7787,2.7584,2.7113,2.6407,2.6617,2.6451,2.5443,2.5717,2.5549,2.4529,2.4157,2.4013,2.4096,2.3614,2.318,2.2961,2.2304,2.1428,2.051,1.9597,1.9075,1.9012,1.8878,1.9003,-0.539,-0.598,-0.5691,-0.364,-0.2041,0.0,0.3733,0.5964,0.0,0.0,1.1206,1.1792,1.2492,1.2167,1.1554,1.0924,0.9673,0.8585,0.7826,0.7856,0.8138,0.0,0.9371,0.992,0.9781,0.0,0.0,0.0,0.0,0.8397,0.8083,0.7782,0.7561,0.7773,0.7597,0.7662,0.7998,0.7852,0.8611,1.017,1.3425,1.6527,1.9426,2.3743,2.6477,2.7864,2.8245,0.0,2.8288,2.783,2.7895,2.8272,2.7445,2.7241,2.7176,2.6445,2.6004,2.5697,2.5685,2.5866,2.6172,2.6743,2.6713,2.6319,2.6059,2.5065,2.4115,2.3335,2.2888,2.2356,2.1393,2.1011,2.0491,1.9179,1.854,1.8052,1.7456,1.7725,1.8483,1.9878,2.1346,2.272,2.3855,2.4987,2.6214,2.7377,2.7767,2.82,2.9072,2.8765,2.8022,2.6926,2.7492,2.7478,2.6135,2.6279,2.5863,2.4594,2.4957,2.4745,2.3634,2.3912,2.37,2.3103,2.2493,2.1939,2.1523,2.0689,2.0301,2.0449,1.9889,1.9824,-0.5236,-0.5859,-0.5743,-0.3809,-0.2216,-0.0107,0.3399,0.0,0.0,0.0,1.0877,1.1582,1.2172,1.1918,0.0,1.0837,0.9734,0.8653,0.7638,0.7332,0.0,0.7682,0.8349,0.89,0.0,0.0,0.0,0.0,0.0,0.7892,0.7947,0.751,0.7142,0.7062,0.6939,0.7049,0.7334,0.6821,0.7196,0.8718,1.0928,1.389,1.7296,2.1598,2.4841,2.7079,2.8279,0.0,2.8276,2.8456,2.8537,2.8537,2.8148,2.8012,2.798,2.7129,2.6579,2.6105,2.6158,2.6311,2.6455,2.6918,2.697,2.6624,2.6266,2.5831,2.5249,2.4412,2.3866,2.3359,2.2515,2.1919,2.1361,2.0008,1.8858,1.8153,1.8067,1.8282,1.8888,2.0021,2.1349,2.2721,2.3994,2.5033,2.6144,2.748,2.7785,2.8208,2.9147,2.9393,2.8958,2.7773,2.8161,2.7925,2.649,2.6693,2.6279,2.4935,2.5274,2.5105,2.4272,2.4206,2.3927,2.3493,2.2648,2.1921,2.1472,2.0723,2.0352,2.0521,2.0171,2.0246,-0.5083,-0.5726,-0.5659,-0.3976,-0.2148,-0.0103,0.3099,0.563,0.0,0.9469,1.0544,1.1266,1.1704,1.1611,1.1272,0.0,0.9627,0.8539,0.7209,0.6824,0.6729,0.0,0.7466,0.0,0.0,0.0,0.0,0.0,0.0,0.0,0.7713,0.721,0.6902,0.6509,0.6373,0.6396,0.6738,0.5985,0.62,0.7524,0.9091,1.1718,1.5587,1.9718,2.3308,2.633,2.8357,0.0,0.0,2.9158,2.9241,2.8939,2.8607,2.851,2.8537,2.7781,2.717,2.6737,2.6577,2.6613,2.6663,2.6777,2.6915,2.7051,2.6558,2.6519,2.6323,2.536,2.4733,2.4287,2.3635,2.2925,2.2116,2.067,1.9385,1.8497,1.8788,1.8977,1.942,2.0484,2.1694,2.2955,2.4272,2.5153,2.6207,2.7494,2.7812,2.8344,2.9353,2.9954,2.9973,2.8888,2.9046,2.8537,2.6979,2.7355,2.7001,2.5464,2.5806,2.5658,2.4786,2.4716,2.4303,2.358,2.2717,2.1957,2.1342,2.0685,2.0454,2.054,2.0449,2.0668,-0.4688,-0.5383,-0.541,-0.3841,-0.1948,0.0292,0.325,0.0,0.7885,0.9262,1.0131,1.0606,1.0427,1.0286,0.9819,0.8668,0.0,0.669,0.5315,0.5169,0.5314,0.563,0.0,0.0,0.0,0.0,0.0,0.0,0.0,0.0,0.6485,0.6323,0.6302,0.6253,0.6063,0.6093,0.6531,0.5784,0.5886,0.6748,0.8492,1.0959,1.4299,1.8863,2.2981,2.6427,2.8069,0.0,0.0,2.9632,2.9277,2.9116,2.8277,2.7892,2.7693,2.7091,2.6682,2.6573,2.6064,2.6163,2.6631,2.5999,2.6806,2.78,2.7034,2.7043,2.6906,2.5539,2.5142,2.4994,2.4562,2.3825,2.2795,2.1242,2.0349,1.991,2.0016,2.0,2.0514,2.1916,2.2934,2.3791,2.4868,2.5894,2.6881,2.7765,2.84,2.9161,3.0582,3.081,3.0767,3.0351,3.0563,2.9962,2.83,2.8818,2.8257,2.599,2.7037,2.6693,2.4313,2.5425,2.5112,2.2901,2.2961,2.2584,2.1676,2.1391,2.1373,2.1533,2.1342,2.133,-0.3935,-0.4786,-0.5114,-0.427,-0.2377,-0.0092,0.2225,0.0,0.7511,0.8697,0.9683,1.0251,1.0037,0.9977,0.9649,0.8831,0.8381,0.7706,0.6388,0.5969,0.5782,0.0,0.0,0.0,0.0,0.0,0.0,0.0,0.0,0.0,0.658,0.631,0.6055,0.5662,0.5655,0.5847,0.5982,0.5409,0.5694,0.6754,0.7727,1.016,1.3925,1.8061,2.2206,2.6422,2.8997,0.0,0.0,3.1112,3.0823,2.9883,2.9556,2.9044,2.8679,2.7916,2.7375,2.702,2.6751,2.6751,2.6982,2.6645,2.7077,2.7741,2.7322,2.7276,2.7182,2.6792,2.619,2.5664,2.5432,2.4474,2.3279,2.2136,2.1544,2.1258,2.1079,2.1217,2.1569,2.2675,2.3453,2.4245,2.5142,2.6028,2.694,2.7742,2.876,2.9781,3.0723,3.1182,3.1337,3.1215,3.0978,3.031,2.8812,2.9098,2.8773,2.7275,2.7696,2.7305,2.5732,2.6157,2.573,2.4016,2.3557,2.2972,2.2279,2.168,2.1482,2.1731,2.1496,2.1493,-0.341,-0.4242,-0.4807,-0.4369,-0.2527,-0.0343,0.0,0.4484,0.7034,0.8194,0.9208,0.9865,0.9683,0.967,0.9548,0.9066,0.8684,0.8084,0.6973,0.6443,0.0,0.0,0.0,0.0,0.0,0.0,0.0,0.0,0.0,0.0,0.0,0.6438,0.5942,0.5339,0.5467,0.5569,0.5531,0.5149,0.5533,0.6611,0.729,0.9649,1.3491,1.746,2.1729,2.6033,0.0,0.0,0.0,3.2033,3.1767,3.0871,3.0583,3.0035,2.941,2.8619,2.7971,2.7461,2.7121,2.7121,2.7206,2.6905,2.7201,2.7587,2.7452,2.7374,2.7464,2.7512,2.6995,2.6245,2.5738,2.4792,2.3802,2.2938,2.2494,2.2097,2.21,2.2116,2.2473,2.3436,2.399,2.4491,2.5249,2.6172,2.6982,2.7699,2.879,2.9839,3.0754,3.1217,3.1483,3.167,3.147,3.0714,2.9346,2.9589,2.9283,2.8116,2.8275,2.7877,2.6636,2.6801,2.6256,2.4802,2.403,2.3271,2.2702,2.1861,2.1571,2.182,2.1571,2.1392,-0.3261,-0.3912,-0.4321,-0.4023,-0.2236,-0.0078,0.1778,0.4262,0.6535,0.7769,0.8743,0.9357,0.9138,0.9168,0.9162,0.8922,0.7883,0.6925,0.6379,0.5983,0.0,0.0,0.0,0.0,0.0,0.0,0.0,0.0,0.0,0.0,0.0,0.6567,0.597,0.5425,0.5499,0.5369,0.5054,0.5025,0.543,0.6042,0.7329,0.9573,1.2783,1.7158,2.1175,0.0,0.0,0.0,0.0,3.1769,3.1727,3.1935,3.0837,3.0206,2.973,2.8656,2.8267,2.8154,2.7046,2.6914,2.7026,2.6485,2.6859,2.7638,2.7505,2.757,2.7673,2.7623,2.7325,2.668,2.511,2.4663,2.4541,2.3857,2.3028,2.2716,2.3277,2.2921,2.2798,2.4028,2.4539,2.4989,2.5398,2.648,2.7303,2.7617,2.8371,2.9352,3.06,3.0865,3.1157,3.1636,3.1898,3.146,2.9927,3.0275,2.9846,2.8161,2.8925,2.8583,2.6657,2.7231,2.6713,2.4822,2.4156,2.339,2.2702,2.1861,2.166,2.2106,2.166,2.1284,-0.2034,-0.2727,-0.3378,-0.381,-0.2373,-0.0594,0.0777,0.3266,0.57,0.7228,0.8353,0.8974,0.8694,0.8685,0.8599,0.8165,0.7818,0.0,0.0,0.0,0.0,0.0,0.0,0.0,0.0,0.0,0.0,0.0,0.0,0.0,0.0,0.685,0.6035,0.5425,0.5678,0.5578,0.514,0.5333,0.5845,0.6658,0.8073,1.0373,1.3239,1.7156,0.0,0.0,0.0,0.0,0.0,3.2353,3.2313,3.1956,3.1425,3.088,3.053,2.973,2.9027,2.8643,2.8279,2.7883,2.7455,2.7033,2.7074,2.7277,2.7505,2.757,2.76,2.7271,2.7603,2.7846,2.6442,2.6113,2.5967,2.529,2.4734,2.436,2.437,2.4387,2.4531,2.5093,2.5459,2.5753,2.5846,2.6587,2.7106,2.7447,2.858,2.958,3.0448,3.1074,3.1359,3.1381,3.1649,3.1525,3.0878,3.1044,3.0629,2.939,2.9416,2.8892,2.7572,2.7568,2.7117,2.5979,2.4633,2.3894,2.3668,2.2441,2.175,2.1571,2.1753,2.1372,-0.1392,-0.2096,-0.2995,-0.3578,-0.2468,-0.0991,0.0101,0.242,0.4829,0.6484,0.772,0.8425,0.8446,0.837,0.8174,0.7896,0.7583,0.0,0.0,0.0,0.0,0.0,0.0,0.0,0.0,0.0,0.0,0.0,0.0,0.0,0.0,0.6869,0.6188,0.5694,0.5757,0.557,0.5366,0.5584,0.6256,0.727,0.8873,1.1017,1.3717,1.7499,0.0,0.0,0.0,0.0,0.0,3.2148,3.2559,3.2654,3.2393,3.2034,3.1407,3.074,3.0096,2.9355,2.9087,2.851,2.7883,2.7569,2.7317,2.7327,2.79,2.8155,2.8199,2.7863,2.8274,2.8502,2.734,2.7042,2.678,2.6299,2.5969,2.581,2.5511,2.5564,2.5728,2.5934,2.6244,2.6352,2.6462,2.6903,2.7232,2.745,2.8516,2.9419,2.9889,3.0781,3.1367,3.1416,3.1605,3.172,3.1622,3.1399,3.0827,3.0008,2.9581,2.9014,2.7998,2.7715,2.7262,2.6496,2.5114,2.4388,2.42,2.3072,2.2299,2.1751,2.2025,2.155,0.0,-0.2056,-0.2952,-0.337,-0.2462,-0.1219,-0.0205,0.1866,0.0,0.5764,0.696,0.7861,0.8354,0.8151,0.7908,0.7997,0.7341,0.0,0.0,0.0,0.0,0.0,0.0,0.0,0.0,0.0,0.0,0.0,0.0,0.0,0.0,0.6991,0.6417,0.6228,0.5869,0.571,0.5508,0.6001,0.6877,0.8056,0.961,1.1714,1.4321,1.812,0.0,0.0,0.0,0.0,0.0,3.1271,3.2316,3.3653,3.3647,3.3322,3.2588,3.1899,3.1131,3.0345,2.9567,2.8922,2.8196,2.78,2.768,2.78,2.8627,2.9122,2.9374,2.9144,2.8935,2.8748,2.8048,2.7591,2.7272,2.6875,2.6942,2.6882,2.6683,2.6589,2.6529,2.6592,2.6718,2.6861,2.7103,2.7456,2.7679,2.7679,2.8435,2.9046,2.9166,3.0216,3.1148,3.1511,3.1878,3.1958,3.1913,3.1372,3.066,3.0024,2.965,2.9007,2.8062,2.7778,2.7282,2.6496,2.5579,2.4774,2.4278,2.3636,2.2978,2.2262,2.2297,2.1931,-0.1188,0.0,-0.2457,-0.3162,-0.2419,-0.1226,0.0,0.1736,0.3843,0.5764,0.696,0.7671,0.7866,0.7749,0.7602,0.7318,0.0,0.0,0.0,0.0,0.0,0.0,0.0,0.0,0.0,0.0,0.0,0.0,0.0,0.0,0.0,0.783,0.7413,0.7039,0.6919,0.656,0.5855,0.7187,0.8156,0.8797,1.155,1.3877,1.6034,1.9206,0.0,0.0,0.0,0.0,2.9419,3.0188,3.1483,3.2824,3.3103,3.3462,3.3653,3.2721,3.2065,3.1516,3.0502,2.9447,2.8541,2.7503,2.7418,2.7747,2.8646,2.9536,2.9968,2.9334,2.9698,3.0123,2.8875,2.857,2.8321,2.8113,2.7815,2.7596,2.7526,2.7676,2.7713,2.749,2.7676,2.775,2.7296,2.775,2.8089,2.8089,2.8857,2.9597,3.0068,3.0785,3.1333,3.1486,3.1758,3.1837,3.1468,3.1484,3.1207,3.0383,3.0133,2.9526,2.8284,2.7952,2.7421,2.6496,2.5408,2.4449,2.3824,2.3975,2.3634,2.2735,2.2876,2.2613,-0.1527,-0.1861,-0.2144,-0.27,-0.1947,-0.0828,0.0201,0.1708,0.3413,0.5295,0.6205,0.6856,0.7432,0.7284,0.7109,0.0,0.7447,0.0,0.0,0.0,0.0,0.0,0.0,0.0,0.0,0.0,0.0,0.0,0.0,0.0,0.0,0.8123,0.7835,0.7595,0.7815,0.759,0.6914,0.8183,0.9421,1.0417,1.3197,1.5589,1.7831,2.0427,2.2534,0.0,0.0,0.0,2.8114,2.9585,3.1085,3.2691,3.3633,3.4203,3.445,3.3462,3.2728,3.2059,3.0894,2.9587,2.842,2.7355,2.7277,2.7748,2.8672,2.9686,3.0412,3.0178,3.0488,3.0684,2.9754,2.9348,2.8941,2.8542,2.8352,2.8339,2.818,2.8369,2.8443,2.837,2.8596,2.8499,2.804,2.827,2.8499,2.8499,2.907,2.956,3.0056,3.0863,3.1271,3.1147,3.1508,3.1612,3.1355,3.1316,3.1048,3.0327,3.0192,2.9629,2.8473,2.8452,2.793,2.6818,2.5605,2.4794,2.4259,2.439,2.4003,2.3281,2.3335,2.3033,-0.1705,-0.1861,-0.1869,-0.2359,-0.1541,-0.0406,0.0492,0.1688,0.3065,0.4728,0.5479,0.0,0.0,0.693,0.0,0.0,0.0,0.0,0.0,0.0,0.0,0.0,0.0,0.0,0.0,0.0,0.0,0.0,0.0,0.0,0.0,0.8314,0.8158,0.8269,0.8595,0.8706,0.8484,0.9361,1.0578,1.2246,1.4787,1.7224,1.9712,2.1737,2.3276,0.0,0.0,0.0,2.7318,2.8943,3.0804,3.274,3.4108,3.472,3.4892,3.4013,3.3218,3.2488,3.0763,2.9336,2.8185,2.7482,2.7462,2.7798,2.8799,2.978,3.0605,3.1307,3.1248,3.0976,3.0586,3.0077,2.9356,2.8689,2.8737,2.9028,2.8899,2.8916,2.9047,2.9165,2.9374,2.9373,2.9025,2.9081,2.9119,2.9119,2.9351,2.97,2.9922,3.0797,3.1218,3.0838,3.1186,3.1444,3.1296,3.1,3.0599,3.0049,3.013,2.9716,2.8652,2.8707,2.814,2.718,2.5937,2.5137,2.4941,2.4627,2.4233,2.3836,2.359,2.325,-0.0768,-0.0936,-0.1407,-0.2932,-0.2019,-0.0608,0.0073,0.1715,0.3454,0.0,0.0,0.0,0.0,0.7377,0.7523,0.0,0.0,0.0,0.0,0.0,0.0,0.0,0.0,0.0,0.0,0.0,0.0,0.0,0.0,0.0,0.0,0.912,0.9286,0.9485,0.9816,1.0249,1.0578,1.1236,1.2183,1.3437,1.6706,1.9584,2.2008,2.3544,2.4766,0.0,0.0,2.6264,2.6934,2.8296,3.0177,3.2284,3.3087,3.42,3.5159,3.3688,3.3103,3.273,3.0354,2.9076,2.8639,2.791,2.7807,2.8219,2.9125,3.0073,3.1149,3.1998,3.1973,3.152,3.1072,3.0424,2.9785,2.9375,2.9176,2.9176,2.9634,2.9672,2.9691,2.9751,3.0004,3.0179,2.9827,3.023,3.0577,3.0219,3.0715,3.1171,3.123,3.1307,3.1371,3.1391,3.1461,3.1264,3.0483,3.0946,3.0781,2.9723,3.0078,2.9891,2.8922,2.7763,2.7023,2.6864,2.5839,2.5137,2.4941,2.4627,2.435,2.4152,2.3683,2.3466,-0.1099,-0.1164,-0.1311,-0.2494,-0.1302,0.0348,0.1142,0.2438,0.3843,0.0,0.0,0.0,0.0,0.0,0.7428,0.778,0.0,0.0,0.0,0.0,0.0,0.0,0.0,0.0,0.0,0.0,0.0,0.0,0.0,0.0,0.0,0.0,1.0147,1.0806,1.1017,1.1673,1.2536,1.3525,1.4505,1.5153,1.8069,2.0872,2.3518,2.4421,2.552,2.6698,0.0,2.6264,2.68,2.8246,2.9739,3.1292,3.2581,3.3688,3.4279,3.2993,3.2115,3.1393,2.963,2.8946,2.8639,2.7718,2.7604,2.7973,2.8692,2.9517,3.0462,3.1801,3.2353,3.2434,3.2037,3.1219,3.0483,3.0242,2.9999,2.9999,3.0483,3.0724,3.0964,3.1084,3.1443,3.1443,3.0964,3.1238,3.1494,3.1252,3.118,3.1265,3.1523,3.1584,3.154,3.1071,3.1438,3.1451,3.0782,3.0811,3.0615,3.0175,2.9908,2.9556,2.9268,2.7796,2.7153,2.7459,2.652,2.5906,2.5604,2.5503,2.52,2.4812,2.4188,2.3877,-0.0928,-0.1078,-0.1051,-0.1403,-0.0277,0.1076,0.1877,0.3049,0.4151,0.5137,0.0,0.0,0.0,0.7118,0.0,0.8731,0.0,0.0,0.0,0.0,0.0,0.0,0.0,0.0,0.0,0.0,0.0,0.0,0.0,0.0,0.0,0.0,1.1084,1.1891,1.2327,1.2999,1.4126,1.5619,1.6551,1.7004,1.938,2.1906,2.4479,2.4998,2.5856,2.6962,2.6511,2.6542,2.6941,2.846,2.9653,3.091,3.2283,3.2973,3.3199,3.2208,3.1262,3.0248,2.9168,2.8867,2.8646,2.7589,2.7355,2.7634,2.8447,2.9058,2.9923,3.156,3.2654,3.3115,3.2774,3.193,3.1039,3.0907,3.068,3.068,3.1049,3.1294,3.168,3.1924,3.2289,3.2411,3.2046,3.2124,3.2202,3.1957,3.1769,3.1556,3.1696,3.1978,3.184,3.0952,3.1401,3.1652,3.1191,3.065,3.0359,3.0445,2.9601,2.9237,2.9343,2.7976,2.7428,2.7969,2.6917,2.6275,2.6172,2.6069,2.5778,2.5362,2.4651,2.4164,0.0908,0.0196,-0.0446,0.0372,0.0552,0.068,0.1301,0.2879,0.4376,0.5202,0.6549,0.0,0.0,0.7894,0.8488,0.0,0.0,0.0,0.0,0.0,0.0,0.0,0.0,0.0,0.0,0.0,0.0,0.0,0.0,0.0,0.0,0.0,0.0,1.2762,1.363,1.4483,1.5361,1.6804,1.8071,1.8937,2.0816,2.284,2.5194,2.5485,2.5739,2.6231,2.6841,2.71,2.7361,2.9014,3.0442,3.142,3.1838,3.1984,3.2003,3.1561,3.1027,3.0248,2.9168,2.8774,2.8625,2.7949,2.7458,2.746,2.8801,2.9637,3.0519,3.1837,3.2962,3.3516,3.2853,3.1836,3.1022,3.1199,3.068,3.0328,3.068,3.1049,3.1294,3.1294,3.1783,3.2289,3.2532,3.2726,3.2754,3.2754,3.2962,3.2942,3.2343,3.2485,3.2295,3.1465,3.1801,3.1761,3.1325,3.0512,3.0083,3.0231,2.951,2.9026,2.8727,2.7766,2.7323,2.7761,2.6399,2.5863,2.6172,2.5655,2.5362,2.5362,2.4445,2.4061,0.0554,0.0552,0.0682,0.0567,0.1387,0.2268,0.234,0.3363,0.4678,0.5905,0.6721,0.0,0.0,0.0,0.0,0.0,0.0,0.0,0.0,0.0,0.0,0.0,0.0,0.0,0.0,0.0,0.0,0.0,0.0,0.0,0.0,0.0,0.0,1.4482,1.5328,1.6304,1.7347,1.8618,2.0014,2.1291,2.2004,2.3479,2.5472,2.5593,2.5945,2.6552,2.7052,2.7328,2.7588,2.8884,2.9909,3.0538,3.1063,3.1525,3.18,3.1009,3.062,3.0248,2.8922,2.8659,2.8675,2.7733,2.7392,2.7648,2.8039,2.8697,2.9564,3.0847,3.1769,3.2603,3.3203,3.274,3.2034,3.196,3.1696,3.157,3.1444,3.1822,3.2325,3.2325,3.2825,3.3322,3.3446,3.344,3.3434,3.3434,3.3218,3.2917,3.2669,3.2656,3.2525,3.1973,3.154,3.1328,3.1035,3.0312,2.9812,2.9986,2.9479,2.9124,2.88,2.7833,2.7515,2.8047,2.6918,2.6523,2.6949,2.6417,2.5882,2.5559,2.4969,2.4333,0.1176,0.1379,0.1785,0.1569,0.2413,0.3351,0.3533,0.4213,0.5094,0.6321,0.6995,0.7581,0.8225,0.0,0.0,0.0,0.0,0.0,0.0,0.0,0.0,0.0,0.0,0.0,0.0,0.0,0.0,0.0,0.0,0.0,0.0,0.0,0.0,0.0,1.7013,1.8049,1.901,2.0303,2.1526,2.2991,2.3107,2.4063,2.5594,2.5606,2.5846,2.6356,2.697,2.7407,2.7827,2.8963,2.9691,3.0083,3.0602,3.1138,3.1525,3.0638,3.0378,3.0248,2.879,2.8395,2.8543,2.7467,2.7226,2.7458,2.7556,2.7989,2.8737,2.9996,3.0959,3.1884,3.3097,3.3105,3.2661,3.2606,3.2483,3.2354,3.1986,3.2596,3.311,3.2842,3.3408,3.4013,3.414,3.3895,3.3836,3.41,3.3513,3.3113,3.3113,3.3113,3.2956,3.2402,3.1595,3.113,3.1113,3.0316,2.9834,2.9853,2.9634,2.9407,2.903,2.8276,2.8064,2.8496,2.7262,2.6772,2.7314,2.6427,2.5898,2.5679,2.4855,2.4132,0.3239,0.2908,0.2812,0.3712,0.3574,0.3574,0.4859,0.5335,0.5782,0.642,0.7535,0.8585,0.9301,0.9093,0.0,0.0,0.0,0.0,0.0,0.0,0.0,0.0,0.0,0.0,0.0,0.0,0.0,0.0,0.0,0.0,0.0,0.0,0.0,0.0,1.861,1.9671,2.0317,2.1509,2.2652,2.3567,2.3937,2.4659,2.561,2.561,2.561,2.5643,2.675,2.7427,2.7858,2.9232,3.0083,3.0378,3.075,3.0879,3.0879,3.0508,3.0378,3.0248,2.879,2.8263,2.813,2.7467,2.6962,2.6871,2.7471,2.7982,2.8398,2.944,3.0683,3.1728,3.2308,3.2497,3.2758,3.2967,3.2786,3.2394,3.2132,3.2842,3.3406,3.2592,3.3277,3.4211,3.4576,3.3965,3.3701,3.4516,3.4199,3.3922,3.3922,3.3922,3.3638,3.2832,3.2012,3.1484,3.1504,3.0524,2.9922,2.9922,2.9891,2.9584,2.9141,2.8939,2.8926,2.8926,2.7285,2.6645,2.6989,2.5551,2.511,2.5679,2.4073,2.3486,0.3418,0.3572,0.401,0.4394,0.4977,0.5612,0.6,0.5644,0.562,0.0,0.765,0.8333,0.8834,0.0,0.0,0.0,0.0,0.0,0.0,0.0,0.0,0.0,0.0,0.0,0.0,0.0,0.0,0.0,0.0,0.0,0.0,0.0,0.0,0.0,1.9643,2.0603,2.1511,2.2069,2.2767,2.3573,2.3943,2.442,2.4857,2.4857,2.4857,2.5028,2.6229,2.7173,2.7731,2.8991,2.9578,2.9709,2.9952,3.0651,3.1312,3.09,3.0768,3.0637,2.9177,2.8477,2.818,2.7756,2.7328,2.7105,2.7589,2.7713,2.8147,2.9441,3.0057,3.0696,3.2431,3.2711,3.2725,3.323,3.3386,3.3218,3.2954,3.3312,3.3501,3.2952,3.37,3.4544,3.4635,3.4221,3.4054,3.4556,3.4199,3.3922,3.3922,3.4047,3.3888,3.2956,3.2305,3.1836,3.1543,3.0287,2.9686,2.9922,2.9925,2.9678,2.926,2.9161,2.9041,2.9041,2.7734,2.7087,2.7105,2.5803,2.511,2.5,2.4105,2.3393,0.4545,0.4963,0.5553,0.6037,0.6479,0.6727,0.6773,0.0,0.0,0.0,0.7977,0.8351,0.8754,0.0,0.0,0.0,0.0,0.0,0.0,0.0,0.0,0.0,0.0,0.0,0.0,0.0,0.0,0.0,0.0,0.0,0.0,0.0,0.0,0.0,2.1059,2.1933,2.2264,2.3043,2.3471,2.3546,2.3921,2.4003,2.3794,2.4301,2.461,2.4641,2.5977,2.7,2.7805,2.8538,2.8922,2.9202,2.9602,3.0338,3.1114,3.099,3.0909,3.0775,2.9699,2.9008,2.8708,2.8251,2.7852,2.7691,2.7906,2.7992,2.8377,2.9412,2.9929,3.0628,3.2193,3.2799,3.3142,3.3671,3.3728,3.365,3.3516,3.3782,3.3937,3.3179,3.4027,3.4975,3.4654,3.4309,3.425,3.4556,3.4318,3.4047,3.4047,3.4423,3.4322,3.3565,3.2642,3.2191,3.2037,3.0501,2.9686,2.9922,2.9922,2.9808,2.9562,2.9603,2.9521,2.9122,2.8051,2.7327,2.6718,2.5471,2.4684,2.4462,2.3406,2.2702,0.6124,0.6674,0.7128,0.8115,0.7779,0.0,0.7401,0.7695,0.7935,0.8303,0.0,0.8633,0.9058,0.0,0.0,0.0,0.0,0.0,0.0,0.0,0.0,0.0,0.0,0.0,0.0,0.0,0.0,0.0,0.0,0.0,0.0,0.0,0.0,2.057,2.2561,2.3385,2.2905,2.4122,2.435,0.0,2.3857,2.3445,2.2637,2.3947,2.4518,2.4611,2.5771,2.6778,2.7654,2.813,2.8543,2.8841,2.9594,3.0148,3.0519,3.0903,3.1059,3.0923,3.0224,2.9643,2.927,2.8956,2.857,2.8337,2.8311,2.8576,2.8959,2.9429,3.0189,3.0972,3.1737,3.2819,3.3619,3.4218,3.4082,3.3811,3.383,3.4383,3.4562,3.3368,3.4335,3.5293,3.4785,3.4375,3.4367,3.4662,3.4565,3.4423,3.4423,3.4797,3.4797,3.4423,3.3149,3.2411,3.2653,3.1011,2.9922,2.9922,2.9922,2.9922,2.9922,3.0353,3.0059,2.9199,2.8442,2.7455,2.6062,2.4941,2.4239,2.3855,2.2307,2.1634,0.6151,0.6449,0.7074,0.7856,0.8273,0.8521,0.8512,0.8765,0.8877,0.8552,0.8635,0.8771,0.0,0.0,0.0,0.0,0.0,0.0,0.0,0.0,0.0,0.0,0.0,0.0,0.0,0.0,0.0,0.0,0.0,0.0,0.0,0.0,0.0,2.1387,2.2282,2.2963,2.3453,2.3493,2.3497,0.0,2.3386,2.3112,2.2637,2.3207,2.3888,2.4781,2.5711,2.6609,2.7354,2.7965,2.8395,2.856,2.9444,3.0304,3.0903,3.1286,3.1443,3.1305,3.0615,2.9843,2.9319,2.9237,2.875,2.8435,2.8903,2.8956,2.9058,3.0052,3.0189,3.0429,3.1704,3.2258,3.2737,3.4028,3.4515,3.4652,3.4652,3.4865,3.4732,3.4145,3.4854,3.5375,3.5107,3.5021,3.4873,3.4911,3.4544,3.4548,3.4797,3.5294,3.5294,3.4548,3.376,3.3115,3.2774,3.1229,3.0274,3.0274,3.0274,3.0157,2.9922,3.0296,3.0045,2.926,2.8861,2.7772,2.6234,2.5266,2.431,2.3492,2.2198,2.1495,0.6156,0.678,0.0,0.8255,0.0,0.879,0.8805,0.907,0.9204,0.8965,0.9007,0.0,0.0,0.0,0.0,0.0,0.0,0.0,0.0,0.0,0.0,0.0,0.0,0.0,0.0,0.0,0.0,0.0,0.0,0.0,0.0,1.8671,2.0277,2.1794,2.2723,2.3306,2.3576,2.3719,2.3612,2.3315,2.3108,2.2793,2.2128,2.2692,2.3403,2.4253,2.5267,2.5982,2.6682,2.7652,2.8246,2.8577,2.953,3.0393,3.1059,3.134,3.1548,3.1565,3.1128,3.0455,2.9826,2.9797,2.9476,2.9207,2.9614,2.9868,2.9968,3.0753,3.0855,3.0924,3.1861,3.2106,3.2435,3.4038,3.4508,3.4784,3.5059,3.5059,3.4789,3.4661,3.5046,3.5472,3.5238,3.5182,3.514,3.5184,3.494,3.4797,3.5046,3.5418,3.5541,3.517,3.4431,3.3699,3.3135,3.2018,3.1074,3.0392,3.0509,3.0509,3.0157,3.0274,3.0064,2.9278,2.888,2.8014,2.6489,2.5412,2.4149,2.2921,2.1775,2.0876,0.6116,0.7183,0.7879,0.8654,0.8761,0.0,0.864,0.9034,0.9294,0.9294,0.0,0.0,0.0,0.0,0.0,0.0,0.0,0.0,0.0,0.0,0.0,0.0,0.0,0.0,0.0,0.0,0.0,0.0,0.0,0.0,1.6966,1.8829,2.0475,2.1996,2.3164,2.3685,2.3576,2.393,2.3715,2.3061,2.2886,2.2348,2.1614,2.2171,2.2865,2.3592,2.4437,2.5393,2.6246,2.7258,2.8048,2.8841,2.9733,3.0446,3.1094,3.1425,3.1559,3.1559,3.1559,3.1022,3.0371,3.0497,3.0174,2.9902,3.0321,3.0819,3.1202,3.1548,3.1687,3.17,3.1982,3.2105,3.2526,3.3955,3.437,3.4646,3.5352,3.5196,3.4945,3.4892,3.524,3.5451,3.5448,3.53,3.5341,3.5595,3.5289,3.5128,3.5438,3.5418,3.5541,3.5932,3.5024,3.4227,3.3858,3.3109,3.2056,3.0879,3.0898,3.0859,3.0626,3.0509,3.0219,2.9623,2.9032,2.8014,2.6843,2.5412,2.4005,2.2386,2.1231,2.0357,0.5856,0.0,0.8039,0.0,0.8748,0.8836,0.0,0.0,0.9479,0.0,0.0,0.0,0.0,0.0,0.0,0.0,0.0,0.0,0.0,0.0,0.0,0.0,0.0,0.0,0.0,0.0,0.0,0.0,0.0,0.0,1.663,1.8293,1.991,2.1626,2.2304,2.2941,2.3576,2.3428,2.3247,2.2928,2.2124,2.1699,2.1614,2.1673,2.2203,2.3261,2.388,2.4849,2.6172,2.6966,2.7818,2.8841,2.9868,3.0582,3.1094,3.1425,3.1559,3.1559,3.1559,3.1022,3.0422,3.0804,3.0361,3.0018,3.0698,3.1125,3.1401,3.146,3.1826,3.1965,3.17,3.1841,3.2386,3.3659,3.4094,3.4646,3.5352,3.5196,3.504,3.5412,3.5485,3.575,3.6142,3.5888,3.5595,3.5975,3.5681,3.5496,3.5356,3.5665,3.5788,3.5932,3.5512,3.4977,3.4672,3.353,3.2784,3.2253,3.1659,3.1208,3.1208,3.0995,3.084,3.0645,2.9412,2.8014,2.6843,2.5412,2.3871,2.2021,2.1124,2.013,0.4231,0.5931,0.7422,0.0,0.8065,0.8196,0.8748,0.0,0.9285,0.0,0.0,0.0,0.0,0.0,0.0,0.0,0.0,0.0,0.0,0.0,0.0,0.0,0.0,0.0,0.0,0.0,0.0,0.0,0.0,1.4334,1.6612,1.8297,2.0054,2.1756,2.2093,2.2639,2.3364,2.3178,2.2911,2.2496,2.168,2.1479,2.1617,2.1543,2.2066,2.278,2.3445,2.4451,2.5562,2.654,2.7654,2.8973,3.0003,3.0854,3.1366,3.1704,3.1559,3.1277,3.1559,3.1022,3.0438,3.0872,3.0789,3.0511,3.109,3.1555,3.1886,3.2045,3.2087,3.2105,3.1982,3.1841,3.2123,3.3521,3.3955,3.437,3.547,3.547,3.5333,3.5489,3.5579,3.5952,3.6656,3.6241,3.6078,3.6728,3.6414,3.6081,3.5727,3.5932,3.6178,3.6178,3.5987,3.5755,3.536,3.4622,3.3809,3.2845,3.2387,3.2049,3.1576,3.146,3.1225,3.0853,2.943,2.8239,2.7395,2.5418,2.3653,2.1957,2.091,1.9832,0.0,0.0,0.6252,0.7037,0.7269,0.7499,0.0,0.0,0.0,0.0,0.0,0.0,0.0,0.0,0.0,0.0,0.0,0.0,0.0,0.0,0.0,0.0,0.0,0.0,0.0,0.0,0.0,0.0,0.0,1.4458,1.6558,1.8473,2.0197,2.1735,2.1996,2.2381,2.3045,2.2702,2.2374,2.2038,2.132,2.1204,2.1533,2.152,2.1947,2.2394,2.3046,2.3926,2.5025,2.589,2.7181,2.8709,2.9885,3.0718,3.1349,3.1844,3.1559,3.101,3.1418,3.1022,3.0438,3.0975,3.1047,3.102,3.1484,3.1933,3.2248,3.2474,3.2503,3.2403,3.2263,3.2123,3.2281,3.3678,3.3955,3.437,3.5743,3.5743,3.5606,3.5606,3.5791,3.6153,3.6938,3.6697,3.6663,3.7168,3.7023,3.6582,3.6118,3.63,3.6423,3.6545,3.6545,3.6396,3.6153,3.5664,3.4763,3.3617,3.31,3.2717,3.2153,3.1903,3.1471,3.0804,2.956,2.8502,2.7713,2.5622,2.382,2.2264,2.1155,1.997,0.0,0.217,0.0,0.5387,0.6319,0.0,0.0,0.0,0.0,0.0,0.0,0.0,0.0,0.0,0.0,0.0,0.0,0.0,0.0,0.0,0.0,0.0,0.0,0.0,0.0,0.0,0.0,0.0,0.0,1.4935,1.6448,1.8611,2.0194,2.1151,2.1761,2.2278,2.2831,2.2055,2.1656,2.1766,2.1074,2.0889,2.1286,2.1423,2.1756,2.2079,2.2465,2.3349,2.4701,2.5145,2.6435,2.8312,2.9479,3.0327,3.1094,3.1425,3.1418,3.101,3.1418,3.1022,3.0489,3.1282,3.1201,3.1088,3.185,3.2376,3.2564,3.2657,3.2936,3.3121,3.2701,3.2701,3.2981,3.4094,3.437,3.4646,3.5743,3.6016,3.6016,3.6016,3.6162,3.6515,3.6998,3.7208,3.7411,3.7252,3.7296,3.7087,3.6406,3.6423,3.6545,3.681,3.6932,3.6911,3.6889,3.6097,3.5487,3.488,3.3617,3.295,3.309,3.2248,3.1586,3.1124,3.0122,2.8911,2.7623,2.6298,2.482,2.3241,2.2033,2.0712,0.0,0.0,0.0,0.4514,0.524,0.6145,0.7403,0.0,0.0,0.0,0.0,0.0,0.0,0.0,0.0,0.0,0.0,0.0,0.0,0.0,0.0,0.0,0.0,0.0,0.0,0.0,0.0,0.0,0.0,0.0,1.6354,1.8454,2.0083,2.1213,2.1645,2.198,2.2291,2.1621,2.1495,2.1611,2.0736,2.0862,2.1765,2.1656,2.188,2.2145,2.2272,2.2622,2.3328,2.413,2.5635,2.7366,2.8919,3.0189,3.1012,3.1511,3.1294,3.101,3.1135,3.0758,3.0226,3.1299,3.1201,3.0821,3.1731,3.2376,3.268,3.2947,3.3092,3.3278,3.3139,3.2981,3.326,3.4508,3.5059,3.5606,3.6539,3.6539,3.6403,3.6674,3.6716,3.6821,3.74,3.7513,3.7473,3.7657,3.7593,3.736,3.6796,3.6667,3.6789,3.7154,3.7032,3.7032,3.7517,3.6698,3.5984,3.5392,3.455,3.3738,3.3203,3.3069,3.2499,3.1462,3.0792,2.9447,2.7586,2.6009,2.4456,2.3011,2.1707,2.0419,0.1332,0.0,0.0,0.0,0.0,0.4541,0.6888,0.0,0.0,0.0,0.0,0.0,0.0,0.0,0.0,0.0,0.0,0.0,0.0,0.0,0.0,0.0,0.0,0.0,0.0,0.0,0.0,0.0,0.0,0.0,1.6764,1.8719,2.0377,2.1675,2.1775,2.1851,2.2025,2.1347,2.1205,2.1437,2.0585,2.0766,2.1765,2.1765,2.1948,2.2104,2.2104,2.2271,2.2628,2.3377,2.4773,2.6542,2.8173,2.9484,3.0321,3.0966,3.101,3.0868,3.0993,3.0476,3.0086,3.1158,3.1012,3.0611,3.1926,3.2575,3.2881,3.344,3.3753,3.3817,3.3817,3.3955,3.4352,3.5059,3.5879,3.6559,3.7079,3.6789,3.6654,3.7213,3.7238,3.7269,3.7709,3.7666,3.7603,3.7891,3.7699,3.7441,3.714,3.7154,3.7275,3.7495,3.7517,3.7539,3.7878,3.7198,3.6457,3.586,3.5129,3.4425,3.3657,3.3636,3.298,3.1573,3.1264,3.0028,2.7929,2.6411,2.4825,2.3453,2.198,2.0174,0.0,0.0,0.0,0.0,0.0,0.0,0.0,0.0,0.0,0.0,0.0,0.0,0.0,0.0,0.0,0.0,0.0,0.0,0.0,0.0,0.0,0.0,0.0,0.0,0.0,0.0,0.0,0.0,0.0,1.5989,1.7566,1.9571,2.1164,2.2237,2.198,2.1899,2.2025,2.1126,2.0873,2.1188,2.051,2.0588,2.1163,2.1779,2.2072,2.2104,2.2118,2.23,2.2608,2.2916,2.4131,2.5703,2.7121,2.8095,2.8899,3.0036,3.0442,3.0442,3.0852,3.046,3.007,3.1141,3.1028,3.0685,3.2193,3.2972,3.3403,3.4121,3.4646,3.4921,3.4921,3.547,3.6016,3.6016,3.6539,3.7213,3.7482,3.7059,3.6789,3.7482,3.7616,3.775,3.8171,3.7798,3.7733,3.8272,3.7695,3.7224,3.7483,3.7659,3.79,3.79,3.8261,3.8261,3.7878,3.7414,3.6927,3.644,3.5337,3.4631,3.4534,3.3974,3.2966,3.147,3.1449,3.056,2.8708,2.741,2.6045,2.4613,2.2925,2.0318,0.3191,0.0,0.0,0.0,0.0,0.0,0.0,0.0,0.0,0.0,0.0,0.0,0.0,0.0,0.0,0.0,0.0,0.0,0.0,0.0,0.0,0.0,0.0,0.0,0.0,0.0,0.0,0.0,1.4163,1.5613,1.7094,1.9592,2.1228,2.1857,2.1868,2.1681,2.134,2.0458,2.0192,2.0496,1.988,1.9929,2.0544,2.1132,2.1407,2.1375,2.2102,2.241,2.2434,2.2944,2.3619,2.4657,2.6588,2.7927,2.8691,2.9376,2.9871,3.0091,2.9905,2.9453,2.929,3.0472,3.0223,2.9953,3.2105,3.2972,3.3403,3.4121,3.4646,3.4921,3.5196,3.547,3.5743,3.6268,3.6519,3.6789,3.7482,3.7616,3.777,3.8037,3.8037,3.8067,3.7999,3.7984,3.7992,3.8272,3.8078,3.82,3.8817,3.8385,3.8287,3.9017,3.8462,3.8118,3.8261,3.7596,3.7036,3.6418,3.5847,3.5202,3.4534,3.4534,3.3896,3.2501,3.2184,3.1395,3.015,2.8325,2.6693,2.5099,2.2078,1.9265,0.0,0.0,0.0,0.0,0.0,0.0,0.0,0.315,0.0,0.0,0.0,0.0,0.0,0.0,0.0,0.0,0.0,0.0,0.0,0.0,0.0,0.0,0.0,0.0,0.0,0.0,0.0,1.3422,1.4712,1.641,1.8393,2.0223,2.1412,2.194,2.1778,2.1604,2.1307,2.0586,2.0192,2.0142,1.9839,1.9762,2.0047,2.0724,2.1109,2.1122,2.2071,2.2493,2.2678,2.3,2.3544,2.4538,2.6052,2.6983,2.7602,2.8586,2.9122,2.9369,2.9249,2.9053,2.9248,3.0015,3.0054,3.0122,3.1911,3.2965,3.3539,3.4396,3.4921,3.547,3.5606,3.5879,3.5996,3.6674,3.6789,3.7059,3.775,3.8171,3.8437,3.8437,3.8702,3.8687,3.8484,3.823,3.8274,3.8482,3.8265,3.8347,3.9066,3.8773,3.8709,3.934,3.889,3.8477,3.8596,3.7992,3.7334,3.6786,3.6252,3.5624,3.4869,3.498,3.4317,3.2855,3.2489,3.1485,2.9802,2.8341,2.6538,2.4284,2.1378,1.8964,0.0,0.0,0.0,0.0,0.0,0.0,0.4399,0.3428,0.0,0.0,0.0,0.0,0.0,0.0,0.0,0.0,0.0,0.0,0.0,0.0,0.0,0.0,0.0,0.0,0.0,1.3532,1.3877,1.4116,1.553,1.759,2.0408,2.0933,2.1478,2.227,2.1767,2.1573,2.1597,2.1028,2.0512,2.0205,2.0201,1.9994,1.976,2.0585,2.0982,2.0996,2.1787,2.2465,2.3207,2.3374,2.3908,2.4657,2.5564,2.6047,2.6328,2.7476,2.8068,2.834,2.8567,2.8979,2.9286,2.9696,3.014,3.0634,3.1784,3.2902,3.4003,3.4808,3.5606,3.6016,3.6152,3.6443,3.6714,3.7079,3.7388,3.7811,3.8058,3.8437,3.8814,3.8814,3.932,3.9563,3.911,3.8806,3.8651,3.8903,3.8282,3.8174,3.8925,3.913,3.9164,3.9286,3.9272,3.9167,3.8812,3.8358,3.7882,3.7383,3.6635,3.6027,3.5445,3.5157,3.4362,3.2771,3.2298,3.0916,2.8511,2.7762,2.5882,2.2902,2.0868,1.9259,0.8087,0.0,0.0,0.0,0.0,0.0,0.2805,0.4023,0.0,0.0,0.0,0.0,0.0,0.0,0.0,0.0,0.0,0.0,0.0,0.0,0.0,0.0,0.0,0.0,0.0,1.3653,1.4273,1.4443,1.6004,1.7745,1.9573,2.0184,2.0948,2.1957,2.1676,2.1573,2.1597,2.08,2.0298,2.0252,1.9973,1.9781,1.9723,2.0229,2.0589,2.0589,2.1429,2.2722,2.4276,2.4833,2.4922,2.4613,2.5066,2.5692,2.6373,2.6632,2.7338,2.7915,2.7669,2.7987,2.8636,2.8923,2.9665,3.0718,3.1737,3.3038,3.4533,3.584,3.6403,3.6519,3.6809,3.7205,3.7521,3.7563,3.7901,3.82,3.812,3.8702,3.9078,3.9078,3.9451,3.9693,3.9474,3.9599,3.9809,3.9809,3.9721,3.9831,4.0294,3.9715,3.941,4.0027,3.9356,3.893,3.8812,3.8615,3.8136,3.7383,3.6974,3.6473,3.5753,3.5346,3.4527,3.3391,3.1706,2.9986,2.8228,2.7182,2.5496,2.3285,2.1455,1.9492,0.0,0.0,0.0,0.8353,0.0,0.0,0.0,0.0,0.6264,0.6254,0.0,0.0,0.0,0.0,0.0,0.0,0.0,0.0,0.0,0.0,0.0,0.0,0.0,0.0,0.0,1.3897,1.4622,1.5137,1.6094,1.7501,1.9272,1.9974,2.0668,2.1627,2.1412,2.1233,2.1133,2.0521,2.0118,1.9818,1.9851,1.9679,1.914,2.0039,2.0462,2.0475,2.1538,2.2722,2.4187,2.5804,2.5967,2.5428,2.5846,2.6163,2.6237,2.6588,2.6904,2.7012,2.7083,2.7842,2.8505,2.8593,2.9715,3.109,3.155,3.3248,3.5181,3.6209,3.6654,3.6809,3.7079,3.7375,3.7766,3.7831,3.8202,3.8574,3.8611,3.9231,3.9757,3.9757,4.0257,4.06,3.988,4.0069,4.0323,4.0323,4.0196,4.0285,4.0634,4.0011,3.9601,3.9969,3.9385,3.9049,3.9049,3.8732,3.8344,3.7839,3.7311,3.6805,3.63,3.5472,3.4538,3.3144,3.128,2.9813,2.8786,2.6976,2.5276,2.3785,2.1839,1.9952,0.0,0.0,0.0,0.0,0.0,0.862,0.0,0.0,0.0,0.7194,0.0,0.0,0.0,0.0,0.0,0.0,0.0,0.0,0.0,0.0,0.0,0.0,0.0,0.0,0.0,1.3599,1.4486,1.5301,1.5658,1.6737,1.8862,1.9702,2.0472,2.1322,2.1118,2.0926,2.0843,2.0361,1.9928,1.95,1.9993,1.98,1.9159,2.0138,2.0589,2.0602,2.176,2.2666,2.3789,2.6021,2.6708,2.636,2.6722,2.6557,2.6106,2.6729,2.6604,2.6315,2.7073,2.7927,2.8659,2.8494,2.986,3.1568,3.2065,3.3747,3.5599,3.6515,3.6944,3.7213,3.7348,3.7677,3.8007,3.8191,3.8632,3.8919,3.9099,3.9821,4.0388,4.0301,4.1124,4.1399,4.0545,4.071,4.0964,4.0837,4.0621,4.0427,4.0531,4.0163,3.9791,3.9628,3.9488,3.9426,3.9426,3.8965,3.8574,3.8268,3.7534,3.7026,3.6843,3.568,3.4374,3.276,3.1164,3.0166,2.9458,2.7212,2.5425,2.4108,2.2057,2.028,0.0,0.0,0.0,0.0,1.1278,0.0,0.0,0.0,0.7705,0.638,0.0,0.0,0.0,0.0,0.0,0.0,0.0,0.0,0.0,0.0,0.0,0.0,0.0,0.0,0.0,0.0,1.2736,1.3867,1.4064,1.5095,1.7316,1.8504,1.9697,2.0941,2.0965,2.1064,2.1178,2.0545,2.0143,2.0077,2.026,2.0503,2.0939,2.0953,2.0982,2.1109,2.2034,2.2835,2.376,2.519,2.636,2.6951,2.6241,2.6064,2.6103,2.6236,2.633,2.6724,2.7455,2.8014,2.8461,2.8692,2.9892,3.1911,3.4277,3.5198,3.5619,3.7104,3.7482,3.7616,3.8037,3.8595,3.9051,3.8786,3.9263,3.9587,3.9316,3.9815,4.0385,4.0367,4.1,4.1525,4.155,4.1865,4.1993,4.1715,4.1456,4.116,4.0531,4.0241,4.0014,3.9968,3.9867,3.9802,4.0106,3.9661,3.9145,3.8695,3.809,3.7575,3.7036,3.5864,3.4349,3.2532,3.1675,3.0749,2.9774,2.785,2.582,2.3796,2.1717,1.9771,0.0,0.0,0.0,0.0,0.0,0.0,0.8862,0.0,0.8122,0.0,0.0,0.0,0.0,0.0,0.0,0.0,0.0,0.0,0.0,0.0,0.0,0.0,0.0,0.0,0.0,0.0,0.0,0.0,0.0,1.4068,1.6446,1.8081,1.9303,2.0194,2.0664,2.0678,2.0134,1.9832,1.9681,1.9681,1.9665,1.9832,2.0233,2.1177,2.1488,2.1109,2.1488,2.2314,2.3451,2.4843,2.5798,2.6579,2.6372,2.6294,2.6404,2.6599,2.6679,2.6842,2.7522,2.8114,2.8742,2.998,3.0893,3.1983,3.4621,3.5586,3.601,3.7452,3.8223,3.8699,3.9101,3.965,4.0003,3.9811,3.9969,4.0126,3.9931,4.0519,4.0979,4.0887,4.1566,4.2136,4.2025,4.2061,4.197,4.1926,4.1696,4.1352,4.0747,4.0583,4.0502,4.034,4.0481,4.0571,4.0455,4.0235,3.9712,3.8942,3.8333,3.7524,3.6483,3.5907,3.4832,3.3105,3.2099,3.1077,2.9996,2.7981,2.5974,2.4023,2.238,2.0368,1.3427,0.0,0.0,0.0,0.0,0.0,0.0,0.0,0.0,0.0,0.0,0.0,0.0,0.0,0.0,0.0,0.0,0.0,0.0,0.0,0.0,0.0,0.0,0.0,0.0,0.0,0.0,0.0,0.0,1.2953,1.5885,1.7494,1.8735,1.9521,2.0053,2.002,1.9272,1.9272,1.9272,1.9286,1.9671,1.9836,1.9979,2.168,2.2104,2.1614,2.1488,2.1978,2.2981,2.4487,2.5472,2.6239,2.6603,2.6753,2.6819,2.7082,2.7084,2.7019,2.7769,2.8593,2.9458,3.1067,3.1738,3.2349,3.4717,3.5703,3.6383,3.778,3.877,3.9509,3.9799,4.0201,4.0623,4.0753,4.0693,4.0629,4.0913,4.1463,4.1837,4.1736,4.2046,4.2396,4.2303,4.2061,4.1902,4.2024,4.1761,4.1438,4.0991,4.107,4.1091,4.0826,4.1033,4.1263,4.1263,4.066,3.9985,3.8957,3.8393,3.7453,3.6129,3.592,3.5155,3.3576,3.2394,3.1252,3.0216,2.8032,2.6129,2.4405,2.2765,2.0716,0.0,0.0,0.0,1.1422,0.0,0.0,0.0,0.0,0.9477,0.0,0.0,0.0,0.0,0.0,0.0,0.0,0.0,0.0,0.0,0.0,0.0,0.0,0.0,0.0,0.0,0.0,0.0,0.0,0.0,0.0,1.5431,1.6566,1.7779,1.9196,1.9159,1.9245,1.9272,1.9272,1.9272,1.9286,2.0574,2.1189,2.1132,2.2535,2.3106,2.2981,2.2355,2.2104,2.223,2.4239,2.5594,2.6499,2.6867,2.7125,2.7052,2.7184,2.7404,2.7734,2.8541,2.9423,3.0467,3.1272,3.2186,3.3385,3.4929,3.5973,3.6648,3.7914,3.877,3.9509,3.9799,4.0201,4.071,4.1433,4.1573,4.1749,4.2504,4.2749,4.2748,4.2537,4.2555,4.2396,4.2303,4.2339,4.2155,4.2024,4.1916,4.1667,4.0968,4.1372,4.1769,4.1745,4.1606,4.1834,4.24,4.1238,3.9937,3.8542,3.8167,3.7502,3.6435,3.5917,3.5016,3.3672,3.2333,3.1252,3.0216,2.8195,2.6386,2.4837,2.2651,2.0448,0.0,0.0,1.4203,1.2321,0.0,0.0,0.0,0.0,0.0,0.0,0.0,0.0,0.0,0.0,0.0,0.0,0.0,0.0,0.0,0.0,0.0,0.0,0.0,0.0,0.0,0.0,0.0,0.0,1.0211,0.0,0.0,1.6766,1.8513,1.9455,2.0178,2.0055,1.8966,1.9152,2.0121,2.1759,2.1338,2.2124,2.382,2.427,2.3976,2.3106,2.2856,2.2731,2.2856,2.4964,2.6404,2.7446,2.7604,2.8179,2.872,2.7841,2.7788,2.8286,2.9179,3.0083,3.0999,3.1944,3.2637,3.349,3.5297,3.6305,3.7145,3.8242,3.9516,4.0651,4.1056,4.1325,4.1724,4.2478,4.1994,4.1566,4.2189,4.2301,4.2276,4.204,4.2457,4.2784,4.2662,4.2544,4.2273,4.1906,4.1953,4.1747,4.121,4.1776,4.2312,4.2538,4.2737,4.2849,4.2849,4.1519,4.0533,4.003,3.8718,3.7784,3.7243,3.6186,3.5083,3.3898,3.2907,3.1584,2.995,2.8617,2.6748,2.4515,2.2694,2.0757,1.5814,1.5283,0.0,1.3053,1.1987,0.0,0.9335,0.0,0.0,0.0,0.0,0.0,0.0,0.0,0.0,0.0,0.0,0.0,0.0,0.0,0.0,0.0,0.0,0.0,0.0,0.0,0.8325,0.905,0.0,0.0,0.0,0.0,1.8414,1.9435,2.0449,2.0557,1.9574,1.976,2.088,2.3022,2.2683,2.3368,2.4952,2.4952,2.4868,2.4471,2.3976,2.3867,2.3976,2.57,2.7,2.7921,2.8219,2.8871,2.9545,2.868,2.8759,2.912,2.9752,3.0697,3.1727,3.2381,3.3243,3.4289,3.5665,3.6559,3.7482,3.8416,3.989,4.1272,4.1368,4.1837,4.237,4.297,4.2393,4.2023,4.2831,4.2696,4.2334,4.2381,4.2683,4.2939,4.2995,4.2919,4.2597,4.2037,4.1864,4.1657,4.1225,4.2086,4.2762,4.2986,4.3184,4.3295,4.3321,4.241,4.1493,4.0646,3.9141,3.8091,3.7742,3.6202,3.5084,3.4247,3.3064,3.1563,2.9738,2.8668,2.679,2.4288,2.2635,2.0876]}]]